[[{"header":{"parameterUnit":"m.s-1","parameterCategory":1,"la1":30.6,"la2":28.766,"lo1":-90.7593,"lo2":-88.6598,"dy":0.0162,"dx":0.0183,"nx":116,"ny":114,"refTime":"2023-09-01T18:00:00:Z","depth":0,"parameterNumber":2,"parameterNumberName":"U-component_of_WINDS"},"data":[0.0,0.0,0.0,0.0,0.0,0.0,0.0,0.0,0.0,0.0,0.0,0.0,0.0,0.0,0.0,0.0,0.0,0.0,0.0,0.0,0.0,0.0,0.0,0.0,0.0,0.0,0.0,0.0,0.0,0.0,0.0,0.0,0.0,0.0,0.0,0.0,0.0,0.0,0.0,0.0,0.0,0.0,0.0,0.0,0.0,0.0,0.0,0.0,0.0,0.0,0.0,0.0,0.0,0.0,0.0,0.0,0.0,0.0,0.0,0.0,0.0,0.0,0.0,0.0,0.0,0.0,0.0,0.0,0.0,0.0,0.0,0.0,0.0,0.0,0.0,0.0,0.0,0.0,0.0,0.0,0.0,0.0,0.0,0.0,0.0,0.0,0.0,0.0,0.0,0.0,0.0,0.0,0.0,0.0,0.0,0.0,0.0,0.0,0.0,0.0,0.0,0.0,0.0,0.0,0.0,0.0,0.0,0.0,0.0,0.0,0.0,0.0,0.0,0.0,0.0,0.0,0.0,0.0,0.0,0.0,0.0,0.0,0.0,0.0,0.0,0.0,0.0,0.0,0.0,0.0,0.0,0.0,0.0,0.0,0.0,0.0,0.0,0.0,0.0,0.0,0.0,0.0,0.0,0.0,0.0,0.0,0.0,0.0,0.0,0.0,0.0,0.0,0.0,0.0,0.0,0.0,0.0,0.0,0.0,0.0,0.0,0.0,0.0,0.0,0.0,0.0,0.0,0.0,0.0,0.0,0.0,0.0,0.0,0.0,0.0,0.0,0.0,0.0,0.0,0.0,0.0,0.0,0.0,0.0,0.0,0.0,0.0,0.0,0.0,0.0,0.0,0.0,0.0,0.0,0.0,0.0,0.0,0.0,0.0,0.0,0.0,0.0,0.0,0.0,0.0,0.0,0.0,0.0,0.0,0.0,0.0,0.0,0.0,0.0,0.0,0.0,0.0,0.0,0.0,0.0,0.0,0.0,0.0,0.0,0.0,0.0,0.0,0.0,0.0,0.0,0.0,0.0,0.0,0.0,0.0,0.0,0.0,0.0,0.0,0.0,0.0,0.0,0.0,0.0,0.0,0.0,0.0,0.0,0.0,0.0,0.0,0.0,0.0,0.0,0.0,0.0,0.0,0.0,0.0,0.0,0.0,0.0,0.0,0.0,0.0,0.0,0.0,0.0,0.0,0.0,0.0,0.0,0.0,0.0,0.0,0.0,0.0,0.0,0.0,0.0,0.0,0.0,0.0,0.0,0.0,0.0,0.0,0.0,0.0,0.0,0.0,0.0,0.0,0.0,0.0,0.0,0.0,0.0,0.0,0.0,0.0,0.0,0.0,0.0,0.0,0.0,0.0,0.0,0.0,0.0,0.0,0.0,0.0,0.0,0.0,0.0,0.0,0.0,0.0,0.0,0.0,0.0,0.0,0.0,0.0,0.0,0.0,0.0,0.0,0.0,0.0,0.0,0.0,0.0,0.0,0.0,0.0,0.0,0.0,0.0,0.0,0.0,0.0,0.0,0.0,0.0,0.0,0.0,0.0,0.0,0.0,0.0,0.0,0.0,0.0,0.0,0.0,0.0,0.0,0.0,0.0,0.0,0.0,0.0,0.0,0.0,0.0,0.0,0.0,0.0,0.0,0.0,0.0,0.0,0.0,0.0,0.0,0.0,0.0,0.0,0.0,0.0,0.0,0.0,0.0,0.0,0.0,0.0,0.0,0.0,0.0,0.0,0.0,0.0,0.0,0.0,0.0,0.0,0.0,0.0,0.0,0.0,0.0,0.0,0.0,0.0,0.0,0.0,0.0,0.0,0.0,0.0,0.0,0.0,0.0,0.0,0.0,0.0,0.0,0.0,0.0,0.0,0.0,0.0,0.0,0.0,0.0,0.0,0.0,0.0,0.0,0.0,0.0,0.0,0.0,0.0,0.0,0.0,0.0,0.0,0.0,0.0,0.0,0.0,0.0,0.0,0.0,0.0,0.0,0.0,0.0,0.0,0.0,0.0,0.0,0.0,0.0,0.0,0.0,0.0,0.0,0.0,0.0,0.0,0.0,0.0,0.0,0.0,0.0,0.0,0.0,0.0,0.0,0.0,0.0,0.0,0.0,0.0,0.0,0.0,0.0,0.0,0.0,0.0,0.0,0.0,0.0,0.0,0.0,0.0,0.0,0.0,0.0,0.0,0.0,0.0,0.0,0.0,0.0,0.0,0.0,0.0,0.0,0.0,0.0,0.0,0.0,0.0,0.0,0.0,0.0,0.0,0.0,0.0,0.0,0.0,0.0,0.0,0.0,0.0,0.0,0.0,0.0,0.0,0.0,0.0,0.0,0.0,0.0,0.0,0.0,0.0,0.0,0.0,0.0,0.0,0.0,0.0,0.0,0.0,0.0,0.0,0.0,0.0,0.0,0.0,0.0,0.0,0.0,0.0,0.0,0.0,0.0,0.0,0.0,0.0,0.0,0.0,0.0,0.0,0.0,0.0,0.0,0.0,0.0,0.0,0.0,0.0,0.0,0.0,0.0,0.0,0.0,0.0,0.0,0.0,0.0,0.0,0.0,0.0,0.0,0.0,0.0,0.0,0.0,0.0,0.0,0.0,0.0,0.0,0.0,0.0,0.0,0.0,0.0,0.0,0.0,0.0,0.0,0.0,0.0,0.0,0.0,0.0,0.0,0.0,0.0,0.0,0.0,0.0,0.0,0.0,0.0,0.0,0.0,0.0,0.0,0.0,0.0,0.0,0.0,0.0,0.0,0.0,0.0,0.0,0.0,0.0,0.0,0.0,0.0,0.0,0.0,0.0,0.0,0.0,0.0,0.0,0.0,0.0,0.0,0.0,0.0,0.0,0.0,0.0,0.0,0.0,0.0,0.0,0.0,0.0,0.0,0.0,0.0,0.0,0.0,0.0,0.0,0.0,0.0,0.0,0.0,0.0,0.0,0.0,0.0,0.0,0.0,0.0,0.0,0.0,0.0,0.0,0.0,0.0,0.0,0.0,0.0,0.0,0.0,0.0,0.0,0.0,0.0,0.0,0.0,0.0,0.0,0.0,0.0,0.0,0.0,0.0,0.0,0.0,0.0,0.0,0.0,0.0,0.0,0.0,0.0,0.0,0.0,0.0,0.0,0.0,0.0,0.0,0.0,0.0,0.0,0.0,0.0,0.0,0.0,0.0,0.0,0.0,0.0,0.0,0.0,0.0,0.0,0.0,0.0,0.0,0.0,0.0,0.0,0.0,0.0,0.0,0.0,0.0,0.0,0.0,0.0,0.0,0.0,0.0,0.0,0.0,0.0,0.0,0.0,0.0,0.0,0.0,0.0,0.0,0.0,0.0,0.0,0.0,0.0,0.0,0.0,0.0,0.0,0.0,0.0,0.0,0.0,0.0,0.0,0.0,0.0,0.0,0.0,0.0,0.0,0.0,0.0,0.0,0.0,0.0,0.0,0.0,0.0,0.0,0.0,0.0,0.0,0.0,0.0,0.0,0.0,0.0,0.0,0.0,0.0,0.0,0.0,0.0,0.0,0.0,0.0,0.0,0.0,0.0,0.0,0.0,0.0,0.0,0.0,0.0,0.0,0.0,0.0,0.0,0.0,0.0,0.0,0.0,0.0,0.0,0.0,0.0,0.0,0.0,0.0,0.0,0.0,0.0,0.0,0.0,0.0,0.0,0.0,0.0,0.0,0.0,0.0,0.0,0.0,0.0,0.0,0.0,0.0,0.0,0.0,0.0,0.0,0.0,0.0,0.0,0.0,0.0,0.0,0.0,0.0,0.0,0.0,0.0,0.0,0.0,0.0,0.0,0.0,0.0,0.0,0.0,0.0,0.0,0.0,0.0,0.0,0.0,0.0,0.0,0.0,0.0,0.0,0.0,0.0,0.0,0.0,0.0,0.0,0.0,0.0,0.0,0.0,0.0,0.0,0.0,0.0,0.0,0.0,0.0,0.0,0.0,0.0,0.0,0.0,0.0,0.0,0.0,0.0,0.0,0.0,0.0,0.0,0.0,0.0,0.0,0.0,0.0,0.0,0.0,0.0,0.0,0.0,0.0,0.0,0.0,0.0,0.0,0.0,0.0,0.0,0.0,0.0,0.0,0.0,0.0,0.0,0.0,0.0,0.0,0.0,0.0,0.0,0.0,0.0,0.0,0.0,0.0,0.0,0.0,0.0,0.0,0.0,0.0,0.0,0.0,0.0,0.0,0.0,0.0,0.0,0.0,0.0,0.0,0.0,0.0,0.0,0.0,0.0,0.0,0.0,0.0,0.0,0.0,0.0,0.0,0.0,0.0,0.0,0.0,0.0,0.0,0.0,0.0,0.0,0.0,0.0,0.0,0.0,0.0,0.0,0.0,0.0,0.0,0.0,0.0,0.0,0.0,0.0,0.0,0.0,0.0,0.0,0.0,0.0,0.0,0.0,0.0,0.0,0.0,0.0,0.0,0.0,0.0,0.0,0.0,0.0,0.0,0.0,0.0,0.0,0.0,0.0,0.0,0.0,0.0,0.0,0.0,0.0,0.0,0.0,0.0,0.0,0.0,0.0,0.0,0.0,0.0,0.0,0.0,0.0,0.0,0.0,0.0,0.0,0.0,0.0,0.0,0.0,0.0,0.0,0.0,0.0,0.0,0.0,0.0,0.0,0.0,0.0,0.0,0.0,0.0,0.0,0.0,0.0,0.0,0.0,0.0,0.0,0.0,0.0,0.0,0.0,0.0,0.0,0.0,0.0,0.0,0.0,0.0,0.0,0.0,0.0,0.0,0.0,0.0,0.0,0.0,0.0,0.0,0.0,0.0,0.0,0.0,0.0,0.0,0.0,0.0,0.0,0.0,0.0,0.0,0.0,0.0,0.0,0.0,0.0,0.0,0.0,0.0,0.0,0.0,0.0,0.0,0.0,0.0,0.0,0.0,0.0,0.0,0.0,0.0,0.0,0.0,0.0,0.0,0.0,0.0,0.0,0.0,0.0,0.0,0.0,0.0,0.0,0.0,0.0,0.0,0.0,0.0,0.0,0.0,0.0,0.0,0.0,0.0,0.0,0.0,0.0,0.0,0.0,0.0,0.0,0.0,0.0,0.0,0.0,0.0,0.0,0.0,0.0,0.0,0.0,0.0,0.0,0.0,0.0,0.0,0.0,0.0,0.0,0.0,0.0,0.0,0.0,0.0,0.0,0.0,0.0,0.0,0.0,0.0,0.0,0.0,0.0,0.0,0.0,0.0,0.0,0.0,0.0,0.0,0.0,0.0,0.0,0.0,0.0,0.0,0.0,0.0,0.0,0.0,0.0,0.0,0.0,0.0,0.0,0.0,0.0,0.0,0.0,0.0,0.0,0.0,0.0,0.0,0.0,0.0,0.0,0.0,0.0,0.0,0.0,0.0,0.0,0.0,0.0,0.0,0.0,0.0,0.0,0.0,0.0,0.0,0.0,0.0,0.0,0.0,0.0,0.0,0.0,0.0,0.0,0.0,0.0,0.0,0.0,0.0,0.0,0.0,0.0,0.0,0.0,0.0,0.0,0.0,0.0,0.0,0.0,0.0,0.0,0.0,0.0,0.0,0.0,0.0,0.0,0.0,0.0,0.0,0.0,0.0,0.0,0.0,0.0,0.0,0.0,0.0,0.0,0.0,0.0,0.0,0.0,0.0,0.0,0.0,0.0,0.0,0.0,0.0,0.0,0.0,0.0,0.0,0.0,0.0,0.0,0.0,0.0,0.0,0.0,0.0,0.0,0.0,0.0,0.0,0.0,0.0,0.0,0.0,0.0,0.0,0.0,0.0,0.0,0.0,0.0,0.0,0.0,0.0,0.0,0.0,0.0,0.0,0.0,0.0,0.0,0.0,0.0,0.0,0.0,0.0,0.0,0.0,0.0,0.0,0.0,0.0,0.0,0.0,0.0,0.0,0.0,0.0,0.0,0.0,0.0,0.0,0.0,0.0,0.0,0.0,0.0,0.0,0.0,0.0,0.0,0.0,0.0,0.0,0.0,0.0,0.0,0.0,0.0,0.0,0.0,0.0,0.0,0.0,0.0,0.0,0.0,0.0,0.0,0.0,0.0,0.0,0.0,0.0,0.0,0.0,0.0,0.0,0.0,0.0,0.0,0.0,0.0,0.0,0.0,0.0,0.0,0.0,0.0,0.0,0.0,0.0,0.0,0.0,0.0,0.0,0.0,0.0,0.0,0.0,0.0,0.0,0.0,0.0,0.0,0.0,0.0,0.0,0.0,0.0,0.0,0.0,0.0,0.0,0.0,0.0,0.0,0.0,0.0,0.0,0.0,0.0,-0.4349,-0.4426,-0.4351,-0.4039,-0.4125,-0.446,0.0,0.0,0.0,0.0,0.0,0.0,0.0,0.0,0.0,0.0,0.0,0.0,0.0,0.0,0.0,0.0,0.0,0.0,0.0,0.0,0.0,0.0,0.0,0.0,0.0,0.0,0.0,0.0,0.0,0.0,0.0,0.0,0.0,0.0,0.0,0.0,0.0,0.0,0.0,0.0,0.0,0.0,0.0,0.0,0.0,0.0,0.0,0.0,0.0,0.0,0.0,0.0,0.0,0.0,0.0,0.0,0.0,0.0,0.0,0.0,0.0,0.0,0.0,0.0,0.0,0.0,0.0,0.0,0.0,0.0,0.0,0.0,0.0,0.0,0.0,0.0,0.0,0.0,0.0,0.0,0.0,0.0,0.0,0.0,0.0,0.0,0.0,0.0,0.0,0.0,0.0,0.0,0.0,0.0,0.0,0.0,-0.2954,-0.2063,-0.1452,-0.1118,0.0,0.0,0.0,0.0,0.0,0.0,0.0,-0.3149,-0.3599,-0.3599,-0.4058,-0.4216,-0.407,-0.3379,-0.3437,-0.407,-0.3287,0.0,0.0,0.0,0.0,0.0,0.0,0.0,0.0,0.0,0.0,0.0,0.0,0.0,0.0,0.0,0.0,0.0,0.0,0.0,0.0,0.0,0.0,0.0,0.0,0.0,0.0,0.0,0.0,0.0,0.0,0.0,0.0,0.0,0.0,0.0,0.0,0.0,0.0,0.0,0.0,0.0,0.0,0.0,0.0,0.0,0.0,0.0,0.0,0.0,0.0,0.0,0.0,0.0,0.0,0.0,0.0,0.0,0.0,0.0,0.0,0.0,0.0,0.0,0.0,0.0,0.0,0.0,0.0,0.0,0.0,0.0,0.0,0.0,0.0,0.0,0.0,0.0,0.0,0.0,0.0,0.0,0.0,0.0,0.0,0.0,0.0,0.0,0.0,0.0,0.0,0.0,0.0,0.0,0.0,-0.285,-0.2732,-0.1341,-0.1174,-0.1118,0.0,0.0,0.0,0.0,0.0,0.0,-0.3377,-0.4134,-0.4541,-0.4541,-0.3684,-0.3037,-0.2508,-0.2277,-0.228,-0.2454,-0.173,-0.134,-0.1229,0.0,0.0,0.0,0.0,0.0,0.0,0.0,0.0,0.0,0.0,0.0,0.0,0.0,0.0,0.0,0.0,0.0,0.0,0.0,0.0,0.0,0.0,0.0,0.0,0.0,0.0,0.0,0.0,0.0,0.0,0.0,0.0,0.0,0.0,0.0,0.0,0.0,0.0,0.0,0.0,0.0,0.0,0.0,0.0,0.0,0.0,0.0,0.0,0.0,0.0,0.0,0.0,0.0,0.0,0.0,0.0,0.0,0.0,0.0,0.0,0.0,0.0,0.0,0.0,0.0,0.0,0.0,0.0,0.0,0.0,0.0,0.0,0.0,0.0,0.0,0.0,0.0,0.0,0.0,0.0,0.0,0.0,0.0,0.0,0.0,0.0,0.0,0.0,0.0,0.0,0.0,0.0,-0.1826,-0.1619,-0.056,-0.0504,-0.0504,-0.0504,-0.0168,0.0,0.0,0.0,-0.2838,-0.361,-0.3904,-0.3807,-0.328,-0.2849,-0.2433,-0.2179,-0.1721,-0.1543,-0.1563,-0.0783,-0.095,-0.173,-0.173,0.0,0.0,0.0,0.0,0.0,0.0,0.0,0.0,0.0,0.0,0.0,0.0,0.0,0.0,0.0,0.0,0.0,0.0,0.0,0.0,0.0,0.0,0.0,0.0,0.0,0.0,0.0,0.0,0.0,0.0,0.0,0.0,0.0,0.0,0.0,0.0,0.0,0.0,0.0,0.0,0.0,0.0,0.0,0.0,0.0,0.0,0.0,0.0,0.0,0.0,0.0,0.0,0.0,0.0,0.0,0.0,0.0,0.0,0.0,0.0,0.0,0.0,0.0,0.0,0.0,0.0,0.0,0.0,0.0,0.0,0.0,0.0,0.0,0.0,0.0,0.0,0.0,0.0,0.0,0.0,0.0,0.0,0.0,0.0,0.0,0.0,0.0,0.0,0.0,0.0,-0.1226,-0.1126,-0.079,-0.0056,0.0,0.0,0.0,0.0,0.0,0.0,-0.1788,-0.255,-0.3292,-0.3341,-0.287,-0.1899,-0.1899,-0.1832,-0.1642,-0.1089,-0.0846,-0.0783,-0.0226,-0.0621,-0.1675,-0.2063,-0.2174,-0.2232,0.0,0.0,0.0,0.0,0.0,0.0,0.0,0.0,0.0,0.0,0.0,0.0,0.0,0.0,0.0,0.0,0.0,0.0,0.0,0.0,0.0,0.0,0.0,0.0,0.0,0.0,0.0,0.0,0.0,0.0,0.0,0.0,0.0,0.0,0.0,0.0,0.0,0.0,0.0,0.0,0.0,0.0,0.0,0.0,0.0,0.0,0.0,0.0,0.0,0.0,0.0,0.0,0.0,0.0,0.0,0.0,0.0,0.0,0.0,0.0,0.0,0.0,0.0,0.0,0.0,0.0,0.0,0.0,0.0,0.0,0.0,0.0,0.0,0.0,0.0,0.0,0.0,0.0,0.0,0.0,0.0,0.0,0.0,0.0,0.0,0.0,0.0,-0.1949,-0.1174,-0.1093,-0.0811,-0.0056,0.0,0.0,0.0,0.0,-0.0352,-0.1057,-0.1244,-0.173,-0.2565,-0.2562,-0.2084,-0.1166,-0.1166,-0.0787,-0.0118,-0.0059,-0.0058,-0.0056,0.0,-0.0058,-0.0224,-0.1619,-0.2174,-0.2343,-0.379,0.0,0.0,0.0,0.0,0.0,0.0,0.0,0.0,0.0,0.0,0.0,0.0,0.0,0.0,0.0,0.0,0.0,0.0,0.0,0.0,0.0,0.0,0.0,0.0,0.0,0.0,0.0,0.0,0.0,0.0,0.0,0.0,0.0,0.0,0.0,0.0,0.0,0.0,0.0,0.0,0.0,0.0,0.0,0.0,0.0,0.0,0.0,0.0,0.0,0.0,0.0,0.0,0.0,0.0,0.0,0.0,0.0,0.0,0.0,0.0,0.0,0.0,0.0,0.0,0.0,0.0,0.0,0.0,0.0,0.0,0.0,0.0,0.0,0.0,0.0,0.0,0.0,0.0,0.0,0.0,0.0,0.0,0.0,-0.2248,-0.186,-0.1608,-0.1229,-0.0448,-0.0396,-0.0284,0.0,0.0,0.0,0.0,0.0,-0.0116,-0.0363,-0.099,-0.1452,-0.1736,-0.1702,-0.1303,-0.0381,-0.0381,-0.0253,0.0,0.0,0.0,0.0,0.0,0.0,-0.0119,-0.1571,-0.2822,-0.3849,-0.4333,-0.4519,0.0,0.0,0.0,0.0,0.0,0.0,0.0,0.0,0.0,0.0,0.0,0.0,0.0,0.0,0.0,0.0,0.0,0.0,0.0,0.0,0.0,0.0,0.0,0.0,0.0,0.0,0.0,0.0,0.0,0.0,0.0,0.0,0.0,0.0,0.0,0.0,0.0,0.0,0.0,0.0,0.0,0.0,0.0,0.0,0.0,0.0,0.0,0.0,0.0,0.0,0.0,0.0,0.0,0.0,0.0,0.0,0.0,0.0,0.0,0.0,0.0,0.0,0.0,0.0,0.0,0.0,0.0,0.0,0.0,0.0,0.0,0.0,0.0,0.0,0.0,0.0,0.0,0.0,0.0,0.0,0.0,0.0,-0.1526,-0.117,-0.0895,-0.056,-0.0056,0.0,0.0,0.0,0.0,0.0,0.0,0.0,0.0,0.0,-0.0571,-0.0846,-0.0862,-0.0877,-0.0611,0.0,0.0,0.0,0.0,0.0,0.0,0.0,0.0,-0.0194,-0.0515,-0.1434,-0.2671,-0.398,-0.408,-0.4339,-0.4592,0.0,0.0,0.0,0.0,0.0,0.0,0.0,0.0,0.0,0.0,0.0,0.0,0.0,0.0,0.0,0.0,0.0,0.0,0.0,0.0,0.0,0.0,0.0,0.0,0.0,0.0,0.0,0.0,0.0,0.0,0.0,0.0,0.0,0.0,0.0,0.0,0.0,0.0,0.0,0.0,0.0,0.0,0.0,0.0,0.0,0.0,0.0,0.0,0.0,0.0,0.0,0.0,0.0,0.0,0.0,0.0,0.0,0.0,0.0,0.0,0.0,0.0,0.0,0.0,0.0,0.0,0.0,0.0,0.0,0.0,0.0,0.0,0.0,0.0,0.0,0.0,0.0,0.0,0.0,0.0,-0.1506,-0.1062,-0.1062,-0.0448,0.0,0.0,0.0,0.0,0.0,0.0,0.0,0.0,0.0,0.0,0.0,0.0,0.0,0.0,0.0,0.0,0.0,0.0,0.0,0.0,0.0,0.0,0.0,0.0,-0.0491,-0.1257,-0.109,-0.1631,-0.2526,-0.3093,-0.3946,-0.4887,0.0,0.0,0.0,0.0,0.0,0.0,0.0,0.0,0.0,0.0,0.0,0.0,0.0,0.0,0.0,0.0,0.0,0.0,0.0,0.0,0.0,0.0,0.0,0.0,0.0,0.0,0.0,0.0,0.0,0.0,0.0,0.0,0.0,0.0,0.0,0.0,0.0,0.0,0.0,0.0,0.0,0.0,0.0,0.0,0.0,0.0,0.0,0.0,0.0,0.0,0.0,0.0,0.0,0.0,0.0,0.0,0.0,0.0,0.0,0.0,0.0,0.0,0.0,0.0,0.0,0.0,0.0,0.0,0.0,-0.0101,-0.0101,-0.0101,-0.0101,0.0,0.0,0.0,0.0,0.0,0.0,0.0,-0.0441,-0.028,-0.028,-0.0112,0.0,0.0,0.0,0.0,0.0,0.0,0.0,0.0,0.0,0.0,0.0,0.0,0.0,0.0,0.0,0.0,0.0,0.0,0.0,0.0,0.0,0.0,0.0,0.0,-0.0144,-0.036,-0.0286,-0.0848,-0.1726,-0.3026,-0.4085,-0.4911,0.0,0.0,0.0,0.0,0.0,0.0,0.0,0.0,0.0,0.0,0.0,0.0,0.0,0.0,0.0,0.0,0.0,0.0,0.0,0.0,0.0,0.0,0.0,0.0,0.0,0.0,0.0,0.0,0.0,0.0,0.0,0.0,0.0,0.0,0.0,0.0,0.0,0.0,0.0,0.0,0.0,0.0,0.0,0.0,0.0,0.0,0.0,0.0,0.0,0.0,0.0,0.0,0.0,0.0,0.0,0.0,0.0,0.0,0.0,0.0,0.0,0.0,0.0,0.0,0.0,0.0,0.0,0.0,-0.0605,-0.141,-0.141,-0.141,-0.141,0.0,0.0,0.0,0.0,0.0,0.0,0.0,0.0,0.0,0.0,0.0,0.0,0.0,0.0,0.0,0.0,0.0,0.0,0.0,0.0,0.0,0.0,0.0,0.0,0.0,0.0,0.0223,0.0676,0.0226,0.0229,0.0624,0.0233,0.0,0.0,0.0,0.0,0.0,0.0,-0.0534,-0.144,-0.2821,-0.3845,-0.4617,-0.496,-0.5145,-0.5192,-0.5128,-0.5159,-0.5192,-0.4955,0.0,0.0,0.0,0.0,0.0,0.0,0.0,0.0,0.0,0.0,0.0,0.0,0.0,0.0,0.0,0.0,0.0,0.0,0.0,0.0,0.0,0.0,0.0,0.0,0.0,0.0,0.0,0.0,0.0,0.0,0.0,0.0,0.0,0.0,0.0,0.0,0.0,0.0,0.0,0.0,0.0,0.0,0.0,0.0,0.0,0.0,0.0,0.0,0.0,0.0,0.0,0.0,0.0,0.0,0.0,0.0,0.0,0.0,0.0,0.0,0.0,0.0,0.0,0.0,-0.2815,-0.2815,0.0,0.0,0.0,0.0,0.0,0.0,0.0,0.0,0.0,0.0,0.0,0.0,0.0,0.0,0.0,0.0,0.0,0.0,0.0,0.0,0.0,0.0,0.0,0.0,0.0,0.0,0.0461,0.1411,0.0471,0.0477,0.1387,0.0416,0.0,0.0,0.0,0.0,0.0,0.0,-0.041,-0.1225,-0.2474,-0.3446,-0.428,-0.5124,-0.5511,-0.5593,-0.5443,-0.5463,-0.5386,-0.5213,0.0,0.0,0.0,0.0,0.0,0.0,0.0,0.0,0.0,0.0,0.0,0.0,0.0,0.0,0.0,0.0,0.0,0.0,0.0,0.0,0.0,0.0,0.0,0.0,0.0,0.0,0.0,0.0,0.0,0.0,0.0,0.0,0.0,0.0,0.0,0.0,0.0,0.0,0.0,0.0,0.0,0.0,0.0,0.0,0.0,0.0,0.0,0.0,0.0,0.0,0.0,0.0,0.0,0.0,0.0,0.0,0.0,0.0,0.0,0.0,-0.0303,-0.1209,-0.2413,-0.3917,-0.4318,-0.4218,0.0,0.0,0.0,0.0,0.0,0.0,0.0,0.0,0.0,0.0,0.0,0.0,0.0,0.0,0.0,0.0,0.0,0.0,0.0,0.0,0.0,0.0,0.0,0.0,0.0,0.0,0.0078,0.0314,0.0079,0.008,0.0334,0.0082,0.0,0.0,0.0,0.0,0.0,0.0,-0.0086,-0.0343,-0.1449,-0.2831,-0.4338,-0.5478,-0.584,-0.5742,-0.5596,-0.562,-0.5674,-0.5406,-0.5399,-0.5474,-0.5325,-0.5189,0.0,0.0,0.0,0.0,0.0,0.0,0.0,0.0,0.0,0.0,0.0,0.0,0.0,0.0,0.0,0.0,0.0,0.0,0.0,0.0,0.0,0.0,0.0,0.0,0.0,0.0,0.0,0.0,0.0,0.0,0.0,0.0,0.0,0.0,0.0,0.0,0.0,0.0,0.0,0.0,0.0,0.0,0.0,0.0,0.0,0.0,0.0,0.0,0.0,0.0,0.0,0.0,0.0,0.0,0.0,-0.0202,-0.2413,-0.3416,-0.3917,-0.6326,-0.6528,-0.5627,0.0,0.0,0.0,0.0,0.0,0.0,0.0,0.0,0.0,0.0,0.0,0.0,0.0,0.0,0.0,0.0,0.0,0.0,0.0,0.0,0.0,0.0,0.0,0.0234,0.0798,0.0789,0.1332,0.2347,0.1844,0.1642,0.1511,0.1104,0.0605,0.0,0.0,0.0,0.0,0.0,0.0,-0.0091,-0.1273,-0.2538,-0.394,-0.4991,-0.5662,-0.6118,-0.5976,-0.5973,-0.5996,-0.5772,-0.5745,-0.5783,-0.563,-0.5528,-0.545,0.0,0.0,0.0,0.0,0.0,0.0,0.0,0.0,0.0,0.0,0.0,0.0,0.0,0.0,0.0,0.0,0.0,0.0,0.0,0.0,0.0,0.0,0.0,0.0,0.0,0.0,0.0,0.0,0.0,0.0,0.0,0.0,0.0,0.0,0.0,0.0,0.0,0.0,0.0,0.0,0.0,0.0,0.0,0.0,0.0,0.0,0.0,0.0,0.0,0.0,0.0,0.0,0.0,0.0,-0.0202,-0.2213,-0.3416,-0.4216,-0.6226,-0.7033,-0.7033,0.0,0.0,0.0,0.0,0.0,0.0,0.0,0.0,0.0,0.0,0.0,0.0,0.0,0.0,0.0,0.0,0.0,0.0,0.0,0.0,0.0,0.0,0.0,0.0475,0.1613,0.1583,0.251,0.4403,0.3678,0.326,0.3206,0.2197,0.1257,0.0362,0.0092,0.0,0.0,0.0,0.0,-0.0096,-0.1054,-0.2149,-0.313,-0.38,-0.5075,-0.6454,-0.6312,-0.624,-0.6196,-0.6071,-0.603,-0.6013,-0.5918,-0.5871,-0.5817,-0.5674,-0.5691,0.0,0.0,0.0,0.0,0.0,0.0,0.0,0.0,0.0,0.0,0.0,0.0,0.0,0.0,0.0,0.0,0.0,0.0,0.0105,0.0427,0.0434,0.0548,0.0879,0.033,0.0,0.0,0.0,0.0,0.0,0.0,0.0,0.0,0.0,0.0,0.0,0.0,0.0,0.0,0.0,0.0,0.0,0.0,0.0,0.0,0.0,0.0,0.0,0.0,0.0,0.0,0.0,0.0,-0.0101,-0.1209,-0.2614,-0.4116,-0.5525,-0.6833,-0.8038,0.0,0.0,0.0,0.0,0.0,0.0,0.0,0.0,0.0,0.0,0.0,0.0,0.0,0.0,0.0,0.0,0.0,0.0,0.0,0.0,0.0,0.0,0.0,0.0471,0.1574,0.1569,0.2214,0.3465,0.3404,0.3404,0.354,0.2389,0.1718,0.1566,0.0471,0.0,0.0,0.0,0.0,0.0,-0.0196,-0.0955,-0.2018,-0.1967,-0.3835,-0.6454,-0.6312,-0.6173,-0.6054,-0.6034,-0.603,-0.6051,-0.6173,-0.6115,-0.5973,-0.5823,-0.5698,-0.5576,-0.5473,-0.4795,-0.3942,-0.2981,-0.2131,-0.1205,0.0,0.0,0.0,0.0,0.0,0.0,0.0,0.0,0.0,0.0,0.0,0.042,0.1734,0.1963,0.2415,0.3784,0.1675,0.0,0.0,0.0,0.0,0.0,0.0,0.0,0.0,0.0,0.0,0.0,0.0,0.0,0.0,0.0,0.0,0.0,0.0,0.0,0.0,0.0,0.0,0.0,0.0,0.0,0.0,0.0,0.0,0.0,-0.0202,-0.1812,-0.4116,-0.5525,-0.6833,-0.8038,0.0,0.0,0.0,0.0,0.0,0.0,0.0,0.0,0.0,0.0,0.0,0.0,0.0,0.0,0.0,0.0,0.0,0.0,0.0,0.0,0.0,0.0,0.0,0.0784,0.2425,0.2501,0.3321,0.5175,0.5246,0.4699,0.3381,0.3047,0.2104,0.074,0.0191,0.0,0.0,0.0,0.0,0.0,0.0,-0.0682,-0.1785,-0.1768,-0.2919,-0.468,-0.5069,-0.5539,0.0,-0.603,-0.603,-0.6057,-0.6213,-0.6091,-0.5867,-0.5722,-0.5694,-0.5739,-0.5854,-0.5108,-0.4098,0.0,-0.2261,-0.1296,-0.0277,0.0,0.0,0.0,0.0,0.0,0.0,0.0,0.0,0.0,0.0,0.0538,0.1961,0.2201,0.2763,0.4186,0.2556,0.1236,0.1248,0.0455,0.0,0.0,0.0,0.0,0.0,0.0,0.0,0.0,0.0,0.0,0.0,0.0,0.0,0.0,0.0,0.0,0.0,0.0,0.0,0.0,0.0,0.0,0.0,0.0,0.0,-0.0101,-0.0907,-0.2314,-0.4116,-0.4618,-0.6226,-0.8038,0.0,0.0,0.0,0.0,0.0,0.0,0.0,0.0,0.0,0.0,0.0,0.0,0.0,0.0,0.0,0.0,0.0,0.0,0.0,0.0,0.0,0.0,0.0,0.094,0.3046,0.3124,0.42,0.6536,0.6315,0.5436,0.3845,0.3353,0.2128,0.0467,0.0193,0.0,0.0,0.0,0.0,0.0,0.0,-0.0493,-0.1332,-0.1325,-0.1973,-0.2976,-0.4152,-0.5027,-0.5644,-0.5831,-0.5966,-0.5979,-0.6051,-0.5922,-0.5722,-0.562,-0.5661,-0.58,-0.6064,0.0,0.0,-0.3255,-0.2195,-0.11,-0.0187,0.0,0.0,0.0,0.0,0.0,0.0,0.0,0.0,0.0,0.0,0.0547,0.1965,0.2534,0.3307,0.4658,0.3608,0.2778,0.2726,0.1026,0.0,0.0,0.0,0.0,0.0,0.0,0.0,0.0,0.0,0.0,0.0,0.0,0.0,0.0,0.0,0.0,0.0,0.0,0.0,0.0,0.0,0.0,0.0,0.0,0.0,-0.0101,-0.1109,-0.2314,-0.3515,-0.3815,-0.5722,-0.8038,0.0,0.0,0.0,0.0,0.0,0.0,0.0,0.0,0.0,0.0,0.0,0.0,0.0,0.0,0.0,0.0,0.0,0.0,0.0,0.0,0.0,0.0,0.0,0.094,0.3046,0.3124,0.4314,0.6695,0.5527,0.5054,0.5267,0.2921,0.1773,0.1714,0.0486,0.0,0.0,0.0,0.0,0.0,0.0,0.0,-0.0095,-0.0093,-0.0703,-0.1949,-0.3966,-0.4628,-0.4649,-0.5491,-0.581,-0.5786,-0.565,-0.5603,-0.5596,-0.5593,-0.5593,-0.563,-0.5776,-0.4295,-0.2785,-0.3063,-0.1544,0.0,0.0,0.0,0.0,0.0,0.0,0.0,0.0,0.0,0.0,0.0,0.0,0.0547,0.1965,0.3271,0.4762,0.6273,0.5096,0.4093,0.0,0.168,0.0,0.0,0.0,0.0,0.0,0.0,0.0,0.0,0.0,0.0,0.0,0.0,0.0,0.0,0.0,0.0,0.0,0.0,0.0,0.0,0.0,0.0,0.0,0.0,0.0,0.0,0.0,-0.0907,-0.2213,-0.3516,-0.5722,-0.8038,0.0,0.0,0.0,0.0,0.0,0.0,0.0,0.0,0.0,0.0,0.0,0.0,0.0,0.0,0.0,0.0,-0.0289,0.0,0.0,0.0,0.0,0.0,0.0,0.0995,0.3054,0.31,0.3887,0.5488,0.5072,0.4253,0.2977,0.2179,0.1401,0.0572,0.0195,0.0,0.0,0.0,0.0,0.0,0.0,0.0,0.0,0.0,-0.0254,-0.0806,0.0,-0.3781,-0.4435,-0.5393,-0.5661,-0.5671,-0.5715,-0.5596,-0.5457,-0.5559,-0.5657,-0.561,-0.5176,-0.4007,-0.2808,-0.2271,-0.1042,0.0,0.0,0.0,0.0,0.0,0.0,0.0,0.0,0.0,0.0,0.0,0.0,0.054,0.1962,0.3346,0.4358,0.4906,0.4528,0.0,0.0,0.0,0.0,0.0,0.0,0.0,0.0,0.0,0.0,0.0,0.0,0.0,0.0,0.0,0.0,0.0,0.0,0.0,0.0,0.0,0.0,0.0,0.0,0.0,0.0,0.0,0.0,-0.0101,-0.1008,-0.1611,-0.2113,-0.3515,-0.4618,-0.562,0.0,0.0,0.0,0.0,0.0,0.0,0.0,0.0,0.0,0.0,0.0,0.0,0.0,0.0,0.0,0.0,0.0,-0.0293,0.0,0.0,0.0,0.0,0.0,0.0799,0.2536,0.2575,0.3153,0.4311,0.3944,0.3083,0.1759,0.1391,0.0721,0.0,0.0,0.0,0.0,0.0,0.0,0.0,0.0,0.0,0.0,0.0,0.0,0.0,-0.1675,-0.2603,-0.3413,-0.4971,-0.5508,-0.5515,-0.5552,-0.5508,-0.546,-0.5562,-0.5803,-0.5841,-0.4981,-0.3982,-0.2962,-0.1898,-0.0782,0.0,0.0,0.0,0.0101,0.062,0.0298,0.0193,0.0596,0.0295,0.0,0.0,0.0,0.0311,0.125,0.3003,0.392,0.3511,0.386,0.3566,0.0,0.0,0.0,0.0,0.0,0.0,0.0,0.0,0.0,0.0,0.0,0.0,0.0,0.0,0.0,0.0,0.0,0.0,0.0,0.0,0.0,0.0,0.0,0.0,0.0,0.0,0.0,-0.0101,-0.0907,-0.131,-0.1411,-0.2815,-0.3316,-0.3717,0.0,0.0,0.0,0.0,0.0,0.0,0.0,0.0,0.0,0.0,0.0,0.0,0.0,0.0,0.0,0.0,0.0,0.0,-0.0117,0.0,0.0,0.0,0.0,0.047,0.1606,0.1608,0.2105,0.3205,0.2149,0.1638,0.1719,0.0561,0.0,0.0,0.0,0.0,0.0,0.0,0.0,0.0,0.0,0.0,0.0,0.0,0.0,-0.0151,-0.0952,-0.1284,-0.1739,-0.4395,-0.5302,-0.5292,-0.509,-0.5252,-0.5494,-0.5431,-0.5901,-0.6078,-0.5062,-0.4028,-0.2985,-0.1943,-0.0896,0.0,0.0,0.0,0.0406,0.1646,0.089,0.0382,0.0,0.0,0.0,0.0,0.0,0.0,0.0,0.2326,0.3473,0.0,0.0,0.0,0.0,0.0,0.0,0.0109,0.0,0.0,0.0,0.0,0.0,0.0,0.0,0.0,0.0,0.0,0.0,0.0,0.0,0.0,0.0,0.0,0.0,0.0,0.0,0.0,0.0,0.0,0.0,0.0,0.0,0.0,-0.0202,-0.1411,-0.1913,-0.2314,0.0,0.0,0.0,0.0,0.0,0.0,0.0,0.0,0.0,0.0,0.0,0.0,0.0,0.0,0.0,0.0,0.0,0.0,-0.0849,-0.0293,0.0,0.0,0.0,0.0522,0.1558,0.1592,0.1748,0.2032,0.1742,0.1222,0.0446,0.0152,0.0,0.0,0.0,0.0,0.0,0.0,0.0,0.0,0.0,0.0,0.0,0.0,0.0,-0.015,-0.0983,-0.1312,-0.1599,-0.3648,-0.4335,-0.4349,-0.4406,-0.4054,-0.3602,-0.3588,-0.3841,-0.3873,-0.2755,-0.2271,-0.1942,-0.0797,-0.0201,0.0,0.0,0.0,0.0101,0.0399,0.0192,0.0093,0.0,0.0,0.0,0.0,0.0,0.0,0.0,0.2311,0.0,0.2125,0.0,0.5141,0.367,0.3239,0.0,0.0,0.0535,0.0,0.0,0.0,0.0,0.0,0.0,0.0,0.0,0.0,0.0,0.0,0.0,0.0,0.0,0.0,0.0,0.0,0.0,0.0,0.0,0.0,0.0,0.0,0.0,0.0,0.0,-0.0404,-0.0504,-0.0706,0.0,0.0,0.0,0.0,0.0,0.0,0.0,0.0,0.0,0.0,0.0,0.0,0.0,0.0,0.0,0.0,0.0,0.0,0.0,-0.0911,-0.0461,-0.0461,-0.0477,-0.0061,0.0849,0.0554,0.0559,0.0871,0.0898,0.0594,0.0,0.0,0.0,0.0,0.0,0.0,0.0,0.0,0.0,0.0,0.0,0.0,0.0,0.0,0.0,-0.0073,-0.0564,-0.0983,-0.1492,-0.2547,0.0,-0.3417,-0.3544,-0.3273,-0.2893,-0.2989,-0.32,-0.3145,-0.2006,-0.176,-0.1592,-0.0302,0.0,0.0,0.0,0.0,0.0195,0.0759,0.0368,0.018,0.0798,0.036,0.0,0.0,0.0,0.0,0.0,0.1771,0.2583,0.0,0.361,0.0,0.2397,0.2826,0.2622,0.0,0.0953,0.0642,0.0,0.0,0.0,0.0,0.0,0.0,0.0,0.0,0.0,0.0,0.0,0.0,0.0,0.0,0.0,0.0,0.0,0.0,0.0,0.0,0.0,0.0,0.0,0.0,0.0,0.0,0.0,-0.0101,0.0,0.0,0.0,0.0,0.0,0.0,0.0,0.0,0.0,0.0,0.0,0.0,0.0,0.0,0.0,0.0,0.0,0.0,0.0,0.0,-0.1229,-0.1229,-0.1229,-0.095,-0.028,-0.0895,-0.0951,-0.028,-0.0173,-0.0119,-0.0123,-0.0063,0.0,0.0,0.0,0.0,0.0,0.0,0.0,0.0,0.0,0.0,0.0,0.0,0.0,0.0,0.0,-0.0508,-0.1168,-0.1353,-0.1901,-0.2536,-0.258,-0.2575,-0.2559,-0.2671,-0.2866,-0.2863,-0.1857,-0.1692,-0.141,-0.0303,0.0,0.0,0.0,0.0,0.0375,0.153,0.0792,0.0348,0.1556,0.0793,0.0,0.0,0.0,0.0,0.0,0.1139,0.1574,0.042,0.2502,0.3139,0.0758,0.1582,0.1773,0.0319,0.1377,0.1375,0.0106,0.0,0.0,0.0,0.0,0.0,0.0,0.0,0.0,0.0,0.0,0.0,0.0,0.0,0.0,0.0,0.0,0.0,0.0,0.0,0.0,0.0,0.0,0.0,0.0,0.0,0.0,0.0,0.0,0.0,0.0,0.0,0.0,0.0,0.0,0.0,0.0,0.0,-0.3727,-0.3927,0.0,0.0,0.0,0.0,0.0,0.0,0.0,0.0,0.0,-0.2009,-0.2009,-0.1952,-0.184,-0.1952,-0.1952,-0.184,-0.118,-0.0918,-0.0889,-0.0298,0.0,0.0,0.0,0.0,0.0,0.0,0.0,0.0,0.0,0.0,0.0,0.0,0.0,0.0,0.0,-0.0072,-0.022,-0.023,-0.0868,-0.1536,-0.1775,-0.122,-0.0537,-0.0559,-0.0568,-0.0576,-0.0398,-0.0302,-0.0303,-0.0101,0.0,0.0,0.0,0.0,0.0,0.0,0.0175,0.0087,0.034,0.0172,0.0,0.0,0.0,0.0,0.0,0.1195,0.1904,0.0,0.318,0.3933,0.3335,0.0,0.0,0.0,0.0,0.1433,0.0104,0.0,0.0,0.0,0.0,0.0,0.0,0.0,0.0,0.0,0.0,0.0,0.0,0.0,0.0,0.0,0.0,0.0,0.0,0.0,0.0,0.0,0.0,0.0,0.0,0.0,0.0,0.0,0.0,0.0,0.0,0.0,0.0,0.0,0.0,-0.3639,-0.371,-0.3799,-0.3799,-0.3877,-0.4053,-0.4267,-0.4389,0.0,0.0,0.0,0.0,0.0,0.0,0.0,0.0,0.0,-0.223,-0.2565,-0.2565,-0.2174,0.0,-0.1689,-0.1658,-0.0916,-0.0578,-0.0528,-0.0176,0.0,0.0,0.0,0.0,0.0,0.0,0.0,0.0,0.0,0.0,0.0,0.0,0.0,0.0,0.0,-0.031,-0.0648,-0.0701,-0.0452,0.0,0.0,0.0,0.0,0.0,0.0,0.0,0.0,0.0,0.0,0.0,0.0,0.0,0.0,0.0,0.0,0.0,0.0,0.0,0.0,0.0,0.0,0.0,0.0588,0.0,0.0918,0.2244,0.2772,0.0,0.0,0.0,0.0,0.0,0.0712,0.0,0.0,0.0,0.0,0.0,0.0,0.0,0.0,0.0,0.0,0.0,0.0,0.0,0.0,0.0,0.0,0.0,0.0,0.0,0.0,0.0,0.0,0.0,0.0,0.0,0.0,0.0,0.0,0.0,0.0,0.0,0.0,0.0,0.0,0.0,-0.3605,-0.3697,-0.3897,-0.3877,-0.3887,-0.4009,-0.4256,-0.4429,0.0,0.0,0.0,0.0,0.0,0.0,0.0,0.0,0.0,0.0,0.0,0.0,0.0,-0.2508,0.0,0.0,0.0,0.0,0.0,-0.028,0.0,0.0,0.0,0.0,0.0,0.0,0.0,0.0,0.0,0.0,0.0,0.0,0.0,0.0,0.0,0.0,0.0,0.0,0.0,0.0,0.0,0.0,0.0,0.0,0.0,0.0,0.0,0.0,0.0,0.0,0.0,0.0,0.0,0.0,0.0,0.0,0.0,0.0,0.0,0.0,0.0,0.0,0.0,0.0,0.0,0.0915,0.0,0.0,0.0,0.0,0.0,0.0,0.0,0.0,0.0,0.0,0.0,0.0,0.0,0.0,0.0,0.0,0.0,0.0,0.0,0.0,0.0,0.0,0.0,0.0,0.0,0.0,0.0,0.0,0.0,0.0,0.0,0.0,0.0,0.0,0.0,0.0,0.0,0.0,0.0,0.0,0.0,0.0,-0.369,-0.3734,-0.3636,-0.3843,-0.4005,-0.4019,-0.4117,-0.4321,0.0,0.0,0.0,0.0,0.0,0.0,0.0,0.0,0.0,0.0,0.0,0.0,0.0,0.0,0.0,0.0,0.0,0.0,0.0,0.0,0.0,0.0,0.0,0.0,0.0,0.0,0.0,0.0,0.0,0.0,0.0,0.0,0.0,0.0,0.0,0.0,0.0,0.0,0.0,0.0,0.0,0.0,0.0,0.0,0.0,0.0,0.0,0.0,0.0,0.0,0.0,0.0,0.0,0.0,0.0,0.0,0.0,0.0,0.0,0.0,0.0,0.0,0.0,0.0,0.0,0.0,0.0,0.0,0.0,0.0,0.0,0.0,0.0,0.0,0.0,0.0,0.0,0.0,0.0,0.0,0.0,0.0,0.0,0.0,0.0,0.0,0.0,0.0,0.0,0.0,0.0,0.0,0.0,0.0,0.0,0.0,0.0,0.0,0.0,0.0,0.0,0.0,0.0,0.0,0.0,0.0,0.0,-0.3581,-0.3629,-0.3676,-0.3704,-0.3734,-0.3856,-0.4076,-0.4076,-0.4206,-0.4494,0.0,0.0,0.0,0.0,0.0,0.0,0.0,0.0,0.0,0.0,0.0,-0.4519,0.0,0.0,0.0,0.0,0.0,0.0,0.0,0.0,0.0,0.0,0.0,0.0,0.0,0.0,0.0,0.0,0.0,0.0,0.0,0.0,0.0,0.0,0.0,0.0,0.0,0.0,0.0,0.0,0.0,0.0,0.0,0.0,0.0,0.0,0.0,0.0,0.0,0.0,0.0,0.0,0.0,0.0,0.0,0.0,0.0,0.0,0.0,0.0,0.0,0.0,0.0,0.0,0.0,0.0,0.0,0.0,0.0,0.0,0.0,0.0,0.0,0.0,0.0,0.0,0.0,0.0,0.0,0.0,0.0,0.0,0.0,0.0,0.0,0.0,0.0,0.0,0.0,0.0,0.0,0.0,0.0,0.0,0.0,0.0,0.0,0.0,0.0,0.0,0.0,0.0,0.0,0.0,0.0,-0.3084,-0.3084,-0.3217,-0.3385,-0.3477,-0.3585,-0.3782,-0.409,-0.4073,-0.4237,-0.4761,-0.5218,0.0,0.0,0.0,0.0,0.0,0.0,0.0,0.0,0.0,-0.4419,-0.4519,-0.4519,0.0,0.0,0.0,0.0,0.0,0.0,0.0,0.0,0.0,0.0,0.0,0.0,0.0,0.0,0.0,0.0,0.0,0.0,0.0,0.0,0.0,0.0,0.0,0.0,0.0,0.0,0.0,0.0,0.0,0.0,0.0,0.0,0.0,0.0,0.0,0.0,0.0,0.0,0.0,0.0,0.0,0.0,0.0,-0.0079,-0.0392,-0.0471,-0.0559,-0.0835,-0.0673,-0.0432,0.0,0.0,0.0,0.0,0.0,0.0,0.0,0.0,0.0,0.0,0.0,0.0,0.0,0.0,0.0,0.0,0.0,0.0,0.0,0.0,0.0,0.0,0.0,0.0,0.0,0.0,0.0,0.0,0.0,0.0,0.0,0.0,0.0,0.0,0.0,0.0,0.0,0.0,0.0,0.0,0.0,0.0,0.0,-0.183,-0.2317,-0.2719,-0.2719,-0.3327,-0.3849,-0.4005,-0.4107,-0.4563,-0.5416,-0.5487,0.0,0.0,0.0,0.0,0.0,0.0,0.0,0.0,0.0,-0.4321,-0.4519,-0.4519,-0.4125,-0.34,-0.2565,0.0,0.0,0.0,0.0,0.0,0.0,0.0,0.0,0.0,0.0,0.0,0.0,0.0,0.0,0.0,0.0,0.0,0.0,0.0,0.0,0.0,0.0,0.0,0.0,0.0,0.0,0.0,0.0,0.0,0.0,0.0,0.0,0.0,0.0,0.0,0.0,0.0,0.0,0.0,0.0,-0.0314,-0.1411,-0.1568,0.0,-0.2913,-0.2178,0.0,0.0,0.0,0.0,0.0,0.0,0.0,0.0,0.0,0.0,0.0,0.0,0.0,0.0,0.0,0.0,0.0,0.0,0.0,0.0,0.0,0.0,0.0,0.0,0.0,0.0,0.0,0.0,0.0,0.0,0.0,0.0,0.0,0.0,0.0,0.0,0.0,0.0,0.0,0.0,0.0,0.0,0.0,0.0,0.0,-0.1962,-0.2072,-0.2087,-0.2729,-0.3257,-0.337,-0.385,-0.4357,-0.4772,-0.5714,0.0,0.0,0.0,0.0,0.0,0.0,0.0,0.0,0.0,-0.4416,-0.4519,-0.4519,-0.4125,-0.34,-0.2565,-0.1786,-0.1062,0.0,0.0,0.0,0.0,0.0,0.0,0.0,0.0,0.0,0.0,0.0,0.0,0.0,0.0,0.0,0.0,0.0,0.0,0.0,0.0,0.0,0.0,0.0,0.0,0.0,0.0,0.0,0.0,0.0,0.0,0.0,0.0,0.0,0.0,0.0,0.0,0.0,-0.0621,-0.1176,-0.1568,-0.219,-0.2749,0.0,0.0,0.0,0.0,0.0,0.0,0.0,0.0,0.0,0.0,0.0,0.0,0.0,0.0,0.0,0.0,0.0,0.0,0.0,0.0,0.0,0.0,0.0,0.0,0.0,0.0,0.0,0.0,0.0,0.0,0.0,0.0,0.0,0.0,0.0,0.0,0.0,0.0,0.0,0.0,0.0,0.0,0.0,0.0,0.0,0.0,0.0,-0.1295,-0.1443,-0.1481,-0.2334,-0.3011,-0.3105,-0.3834,-0.4469,-0.4831,-0.566,0.0,0.0,0.0,0.0,0.0,0.0,0.0,0.0,-0.4341,-0.4491,-0.4382,-0.4382,-0.4162,-0.3667,-0.2627,-0.1929,-0.1452,-0.0448,0.0,0.0,0.0,0.0,0.0,0.0,0.0,0.0,0.0,0.0,0.0,0.0,0.0,0.0,0.0,0.0,0.0,0.0,0.0,0.0,0.0,0.0,0.0,0.0,0.0,0.0,0.0,0.0,0.0,0.0,0.0,0.0,0.0,0.0,0.0,0.0,-0.0849,-0.1729,-0.2218,-0.3089,-0.3983,0.0,0.0,0.0,0.0,0.0,0.0,0.0,0.0,0.0,0.0,0.0,0.0,0.0,0.0,0.0,0.0,0.0,0.0,0.0,0.0,0.0,0.0,0.0,0.0,0.0,0.0,0.0,0.0,0.0,0.0,0.0,0.0,0.0,0.0,0.0,0.0,0.0,0.0,0.0,0.0,0.0,0.0,0.0,0.0,0.0,0.0,0.0,-0.0493,-0.0852,-0.0858,-0.2112,-0.3013,-0.3036,-0.3912,-0.4721,-0.5378,0.0,0.0,0.0,0.0,0.0,0.0,0.0,0.0,0.0,-0.4389,-0.4395,-0.421,-0.42,-0.4194,-0.4089,-0.2647,-0.2048,-0.2057,-0.0613,0.0,0.0,0.0,0.0,0.0,0.0,0.0,0.0,0.0,0.0,0.0,0.0,0.0,0.0,0.0,0.0,0.0,0.0,0.0,0.0,0.0,0.0,0.0,0.0,0.0,0.0,0.0,0.0,0.0,0.0,0.0,0.0,0.0,-0.0071,-0.0073,-0.0075,-0.1077,-0.2203,-0.3299,-0.4359,-0.5415,0.0,0.0,0.0,0.0,0.0,0.0,0.0,0.0,0.0,0.0,0.0,0.0,0.0,0.0,0.0,-0.0185,-0.0096,-0.0099,0.0,0.0,0.0,0.0,0.0,0.0,0.0,0.0,0.0,0.0,0.0,0.0,0.0,0.0,0.0,0.0,0.0,0.0,0.0,0.0,0.0,0.0,0.0,0.0,0.0,0.0,0.0,0.0,0.0,0.0,0.0,0.0,-0.1408,-0.2287,-0.2377,-0.3511,-0.4395,0.0,0.0,0.0,0.0,0.0,0.0,0.0,0.0,0.0,0.0,-0.4389,-0.4501,-0.4412,-0.43,-0.398,-0.3492,-0.2474,-0.1766,-0.1343,-0.0431,0.0,0.0,0.0,0.0,0.0,0.0,0.0,0.0,0.0,0.0,0.0,0.0,0.0,0.0,0.0,0.0,0.0,0.0,0.0,0.0,0.0,0.0,0.0,0.0,0.0,0.0,0.0,0.0,0.0,0.0,0.0,0.0,0.0,-0.0547,-0.1067,-0.1169,-0.2616,-0.3982,-0.4316,-0.528,-0.6136,0.0,0.0,0.0,0.0,0.0,0.0,0.0,0.0,0.0,0.0,0.0,0.0,0.0,0.0,-0.0444,-0.151,-0.1527,-0.1065,0.0,0.0,0.0,0.0,0.0,0.0,0.0,0.0,0.0,0.0,0.0,0.0,0.0,0.0,0.0,0.0,0.0,0.0,0.0,0.0,0.0,0.0,0.0,0.0,0.0,0.0,0.0,0.0,0.0,0.0,0.0,0.0,0.0,-0.2057,-0.2167,-0.34,0.0,0.0,0.0,0.0,0.0,0.0,0.0,0.0,0.0,-0.3875,-0.4194,-0.4059,-0.4097,-0.4365,-0.3909,-0.3525,-0.3203,-0.2029,-0.1179,-0.0583,0.0162,0.033,0.0,0.0,0.0,0.0,0.0,0.0,0.0,0.0,0.0,0.0,0.0,0.0,0.0,0.0,0.0,0.0,0.0,0.0,0.0,0.0,0.0,0.0,0.0,0.0,0.0,0.0,0.0,0.0,0.0,-0.0313,-0.058,-0.058,0.0,-0.1971,-0.2169,-0.3481,-0.472,-0.5355,-0.6472,0.0,0.0,0.0,0.0,0.0,0.0,0.0,0.0,0.0,0.0,0.0,0.0,-0.0747,-0.0759,-0.0765,-0.1394,-0.2643,-0.2718,-0.2506,-0.1883,-0.1788,-0.1781,-0.1763,-0.1555,-0.1252,-0.0857,-0.0772,-0.0482,0.0,0.0,0.0,0.0,0.0,0.0,0.0,0.0,0.0,0.0,0.0,-0.0357,-0.0793,0.0,0.0,0.0,0.0,0.0,0.0,0.0,0.0,0.0,0.0,0.0,0.0,0.0,0.0,0.0,0.0,0.0,0.0,0.0,0.0,0.0,0.0,0.0,-0.3255,-0.3875,-0.3398,-0.34,-0.3875,-0.3274,-0.2902,-0.2766,-0.1492,-0.0556,0.0052,0.0764,0.0668,0.0,0.0,0.0,0.0,0.0,0.0,0.0,0.0,0.0,0.0,0.0,0.0,0.0,0.0,0.0,0.0,0.0,0.0,0.0,0.0,0.0,0.0,0.0,0.0,0.0,0.0,0.0,0.0,0.0,-0.0681,0.0,0.0,0.0,0.0,-0.3088,-0.4035,0.0,0.0,0.0,0.0,0.0,0.0,0.0,0.0,0.0,0.0,0.0,0.0,0.0,0.0,0.0,-0.1813,-0.1868,-0.1935,-0.2498,-0.3653,-0.3939,-0.4216,-0.4577,-0.4032,-0.3801,-0.3778,-0.3463,-0.2868,-0.1962,-0.1946,-0.1301,-0.0282,0.0,0.0,0.0,0.0,0.0,0.0,0.0,-0.009,-0.0269,-0.009,-0.0895,-0.2043,0.0,0.0,0.0,0.0,0.0,0.0,0.0,0.0,0.0,0.0,0.0,0.0,0.0,0.0,0.0,0.0,0.0,0.0,0.0,0.0,0.0,-0.3432,-0.2711,-0.2402,-0.2491,-0.2411,-0.2413,-0.2489,-0.2263,-0.1923,-0.1409,-0.1036,-0.057,0.0051,0.0633,0.06,0.0,0.0,0.0,0.0,0.0,0.0,0.0,0.0,0.0,0.0,0.0,0.0,0.0,0.0,0.0,0.0,0.0,0.0,0.0,0.0,0.0,0.0,0.0,0.0,0.0,0.0,0.0,0.0,0.0,-0.0692,-0.1288,0.0,0.0,0.0,0.0,-0.5405,-0.6718,0.0,0.0,0.0,0.0,0.0,0.0,0.0,0.0,0.0,0.0,0.0,0.0,0.0,0.0,-0.2863,-0.2831,-0.2852,-0.361,-0.5058,-0.5114,-0.5794,-0.6991,-0.4852,-0.3749,-0.3625,-0.3508,-0.323,-0.2912,-0.3063,-0.2446,-0.1323,0.0,-0.0931,0.0,0.0,0.0,0.0,0.0,-0.0628,-0.1433,-0.0359,-0.1329,-0.3217,0.0,0.0,0.0,0.0,0.0,0.0,0.0,0.0,0.0,0.0,0.0,0.0,0.0,0.0,0.0,0.0,0.0,0.0,0.0,0.0,0.0,-0.2116,-0.1412,-0.1402,-0.2172,-0.1799,-0.1783,-0.2216,-0.174,-0.1368,-0.1076,0.0192,0.0681,0.0505,0.1281,0.0992,0.0,0.0,0.0,0.0,0.0,0.0,0.0,0.0,0.0,0.0,0.0,0.0,0.0,0.0,0.0,0.0,0.0,0.0,0.0,0.0,0.0,0.0,0.0,0.0,-0.0115,-0.0515,-0.0595,-0.0611,-0.0591,-0.1579,-0.2573,0.0,0.0,0.0,0.0,0.0,0.0,0.0,0.0,0.0,0.0,0.0,0.0,0.0,0.0,0.0,0.0,0.0,0.0,0.0,0.0,0.0,-0.3889,-0.3942,-0.4593,-0.5826,-0.6126,-0.6562,-0.7234,-0.6023,-0.5476,-0.5517,-0.5308,-0.4827,-0.411,-0.4148,-0.3577,-0.2605,0.0,-0.2094,-0.0987,-0.0996,-0.0633,-0.009,-0.0718,-0.1344,-0.1877,-0.2561,-0.3381,-0.4337,0.0,0.0,0.0,0.0,0.0,0.0,0.0,0.0,0.0,0.0,0.0,0.0,0.0,0.0,0.0,0.0,0.0,0.0,0.0,0.0,-0.1433,-0.086,-0.016,-0.0367,-0.1635,-0.1155,-0.104,-0.1469,-0.1048,-0.0846,-0.08,0.1024,0.1449,0.0707,0.1558,0.1165,0.0,0.0,0.0,0.0,0.0,0.0,0.0,0.0,0.0,0.0,0.0,0.0,0.0,0.0,0.0,0.0,0.0,0.0,0.0,0.0,0.0,0.0,0.0,0.0,-0.0113,-0.0729,0.0,-0.1131,-0.1313,-0.2523,0.0,0.0,0.0,0.0,0.0,-0.7021,0.0,0.0,0.0,0.0,0.0,0.0,0.0,0.0,0.0,0.0,0.0,0.0,0.0,0.0,0.0,0.0,-0.4819,-0.4955,-0.5407,-0.6257,-0.6593,-0.6807,-0.6875,-0.6875,-0.6929,-0.7034,-0.6773,-0.6131,-0.5197,-0.5224,-0.4711,-0.3785,-0.3864,-0.329,-0.2236,-0.1879,-0.1433,-0.0897,-0.1522,-0.1963,-0.2479,-0.4672,-0.5265,-0.5105,0.0,0.0,0.0,0.0,0.0,0.0,0.0,0.0,0.0,0.0,0.0,0.0,0.0,0.0,0.0,0.0,0.0,0.0,0.0,0.0,-0.0111,-0.0055,0.0647,0.0659,-0.0137,-0.0094,0.0188,0.0677,0.018,-0.009,-0.0045,0.0657,0.0682,0.0101,0.0735,0.0598,0.0,0.0,0.0,0.0,0.0,0.0,0.0,0.0,0.0,0.0,0.0,0.0,0.0,0.0,0.0,0.0,0.0,0.0,0.0,0.0,0.0,0.0,0.0,0.0,0.0,-0.0057,-0.0618,-0.1303,-0.1974,-0.2872,0.0,-0.3791,0.0,0.0,0.0,0.0,0.0,0.0,0.0,0.0,0.0,0.0,0.0,0.0,0.0,0.0,0.0,0.0,0.0,0.0,0.0,0.0,-0.5878,-0.5759,-0.5889,-0.6251,-0.6291,-0.6441,-0.6715,-0.6715,-0.6722,-0.6729,-0.6566,-0.642,-0.6217,-0.6347,-0.5831,-0.4794,-0.4894,-0.438,-0.3392,-0.2236,-0.2413,-0.3215,-0.2236,-0.2387,-0.3549,-0.5754,-0.5871,-0.5095,0.0,0.0,0.0,0.0,0.0,0.0,0.0,0.0,0.0,0.0,0.0,0.0,0.0,0.0,0.0,0.0,0.0,0.0,0.0,-0.0589,0.016,0.0524,0.1241,0.151,0.1119,0.0656,0.0561,0.0783,0.0255,0.0175,0.0584,0.0863,0.0845,0.0556,0.091,0.0656,0.0,0.0,0.0,0.0,0.0,0.0,0.0,0.0,0.0,0.0,0.0,0.0,0.0,0.0,0.0,0.0,0.0,0.0,0.0,0.0,0.0,0.0,0.0,0.0,-0.0114,-0.0562,-0.0895,0.0,0.0,-0.3292,-0.4309,-0.4348,-0.4822,0.0,0.0,0.0,0.0,0.0,0.0,0.0,0.0,0.0,0.0,0.0,0.0,0.0,0.0,0.0,0.0,0.0,0.0,0.0,-0.5888,-0.5749,-0.5725,-0.584,-0.602,-0.6173,-0.6281,-0.6999,-0.7051,-0.6427,-0.6458,-0.6396,-0.6345,-0.6407,-0.626,-0.5909,-0.6043,-0.5491,-0.4461,-0.4025,-0.3793,-0.3659,-0.3929,-0.4635,-0.5591,-0.6386,-0.6335,-0.5857,0.0,0.0,0.0,0.0,0.0,0.0,0.0,0.0,0.0,0.0,0.0,0.0,0.0,0.0,0.0,0.0,0.0,0.0,-0.0821,0.0103,0.0828,0.1281,0.1952,0.2317,0.2354,0.158,0.1211,0.1249,0.0739,0.0559,0.0628,0.0721,0.0694,0.0597,0.0687,0.0482,0.0,0.0,0.0,0.0,0.0,0.0,0.0,0.0,0.0,0.0,0.0,0.0,0.0,0.0,0.0,0.0,0.0,0.0,0.0,0.0,0.0,0.0,0.0,0.0,-0.0112,-0.0615,0.0,0.0,-0.1754,-0.2941,-0.3995,-0.4336,-0.4955,0.0,0.0,0.0,0.0,0.0,0.0,0.0,0.0,0.0,0.0,0.0,0.0,0.0,0.0,0.0,0.0,0.0,0.0,0.0,0.0,-0.5731,-0.5675,-0.5993,-0.6204,-0.6368,-0.647,-0.7547,-0.7643,-0.6795,-0.6769,-0.6613,-0.6264,-0.6363,-0.643,-0.6478,-0.6583,-0.6207,-0.5565,-0.5258,-0.4708,-0.4156,-0.5429,-0.6267,-0.6702,-0.6702,-0.6542,-0.6322,0.0,0.0,0.0,0.0,0.0,0.0,0.0,0.0,0.0,0.0,0.0,0.0,0.0,0.0,0.0,0.0,0.0,0.0,-0.0096,0.1233,0.2043,0.2165,0.2665,0.3121,0.3581,0.2707,0.2304,0.2501,0.1886,0.1031,0.0,0.0,0.0,0.0,0.0,0.0,0.0,0.0,0.0,0.0,0.0,0.0,0.0,0.0,0.0,0.0,0.0,0.0,0.0,0.0,0.0,0.0,0.0,0.0,0.0,0.0,0.0,0.0,0.0,0.0,0.0,0.0,0.0,0.0,-0.1107,-0.1642,-0.2484,-0.3608,-0.4641,-0.5723,-0.6875,0.0,0.0,0.0,0.0,0.0,0.0,0.0,0.0,0.0,0.0,0.0,0.0,0.0,0.0,0.0,0.0,0.0,0.0,-0.5974,-0.5892,-0.686,-0.6937,-0.7115,-0.7487,-0.8354,-0.8467,-0.7774,-0.7584,-0.7072,-0.6257,-0.6335,-0.6332,-0.6468,-0.6468,-0.6556,-0.6625,-0.5568,-0.5099,-0.5282,-0.6546,-0.6956,-0.6702,-0.6702,-0.6603,-0.6454,0.0,0.0,0.0,0.0,0.0,0.0,0.0,0.0,0.0,0.0,0.0,0.0,0.0,0.0,0.0,0.0,0.0,0.0,-0.0095,0.0866,0.1555,0.1914,0.2661,0.3212,0.3585,0.3172,0.2545,0.1642,0.1271,0.073,0.0,0.0,0.0,0.0,0.0,-0.0249,-0.0582,-0.0199,-0.025,-0.0593,-0.0152,0.0,0.0,0.0,0.0,0.0,0.0,0.0,0.0,0.0,0.0,0.0,0.0,0.0,0.0,0.0,0.0,0.0,0.0,0.0,0.0,0.0,0.0,0.0,0.0,-0.1409,0.0,0.0,-0.4433,-0.4944,-0.6141,0.0,0.0,0.0,0.0,0.0,0.0,0.0,0.0,0.0,0.0,0.0,0.0,0.0,0.0,0.0,0.0,0.0,0.0,-0.7172,-0.7339,-0.7663,-0.7745,-0.7884,-0.8007,-0.906,-0.9101,-0.824,-0.8255,-0.7471,-0.6095,-0.5986,-0.602,-0.6159,-0.6159,-0.6305,-0.6549,-0.6284,-0.6257,-0.626,-0.6645,-0.6776,-0.6702,-0.6702,-0.6671,-0.661,0.0,0.0,0.0,0.0,0.0,0.0,0.0,0.0,0.0,0.0,0.0,0.0,0.0,0.0,0.0,0.0,0.0,0.0,0.0,0.0511,0.1262,0.1851,0.258,0.3124,0.3493,0.3456,0.2777,0.1409,0.1242,0.0781,0.0,0.0,0.0,0.0,-0.0239,-0.0571,-0.0885,-0.0524,-0.0575,-0.0859,-0.0244,0.0,0.0,0.0,0.0,0.0,0.0,0.0,0.0,0.0,0.0,0.0,0.0,0.0,0.0,0.0,0.0,0.0,0.0,0.0,0.0,0.0,0.0,0.0,0.0,0.0,0.0,0.0,0.0,-0.3831,0.0,0.0,0.0,0.0,0.0,0.0,0.0,0.0,0.0,0.0,0.0,0.0,0.0,0.0,0.0,0.0,0.0,0.0,0.0,-0.7695,-0.7999,-0.8479,-0.8463,-0.858,-0.8767,-0.9796,-0.9914,-0.8964,-0.9024,-0.8074,-0.6349,-0.596,-0.5884,-0.6034,-0.6095,-0.6254,-0.6478,-0.6573,-0.661,-0.662,-0.6746,-0.6753,-0.6709,-0.677,-0.6793,-0.6759,0.0,0.0,0.0,0.0,0.0,0.0,0.0,0.0,0.0,0.0,0.0,0.0,0.0,0.0,0.0,0.0,0.0,0.0,0.0,0.0,0.1131,0.1876,0.2407,0.2895,0.3266,0.3427,0.2857,0.1529,0.1614,0.1061,0.0,0.0,0.0,-0.0045,-0.0627,-0.094,-0.0984,-0.094,-0.0915,-0.0947,-0.0285,0.0,0.0,0.0,0.0,0.0,0.0,0.0,0.0,0.0,0.0,0.0,0.0,0.0,0.0,0.0,0.0,0.0,0.0,0.0,0.0,0.0,0.0,0.0,0.0,-0.0631,-0.1283,-0.1524,0.0,0.0,0.0,0.0,0.0,0.0,0.0,0.0,0.0,0.0,0.0,0.0,0.0,0.0,0.0,0.0,0.0,0.0,0.0,0.0,0.0,-0.7812,-0.8215,-0.9325,-0.9019,-0.9131,-0.9712,-1.049,-1.0546,-0.9908,-0.9661,-0.8682,-0.6958,-0.618,-0.5916,-0.5996,-0.6152,-0.6291,-0.6413,-0.6427,-0.643,-0.6461,-0.6753,-0.68,-0.6719,-0.6858,-0.6915,-0.6888,0.0,0.0,0.0,0.0,0.0,0.0,0.0,0.0,0.0,0.0,0.0,0.0,0.0,0.0,0.0,0.0,0.0,0.0,0.0,0.0,0.0471,0.1121,0.2157,0.2794,0.3003,0.2934,0.2303,0.1067,0.1621,0.1243,0.0,0.0,0.0,-0.0045,-0.0627,-0.1163,-0.1563,-0.1118,-0.1168,-0.1493,-0.0455,0.0,0.0,0.0,0.0,0.0,0.0,0.0,0.0,0.0,0.0,0.0,0.0,0.0,0.0,0.0,0.0,0.0,0.0,0.0,0.0,0.0,0.0,0.0,0.0,-0.0127,-0.0539,-0.142,0.0,0.0,0.0,0.0,0.0,0.0,0.0,0.0,0.0,0.0,0.0,0.0,0.0,0.0,0.0,0.0,0.0,0.0,0.0,0.0,-0.7782,-0.8885,-0.9544,-0.9636,-0.9564,-0.9701,-0.9985,-1.002,-0.9986,-1.0076,-0.9101,-0.8214,-0.7335,-0.6758,-0.6207,-0.5691,-0.5837,-0.5918,-0.5956,-0.6074,-0.6125,-0.6142,-0.6332,-0.6525,-0.6705,-0.6736,-0.6824,-0.6919,0.0,0.0,0.0,0.0,0.0,0.0,0.0,0.0,0.0,0.0,0.0,0.0,0.0,0.0,0.0,0.0,0.0,0.0,0.0,0.0,0.0255,0.0865,0.1764,0.2297,0.2395,0.2346,0.1888,0.0878,0.1366,0.1036,0.0,0.0,0.0,-0.0045,-0.094,-0.134,-0.1385,-0.134,-0.134,-0.1297,-0.0359,0.0,0.0,0.0,0.0,-0.0048,-0.0348,0.0,0.0,0.0,0.0,0.0,0.0,0.0,-0.0053,-0.0425,-0.0269,-0.0055,-0.0446,0.0,0.0,0.0,0.0,0.0,0.0,0.0,-0.0129,-0.071,0.0,0.0,0.0,0.0,0.0,0.0,0.0,0.0,0.0,0.0,0.0,0.0,0.0,0.0,0.0,0.0,0.0,0.0,0.0,-0.7977,-0.7624,-0.8589,-0.9337,-0.9679,-0.9546,-0.9613,-0.9907,-0.976,-0.976,-0.9907,-0.933,-0.8735,-0.8067,-0.6798,-0.5981,-0.5596,-0.5739,-0.58,-0.581,-0.5888,-0.5922,-0.5942,-0.6173,-0.6352,-0.6508,-0.6647,-0.6753,-0.681,0.0,0.0,0.0,0.0,0.0,0.0,0.0,0.0,0.0,0.0,0.0,0.0,0.0,0.0,0.0,0.0,0.0,0.0,0.0,0.0,0.0,0.0894,0.1385,0.1652,0.1652,0.1743,0.1465,0.0753,0.0865,0.0603,0.0,0.0,0.0,-0.0045,-0.1163,-0.1385,-0.094,-0.1429,-0.134,-0.0851,-0.0224,0.0,0.0,-0.0093,-0.0142,-0.0237,-0.0831,-0.0738,-0.0343,-0.0894,0.0,0.0,0.0,0.0,-0.0422,-0.106,-0.0759,-0.0278,-0.0949,0.0,0.0,0.0,0.0,0.0,0.0,0.012,0.0184,0.0,0.0,0.0,0.0,0.0,0.0,0.0,0.0,0.0,0.0,0.0,0.0,0.0,0.0,0.0,0.0,0.0,0.0,0.0,0.0,-0.7599,-0.7404,-0.7929,-0.8589,-0.9526,-0.9292,-0.9305,-0.9606,-0.9559,-0.9559,-0.9606,-0.9484,-0.9122,-0.8558,-0.6706,-0.5837,-0.5827,-0.5881,-0.5863,-0.5728,-0.5752,-0.5766,-0.5793,-0.6101,-0.6237,-0.6291,-0.6563,-0.6661,-0.6647,0.0,0.0,0.0,0.0,0.0,0.0,0.0,0.0,0.0,0.0,0.0,0.0,0.0,0.0,0.0,0.0,0.0,0.0,-0.1353,0.0,0.0,0.0892,0.0984,0.1029,0.1029,0.1041,0.0724,0.0127,0.0123,0.0,0.0,0.0,0.0,-0.0045,-0.0716,-0.0984,-0.0895,-0.0984,-0.0984,-0.0851,-0.0224,0.0,-0.0045,-0.0586,-0.0768,-0.0858,-0.1451,-0.1554,-0.1394,-0.1591,-0.1543,0.0,0.0,0.0,-0.158,-0.1842,-0.1334,-0.0809,0.0,0.0,0.0,0.0,0.0,0.0,0.0,0.0,0.0946,0.0,0.0,0.0,0.0,0.0,0.0,0.0,0.0,0.0,0.0,0.0,0.0,0.0,0.0,0.0,0.0,0.0,0.0,0.0,-0.6121,-0.6696,-0.6957,-0.7745,-0.8417,-0.8878,-0.8884,-0.9005,-0.9236,-0.9051,-0.9051,-0.9243,-0.849,-0.8101,-0.7972,-0.7255,-0.6769,-0.6564,-0.6585,-0.614,-0.543,-0.5562,-0.5616,-0.5647,-0.5945,-0.6142,-0.6281,-0.6441,-0.6502,-0.6519,0.0,0.0,0.0,0.0,0.0,0.0,0.0,0.0,0.0,0.0,0.0,0.0,0.0,0.0,0.0,-0.292,-0.2324,-0.1652,-0.102,-0.0618,-0.0166,0.0388,0.0399,0.0404,0.0404,0.0747,0.0731,0.0378,0.0,0.0,0.0,0.0901,0.057,0.0,0.0,0.0,-0.0403,-0.0761,-0.0716,-0.0359,-0.009,0.0,-0.0045,-0.0672,-0.0895,-0.1026,-0.187,-0.1918,-0.164,-0.1914,-0.1773,-0.1421,-0.1523,0.0,0.0,0.0,-0.1945,-0.1352,-0.1078,-0.0435,0.0109,0.0,0.0336,0.0615,0.0615,0.0,0.0,0.0,0.0,0.0,0.0,0.0,0.0,0.0,0.0,0.0,0.0,0.0,0.0,0.0,0.0,0.0,0.0,0.0,0.0,0.0,-0.5711,-0.623,-0.6292,-0.6565,-0.6952,-0.7563,-0.7996,-0.8211,-0.8329,-0.8652,-0.8871,-0.8944,-0.816,-0.7903,-0.8049,-0.7417,-0.7115,-0.7131,-0.658,-0.6213,-0.6071,-0.5533,-0.5382,-0.5484,-0.5698,-0.5823,-0.5901,-0.6044,-0.6095,-0.6118,0.0,0.0,0.0,0.0,0.0,0.0,0.0,0.0,0.0,0.0,0.0,0.0,0.0,0.0,0.0,0.0,-0.2341,-0.1597,-0.0583,-0.0513,-0.0373,0.0,0.0,0.0,0.0,0.057,0.0809,0.0,0.0,0.0,0.161,0.161,0.1191,0.0,0.0,0.0,0.0,0.0,0.0,0.0,0.0044,0.0,-0.009,-0.0851,-0.1118,-0.1289,-0.234,-0.2413,-0.2009,0.0,0.0,0.0,0.0,0.0,0.0,0.0,0.0,0.0,0.0,0.0,0.0,0.0222,0.0667,0.1161,0.0,0.0,0.0,0.0,0.0,0.0,0.0,0.0,0.0,0.0,0.0,0.0,0.0,0.0,0.0,0.0,0.0,0.0,0.0,0.0,0.0,0.0,-0.5362,-0.569,-0.5701,-0.5563,-0.5814,-0.6588,-0.7128,-0.7402,-0.7402,-0.7943,-0.8262,-0.8209,-0.767,-0.7552,-0.7789,-0.7226,-0.716,-0.734,-0.6502,-0.615,-0.6254,-0.5471,-0.5257,-0.5442,-0.5532,-0.5589,-0.5606,-0.5749,-0.58,-0.5817,0.0,0.0,0.0,0.0,0.0,0.0,0.0,0.0,0.0,0.0,0.0,0.0,-0.2726,-0.2829,-0.2859,-0.2706,-0.2046,-0.1162,-0.0109,-0.0038,-0.004,0.0,0.0,0.0,0.0,0.0454,0.0708,0.0,0.0,0.0,0.1612,0.1612,0.1648,0.1697,0.1697,0.1616,0.1475,0.0,0.0,0.0,0.0,0.0,0.0,0.0,0.0,0.0,0.0,0.0,0.0,0.0,0.0,0.0,0.0,0.0,-0.3079,0.0,0.0,0.0,0.0,-0.0883,0.0,0.0715,0.109,0.0,0.0,0.0,0.0,0.0,0.0,0.0,0.0,0.0,0.0,0.0,0.0,0.0,0.0,0.0,0.0,0.0,0.0,0.0,0.0,0.0,0.0,0.0,-0.467,-0.4965,-0.5508,-0.5492,-0.5814,-0.6588,-0.6642,-0.6642,-0.6642,-0.6696,-0.6696,-0.6696,-0.6696,-0.6647,-0.6663,-0.6663,-0.6789,-0.7089,-0.6589,-0.5943,-0.5216,-0.5356,-0.5422,-0.5442,-0.5532,-0.5589,-0.5606,-0.5749,-0.58,-0.5803,0.0,0.0,0.0,0.0,0.0,0.0,0.0,0.0,0.0,0.0,0.0,0.0,0.0,-0.2988,-0.3055,-0.2849,-0.2297,-0.1874,-0.1634,-0.1241,-0.088,-0.0587,-0.0569,-0.0404,0.0,0.0846,0.121,0.0,0.0,0.2413,0.2576,0.2576,0.271,0.2904,0.2142,0.177,0.1703,0.1137,0.0,0.0,0.0,0.0,0.0,0.0,0.0,0.0,0.0,0.0,0.0,0.0,0.0,0.0,0.0,-0.2907,-0.3042,-0.3303,-0.322,0.0,0.0,0.0,0.0,0.0218,0.1105,0.1978,0.0,0.0,0.0,0.0,0.0,0.0,0.0,0.0,0.0,0.0,0.0,0.0,0.0,0.0,0.0,0.0,0.0,0.0,0.0,0.0,0.0,0.0,0.0,-0.4629,-0.4842,-0.4838,-0.5007,-0.5226,-0.566,-0.6145,-0.6588,-0.6588,-0.6588,-0.6588,-0.6145,-0.5873,-0.5869,-0.5441,-0.5317,-0.545,-0.5456,-0.56,-0.5888,-0.5382,-0.5274,-0.5425,-0.5311,-0.5355,-0.5437,-0.5389,-0.5433,-0.5535,0.0,0.0,0.0,0.0,0.0,0.0,0.0,0.0,0.0,0.0,0.0,0.0,0.0,0.0,-0.3023,-0.264,-0.2156,-0.1971,-0.2078,-0.1767,-0.1389,-0.0859,-0.0868,-0.0627,0.0,0.1031,0.1518,0.0,0.0,0.0,0.0,0.3096,0.3256,0.346,0.2752,0.226,0.0,0.0,0.0,0.0744,0.0,0.0,-0.0984,0.0,0.0,0.0,0.0,0.0,0.0,0.0,0.0,0.0,0.0,-0.3305,-0.3372,-0.3559,-0.3586,0.0,-0.3072,0.0,0.0,0.0,0.0,0.216,0.0,0.0,0.0,0.0,0.0,0.0,0.0,0.0,0.0,0.0,0.0,0.0,0.0,0.0,0.0,0.0,0.0,0.0,0.0,0.0,0.0,0.0,0.0,0.0,-0.4519,-0.4519,-0.4519,-0.4519,-0.4948,-0.5386,-0.5882,-0.5882,-0.5882,-0.5882,-0.5105,-0.4772,-0.4772,-0.4288,-0.415,-0.421,-0.4687,-0.5247,-0.5789,-0.5399,-0.524,-0.5281,-0.5226,-0.527,-0.5415,-0.5247,-0.5274,-0.5442,0.0,0.0,0.0,0.0,0.0,0.0,0.0,0.0,0.0,-0.4851,0.0,0.0,0.0,0.0,0.0,-0.2076,-0.1585,-0.1313,-0.1318,-0.1525,-0.1374,-0.0745,-0.0855,-0.0627,0.0,0.1031,0.1479,0.0,0.0,0.0,0.0,0.0,0.3162,0.3313,0.3507,0.3187,0.2435,0.0,0.1384,0.0588,0.0,-0.0904,-0.1073,0.0,0.0,0.0,-0.3868,-0.4222,0.0,-0.4785,0.0,0.0,0.0,-0.4337,-0.4227,-0.4232,0.0,0.0,0.0,0.0,0.0,0.0,0.0,0.0,0.0,0.0,0.0,0.0,0.0,0.0,0.0,0.0,0.0,0.0,0.0,0.0,0.0,0.0,0.0,0.0,0.0,0.0,0.0,0.0,0.0,0.0,-0.4015,-0.4519,-0.4519,-0.4519,-0.4463,-0.446,-0.446,-0.446,-0.4408,-0.4408,-0.4408,-0.4408,-0.3622,-0.3287,-0.3345,-0.3287,-0.3403,-0.3635,-0.448,-0.4826,-0.4718,-0.5169,-0.5267,-0.5145,-0.5291,-0.5422,-0.5428,-0.5422,-0.5425,-0.5428,0.0,0.0,0.0,0.0,0.0,0.0,-0.4969,-0.5067,-0.5137,0.0,0.0,0.0,-0.4,-0.3038,-0.2428,-0.2522,-0.1915,-0.1549,-0.1655,-0.2106,-0.192,-0.0905,-0.1279,-0.1073,-0.0045,0.0644,0.1126,0.0,0.0,0.0,0.3063,0.3065,0.0,0.0,0.335,0.2887,0.1974,0.1841,0.0,0.0,-0.0509,-0.1332,0.0,0.0,0.0,0.0,0.0,-0.456,-0.4521,0.0,-0.5303,-0.455,0.0,0.0,0.0,0.0,0.0,0.0,-0.4679,0.0,0.0,0.0,0.0,0.0,0.0,0.0,0.0,0.0,0.0,0.0,0.0,0.0,0.0,0.0,0.0,0.0,0.0,0.0,0.0,0.0,0.0,0.0,0.0,0.0,0.0,0.0,-0.3735,-0.4519,-0.4519,-0.4519,-0.4236,-0.3622,-0.368,-0.34,-0.2843,-0.2843,-0.2843,-0.2843,-0.2619,-0.2508,-0.2508,-0.2508,-0.2802,-0.3398,-0.3807,-0.4198,-0.4562,-0.5009,-0.5169,-0.5125,-0.5064,-0.5172,-0.5415,-0.5237,-0.5267,-0.5428,0.0,0.0,0.0,0.0,0.0,-0.6102,-0.5756,-0.5845,-0.5835,0.0,0.0,0.0,-0.3454,-0.2562,-0.2074,-0.2103,-0.1587,-0.145,-0.1937,-0.2147,-0.1911,-0.1219,-0.1328,-0.0984,0.0,0.0525,0.1016,0.0,0.1886,0.2376,0.2937,0.3002,0.0,0.0,0.0,0.0,0.0,0.0,0.0,0.0,-0.0956,0.0,0.0,-0.2913,-0.3287,0.0,0.0,0.0,-0.498,-0.649,-0.646,0.0,0.0,0.0,0.0,0.0,0.0,0.0,0.0,0.0,0.0,0.0,0.0,0.0,-0.0305,0.1041,0.0,0.0,0.0,0.0,0.0,0.0,0.0,0.0,0.0,0.0,0.0,0.0,0.0,0.0,0.0,0.0,0.0,-0.2452,-0.3345,-0.1842,-0.2843,-0.3566,-0.3566,-0.3566,-0.3345,-0.2843,-0.2899,-0.2676,-0.223,-0.2174,-0.2174,-0.2174,-0.1898,-0.173,-0.173,-0.173,-0.2193,-0.2963,-0.343,-0.3998,-0.4579,-0.484,-0.4986,-0.504,-0.5016,-0.5152,-0.5418,-0.526,-0.5284,-0.5428,0.0,0.0,-0.5885,-0.6156,-0.625,-0.6371,-0.6553,-0.6574,-0.6491,0.0,-0.5567,-0.4453,-0.271,-0.2033,-0.1585,-0.1271,-0.0919,-0.1065,-0.1899,-0.1818,-0.1648,-0.1437,-0.114,-0.0672,0.0,0.0583,0.1031,0.1262,0.1841,0.2307,0.2639,0.2772,0.2835,0.2802,0.0,0.0,0.0,0.0,0.0,-0.1111,-0.1641,-0.2264,0.0,0.0,-0.3636,0.0,-0.5231,-0.5615,-0.5662,-0.7373,-0.8076,0.0,0.0,0.0,0.0,0.0,-0.71,0.0,0.0,0.0,0.0,0.0,0.0,0.0,-0.2095,-0.0456,0.1158,0.0,0.0,0.0,0.0,0.0,0.0,0.0,0.0,0.0,0.0,0.0,0.0,0.0,0.0,0.0,-0.0168,-0.2009,-0.2676,-0.1229,-0.1786,-0.2174,-0.2174,-0.2174,-0.2174,-0.2063,-0.2063,-0.2063,-0.1952,-0.1952,-0.1952,-0.1952,-0.1284,-0.095,-0.095,-0.095,-0.1533,-0.2507,-0.3147,-0.3906,-0.4667,-0.4667,-0.4765,-0.4931,-0.5057,-0.5209,-0.5428,-0.5428,-0.5428,-0.5428,0.0,0.0,-0.6366,-0.6223,-0.654,-0.6794,-0.6613,-0.6426,-0.6253,-0.6215,-0.4813,-0.3537,-0.2731,-0.1706,-0.1047,-0.1004,-0.091,-0.0737,-0.0437,-0.1711,-0.1851,-0.0355,-0.1158,-0.1118,-0.0045,0.0583,0.0917,0.0994,0.1474,0.1934,0.2283,0.2308,0.2319,0.0,0.0,0.0,0.0,0.0,0.0,-0.2207,-0.2333,0.0,-0.3442,-0.3534,-0.3965,-0.46,-0.5591,-0.6044,-0.6365,0.0,-0.9065,-1.0168,0.0,0.0,0.0,0.0,0.0,0.0,0.0,0.0,0.0,0.0,0.0,0.0,-0.3528,-0.2003,-0.0679,0.0,0.0,0.0,0.0,0.0,0.0,0.0,0.0,0.0,0.0,0.0,0.0,0.0,0.0,0.0,-0.0168,-0.2009,-0.2676,-0.1229,-0.1786,-0.2174,-0.2174,-0.2174,-0.1952,-0.134,-0.134,-0.1006,-0.0448,-0.0448,-0.0448,-0.0448,-0.028,-0.0224,-0.0224,-0.0224,-0.0954,-0.2252,-0.2422,-0.3266,-0.4563,-0.4563,-0.467,-0.4921,-0.4948,-0.5125,-0.5428,-0.5428,-0.5428,-0.5428,-0.6109,-0.631,-0.6458,-0.6567,-0.6827,-0.6974,-0.6827,-0.6475,-0.6002,-0.5384,-0.376,0.0,0.0,0.0,0.0,-0.0492,-0.044,-0.0438,-0.0448,-0.1029,-0.1073,-0.0493,-0.0761,-0.0627,0.0,0.0314,0.057,0.0796,0.1041,0.1486,0.2098,0.1868,0.0,0.0,0.0,0.0,0.0,0.0,-0.1639,-0.2358,-0.2526,0.0,-0.3622,-0.388,-0.4236,-0.469,-0.5867,-0.6966,-0.8044,-0.895,-0.9917,0.0,0.0,-1.0914,-1.0682,0.0,-0.9934,-0.9534,0.0,0.0,0.0,-0.7101,0.0,0.0,0.0,-0.3939,-0.2394,-0.1521,0.0,0.0,0.0,0.0,0.0,0.0,0.0,0.0,0.0,0.0,0.0,0.0,0.0,0.0,-0.0168,-0.1675,-0.212,-0.0671,-0.0895,-0.1118,-0.1118,-0.1118,-0.0951,-0.056,-0.056,-0.0392,0.0,0.0,0.0168,0.056,0.0168,0.0168,0.056,0.0168,-0.0783,-0.2174,-0.2174,-0.3065,-0.4519,-0.4519,-0.4599,-0.4813,-0.4891,-0.5101,-0.5428,-0.5428,-0.5428,-0.5428,-0.5927,-0.6068,-0.6219,-0.6566,-0.6691,-0.6689,-0.6607,-0.6151,-0.538,0.0,0.0,0.0,0.0,0.0,0.0,0.0,0.0,-0.0214,0.0,0.0,-0.0355,-0.0708,-0.0357,-0.0134,0.0,0.0134,0.0308,0.0545,0.068,0.1066,0.1737,0.1374,0.0,0.0,0.0,0.0,0.0,0.0,0.0,-0.2415,0.0,-0.3072,-0.3583,-0.4152,-0.4452,-0.4703,-0.6163,-0.7888,-0.9554,-1.0009,0.0,-1.1008,-1.228,-1.1787,0.0,0.0,0.0,0.0,0.0,0.0,0.0,0.0,0.0,-0.6686,0.0,0.0,0.0,-0.3206,0.0,0.0,0.0,0.0,0.0,0.0,0.0,0.0,0.0,0.0,0.0,0.0,0.0,0.0,-0.0112,-0.1062,-0.1284,-0.0112,0.0,0.0,0.0,0.0,0.0,0.0,0.0,0.0,0.0,0.0,0.028,0.0895,0.028,0.0336,0.0838,0.0112,-0.095,-0.223,-0.2343,-0.3231,-0.4519,-0.4519,-0.4551,-0.4707,-0.486,-0.5081,-0.5321,-0.5418,-0.5428,-0.5428,-0.5403,-0.5585,-0.5681,-0.5352,-0.5523,-0.5567,-0.5187,-0.4734,-0.4043,0.0,0.0,0.0,0.0,0.0,0.0,0.0,0.0,0.0,-0.009,0.0,0.0,-0.0127,-0.0527,-0.0529,0.0,0.0528,0.057,0.0084,0.0601,0.0878,0.0837,0.0793,0.0,0.0,0.0637,0.0,0.0,0.0,-0.2286,0.0,-0.3174,-0.3208,0.0,-0.4099,-0.4669,-0.5199,-0.65,-0.8187,-0.9794,0.0,-1.0355,-1.1451,0.0,-1.1663,-1.2006,0.0,0.0,0.0,0.0,0.0,0.0,0.0,-0.8213,0.0,0.0,0.0,-0.487,-0.3875,0.0,0.0,0.0,0.0,0.0,0.0,0.0,0.0,0.0,0.0,0.0,0.0,0.0,0.0,0.0,-0.0168,-0.0168,0.0,0.0,0.0,0.0,0.0,0.0,0.0,0.0,0.0,0.0,0.0,0.0056,0.0112,0.0056,0.0056,0.0112,-0.0615,-0.1396,-0.2232,-0.2899,-0.368,-0.4519,-0.4519,-0.4551,-0.4707,-0.486,-0.5016,-0.5172,-0.5311,-0.5428,-0.5428,-0.5564,-0.5422,0.0,-0.5324,-0.5222,-0.5103,-0.4915,-0.391,-0.2789,0.0,0.0,0.0,0.0,0.0,0.0,0.0,0.0,0.0352,0.0,0.0,0.0,0.0,0.0089,-0.0044,-0.0524,-0.0266,-0.0444,-0.1045,-0.0729,-0.0425,-0.0227,-0.0383,0.0,0.0,-0.0468,0.0,-0.2414,0.0,-0.2606,0.0,0.0,0.0,0.0,-0.4464,-0.5583,-0.6649,-0.7725,-0.899,-1.025,0.0,-1.1122,0.0,0.0,0.0,0.0,0.0,0.0,0.0,0.0,0.0,0.0,0.0,0.0,0.0,-0.8666,0.0,-0.6336,0.0,0.0,0.0,0.0,0.0,0.0,0.0,-0.1115,0.0,0.0,0.0,0.0,0.0,0.0,0.0,0.0,0.0,0.0,0.0,0.0,0.0,0.0,0.0,-0.0224,-0.0615,-0.0224,-0.0224,-0.0615,-0.0224,0.0224,0.0615,0.0224,0.0,0.0,-0.0782,-0.173,-0.2843,-0.3176,-0.3735,-0.4519,-0.4519,-0.4556,-0.4572,-0.4728,-0.4877,-0.5016,-0.5081,-0.5155,-0.5226,-0.5948,0.0,0.0,0.0,-0.4645,-0.4394,-0.4205,-0.2991,0.0,0.0,0.0,0.0,0.0851,0.0895,0.0,0.0,0.0753,0.0487,0.0,0.0,0.0396,0.0,0.0,0.0,0.0,-0.146,-0.169,-0.1786,-0.2181,-0.1965,0.0,0.0,0.0,0.0,0.0,-0.2211,-0.2918,0.0,0.0,-0.3073,-0.3198,-0.3443,-0.3826,-0.4923,-0.6238,-0.7623,-0.8436,-0.9369,-1.0303,-1.1084,-1.1378,0.0,-1.3169,0.0,0.0,0.0,0.0,0.0,-1.0068,0.0,0.0,0.0,0.0,0.0,0.0,0.0,0.0,0.0,0.0,0.0,0.0,0.0,0.0,0.0,0.0,0.0,0.0,0.0,0.0,0.0,0.0,0.0,0.0,0.0,0.0,0.0,0.0168,0.0225,0.0,-0.0227,-0.0568,-0.1076,-0.0851,-0.0903,-0.1397,-0.0671,-0.0056,0.0503,-0.0056,-0.028,-0.0334,-0.1282,-0.2341,-0.3345,-0.3566,-0.3956,-0.4463,-0.4294,-0.4206,-0.4194,-0.4356,-0.4483,-0.4549,-0.4796,-0.4986,-0.5077,-0.657,-0.5484,0.0,0.0,0.0,0.0,0.0,0.0,0.0,0.0,0.0,0.0,0.0,0.0,0.0,0.0,0.0,0.0,0.0,0.0,-0.0253,0.0,0.0,-0.1139,0.0,0.0,-0.2901,-0.1786,-0.343,-0.3514,0.0,0.0,0.0,0.0,0.0,-0.2441,-0.3464,-0.3322,-0.3266,-0.3327,-0.3487,-0.4256,-0.524,0.0,-0.632,-0.7558,-0.8099,0.0,0.0,-1.0064,-1.048,0.0,0.0,0.0,0.0,0.0,0.0,0.0,0.0,0.0,0.0,-1.0926,0.0,0.0,0.0,0.0,-0.909,0.0,0.0,0.0,0.0,0.0,0.0,0.0,0.0,0.0,0.0,0.0,0.0,0.0,0.0,0.0,0.0,0.0615,0.0783,0.0056,0.0671,0.0738,0.0059,-0.0822,-0.1232,-0.1114,-0.1933,-0.2364,-0.2176,-0.1452,-0.1062,-0.1006,-0.1062,-0.1062,-0.1117,-0.2621,-0.3345,-0.3456,-0.4125,-0.446,-0.4463,-0.3735,-0.3408,-0.3333,-0.3574,-0.3646,-0.3747,-0.461,-0.4921,-0.4945,0.0,0.0,0.0,0.0,0.0,0.0,0.0,-0.1641,0.0,0.0,0.0,0.0,0.0,0.0895,0.076,0.0,0.0,0.0088,-0.1117,-0.0441,0.0,0.0,0.0,-0.3128,0.0,0.0,0.0,0.0,0.0,0.0,0.0,0.0,0.0,0.0,0.0,-0.3638,0.0,0.0,0.0,0.0,0.0,-0.4126,-0.4929,0.0,0.0,-0.764,-0.8604,-0.9258,0.0,-1.0761,-1.1209,-1.1381,-1.1437,-1.101,-1.0547,-1.0872,-1.0715,0.0,0.0,0.0,-1.3404,-1.3035,0.0,0.0,0.0,0.0,0.0,0.0,0.0,0.0,0.0,0.0,0.0,0.0,0.0,0.0,0.0,0.0,0.0,0.0,0.0,0.0,0.0,0.0,0.0,0.0,0.0224,0.0284,0.0,-0.0823,-0.1467,-0.1818,-0.2287,-0.2653,-0.2899,-0.2174,-0.184,-0.184,-0.184,-0.212,-0.2621,-0.3178,-0.368,-0.4125,-0.4405,-0.4519,-0.4463,-0.4236,-0.3816,-0.3352,-0.4068,-0.4013,-0.3633,-0.3932,-0.4408,-0.4925,-0.892,0.0,0.0,0.0,0.0,0.0,0.0,0.0,0.0,0.0,0.0,0.0,0.085,0.0,0.067,0.0,0.0179,-0.0313,-0.1695,-0.1569,0.0,-0.4215,-0.4586,0.0,0.0,0.0,0.0,0.0,0.0,-0.7864,0.0,0.0,0.0,0.0,0.0,-0.4996,-0.4262,0.0,-0.4303,0.0,0.0,-0.4092,0.0,0.0,-0.6141,-0.7372,0.0,-0.9352,-0.9656,-1.0827,-1.1246,-1.1192,-1.1022,-1.0581,-1.016,-1.0542,-1.0558,-1.0747,-1.213,-1.3341,0.0,-1.4245,-1.4498,0.0,-1.2977,0.0,0.0,0.0,0.0,0.0,0.0,0.0,0.0,0.0,0.0,0.0,0.0,-0.3575,0.0,0.0,0.0,0.0,0.0,0.0,0.028,0.0,0.0224,0.0286,0.0,-0.1136,-0.191,-0.2205,-0.2922,-0.35,-0.3735,-0.2954,-0.2619,-0.2619,-0.2619,-0.2899,-0.34,-0.368,-0.407,-0.4519,-0.4519,-0.4519,-0.446,-0.4184,-0.3761,-0.3411,-0.4068,-0.4039,-0.3688,-0.3949,-0.4228,-0.4494,0.0,0.0,0.0,0.0,-0.5472,0.0,0.0,0.0,-0.2539,0.0,-0.0089,0.0134,0.0716,0.076,0.0491,-0.0133,-0.0714,0.0,-0.2045,-0.3446,0.0,0.0,-0.7776,-0.9307,-1.042,0.0,0.0,0.0,0.0,0.0,0.0,0.0,0.0,0.0,-0.7036,0.0,-0.6473,-0.5129,-0.47,-0.4982,-0.436,-0.4258,-0.4539,-0.5284,-0.6003,-0.6808,-0.8479,-0.9066,-0.9218,-1.0233,-1.0561,-1.0454,-0.9839,-0.9694,-0.9756,-0.9977,-1.0442,-1.1074,-1.2081,-1.2671,-1.327,-1.4454,0.0,0.0,0.0,0.0,-1.1622,0.0,0.0,0.0,0.0,0.0,0.0,0.0,0.0,0.0,0.0,0.0,0.0,0.0,0.0,0.0,0.0,0.0503,0.0671,-0.0056,0.0559,0.0633,0.0,-0.1783,-0.2581,-0.2268,-0.3989,-0.4772,-0.4522,-0.3732,-0.34,-0.3456,-0.3511,-0.3456,-0.3398,-0.4236,-0.457,-0.457,-0.457,-0.457,-0.4515,-0.3732,-0.3406,-0.3389,-0.3571,-0.3711,-0.3959,-0.4658,-0.4366,-0.3576,-1.3244,-1.2538,-1.1873,0.0,-0.8785,-0.6148,0.0,0.0,0.0,0.0,-0.1339,-0.1293,-0.1115,-0.1116,-0.1513,-0.2524,-0.2731,0.0,0.0,0.0,0.0,-1.0184,-1.0772,-1.2013,-1.403,-1.3417,0.0,-1.3686,0.0,0.0,-1.1346,0.0,0.0,0.0,0.0,0.0,-0.763,-0.6704,-0.5895,-0.5267,-0.5534,-0.5423,0.0,0.0,-0.6309,-0.6532,-0.8185,-0.8693,-0.8663,-0.9701,-1.0204,-1.015,-0.9237,-0.929,-0.9632,-0.9316,-0.9717,-1.0531,-1.1588,-1.2444,-1.3249,-1.3951,-1.4132,-1.4017,0.0,0.0,0.0,0.0,0.0,0.0,0.0,0.0,0.0,0.0,0.0,0.0,0.0,0.0,0.0,-0.453,0.0,0.0,0.0,-0.1429,-0.1449,-0.1619,-0.1451,-0.142,-0.1601,0.0,-0.3343,-0.3025,-0.4249,-0.4772,-0.4522,-0.4294,-0.4184,-0.4236,-0.4721,-0.4666,-0.4236,-0.5496,-0.5769,-0.5273,-0.5823,-0.5764,-0.5218,-0.4995,-0.4298,-0.3396,-0.4122,-0.4566,-0.4791,-0.4846,-0.3625,-0.2079,-1.5264,0.0,0.0,-1.427,0.0,0.0,-0.6288,0.0,0.0,-0.2483,-0.2182,0.0,-0.218,-0.2392,-0.3078,-0.4491,-0.4978,0.0,-0.8039,0.0,0.0,-1.2406,-1.3419,-1.4654,-1.6197,-1.5536,0.0,-1.5945,0.0,0.0,-1.3967,0.0,0.0,0.0,0.0,-1.0195,0.0,-0.8005,-0.6946,-0.5914,-0.649,0.0,0.0,-0.652,-0.6672,-0.658,-0.8142,-0.8537,-0.8445,-0.9305,-0.9674,-0.9632,-0.8837,-0.8621,-0.8618,-0.8388,-0.8543,-0.9101,-1.0425,-1.1382,-1.2307,-1.361,-1.389,-1.3782,-1.374,-1.3162,-1.2839,0.0,0.0,0.0,0.0,0.0,0.0,0.0,0.0,0.0,0.0,0.0,0.0,0.0,-0.5182,0.0,0.0,-0.2516,-0.2174,-0.2174,-0.2174,-0.2208,-0.2222,0.0,-0.3582,-0.3341,-0.4293,-0.4875,-0.4952,-0.4948,-0.5113,-0.5445,-0.5823,-0.5764,-0.5445,-0.6263,-0.6367,-0.5982,-0.6421,-0.6367,-0.5982,-0.5982,-0.532,-0.4294,-0.4569,-0.4833,-0.502,-0.4874,-0.3764,-0.239,0.0,0.0,0.0,0.0,0.0,0.0,0.0,-0.8152,0.0,-0.3835,0.0,-0.3231,-0.3265,-0.3716,-0.4702,-0.6274,0.0,-0.8375,-0.9653,-1.1706,-1.3157,-1.3847,-1.5764,-1.7029,-1.7495,-1.7472,0.0,0.0,0.0,0.0,0.0,0.0,0.0,0.0,0.0,0.0,0.0,-0.9282,-0.8224,-0.7225,-0.7645,-0.7212,-0.6361,-0.7241,-0.7279,-0.7055,-0.8224,-0.85,-0.8399,-0.9004,-0.9118,-0.8905,-0.8467,-0.7784,-0.7182,-0.7273,-0.713,-0.73,-0.8656,-0.9611,-1.0693,-1.2719,-1.2914,-1.2811,-1.3564,-1.3097,-1.2888,-1.4184,-1.4301,-1.4685,0.0,0.0,0.0,0.0,0.0,0.0,0.0,0.0,0.0,0.0,0.0,0.0,0.0,0.0,-0.2508,-0.2508,-0.2508,-0.254,-0.2613,0.0,-0.3798,-0.3663,-0.4555,-0.5178,-0.5487,-0.5597,-0.5982,-0.6588,-0.6696,-0.6696,-0.6588,-0.6804,-0.6858,-0.675,-0.6858,-0.6858,-0.675,-0.675,-0.6308,-0.5618,-0.5137,-0.5004,-0.4998,-0.49,-0.4502,-0.3676,0.0,0.0,0.0,0.0,0.0,-1.6766,-1.4374,-1.1539,-0.9087,-0.7512,-0.6628,-0.6151,-0.6151,-0.6654,-0.743,-0.8529,-0.9535,0.0,0.0,0.0,0.0,-1.7318,-1.7783,-1.8225,-1.8692,-1.8431,-1.8232,0.0,0.0,0.0,0.0,0.0,0.0,0.0,0.0,0.0,-1.196,-1.148,0.0,-1.0134,-1.0197,-0.9785,-0.9173,-0.9074,-0.8801,-0.8511,-0.847,-0.8405,-0.8476,-0.9011,-0.865,-0.797,-0.787,-0.7188,-0.6278,-0.5705,-0.5952,-0.6407,-0.6191,-0.7195,-0.8404,-0.8938,-1.014,-1.1442,-1.2488,-1.3489,-1.4753,-1.686,-1.652,-1.6254,-1.7464,0.0,0.0,0.0,0.0,0.0,0.0,0.0,0.0,0.0,0.0,0.0,0.0,0.0,0.0,-0.407,-0.407,-0.4353,0.0,0.0,-0.5356,0.0,-0.6023,0.0,0.0,0.0,-0.6475,-0.6588,-0.7235,-0.7182,-0.6642,-0.7883,-0.8103,-0.7557,-0.8156,-0.8049,-0.7503,-0.7503,-0.7074,-0.6386,-0.6487,-0.6134,-0.5681,-0.588,-0.5332,-0.4302,0.0,0.0,0.0,0.0,0.0,0.0,0.0,-1.5257,0.0,-0.9981,-0.9021,-0.8579,-0.8473,-0.9318,-1.0282,-1.1337,-1.2584,-1.397,-1.5449,-1.637,-1.7291,-1.8267,-1.8537,0.0,-1.8996,-1.8849,-1.8954,-1.934,0.0,0.0,0.0,0.0,0.0,0.0,0.0,-1.4939,0.0,0.0,0.0,-1.2395,-1.2319,-1.1608,-1.0635,-1.0586,-1.0221,-0.9628,-0.9087,-0.8905,-0.8927,-0.8989,-0.841,-0.761,-0.7267,-0.6265,-0.5116,-0.4361,-0.41,-0.4094,-0.4106,-0.4948,-0.5992,-0.6357,-0.7506,-0.8639,-0.9213,-1.0736,-1.2712,-1.5235,-1.6061,-1.6896,-1.8823,-1.8331,0.0,0.0,0.0,0.0,0.0,0.0,0.0,0.0,0.0,0.0,0.0,0.0,0.0,0.0,0.0,0.0,0.0,0.0,-0.558,0.0,0.0,0.0,0.0,0.0,0.0,-0.7723,-0.8103,-0.8103,-0.7777,-0.848,-0.8586,-0.8268,-0.8646,-0.8586,-0.8262,-0.783,-0.7509,-0.7139,-0.6869,-0.6585,-0.6349,-0.6383,-0.5901,-0.5027,0.0,-1.9219,0.0,0.0,-1.9445,0.0,-1.8837,-1.8299,-1.6504,-1.2494,-1.1506,-1.107,-1.0875,-1.1844,-1.2897,-1.3891,-1.5203,-1.6241,-1.691,-1.7864,-1.8467,-1.8655,-1.9026,-1.9225,-1.9274,-1.9287,-1.9604,0.0,0.0,0.0,0.0,0.0,0.0,0.0,0.0,0.0,0.0,0.0,-1.4644,-1.4313,-1.4261,-1.3334,-1.1972,-1.2054,-1.1634,-1.081,-0.9825,-0.9513,-0.937,-0.8593,-0.7911,-0.7192,-0.6511,-0.5177,-0.3727,-0.3039,-0.2224,-0.1643,-0.2128,-0.2511,-0.2882,-0.3365,-0.4068,-0.461,-0.4715,-0.6778,-0.9427,-1.2436,-1.5233,-1.7807,-1.9908,-1.9778,0.0,0.0,0.0,0.0,0.0,0.0,0.0,0.0,0.0,0.0,0.0,0.0,0.0,0.0,0.0,0.0,-0.5923,0.0,0.0,0.0,0.0,-0.7289,-0.7723,0.0,-0.8209,-0.8804,-0.8804,-0.8804,-0.8804,-0.8804,-0.8804,-0.8804,-0.8804,-0.8804,-0.8752,-0.8156,-0.7943,-0.7883,-0.7289,-0.7078,-0.7048,-0.6918,-0.6512,-0.5796,0.0,0.0,0.0,0.0,0.0,0.0,-1.9781,-1.9511,-1.8485,-1.618,-1.4927,-1.4198,-1.3993,-1.4308,-1.4805,-1.5533,-1.6109,-1.7011,-1.8396,-1.859,-1.9029,-1.9796,-1.9886,-1.9982,-2.0173,-2.0173,-2.0192,0.0,0.0,0.0,0.0,0.0,0.0,0.0,0.0,0.0,0.0,-1.669,-1.6168,-1.5982,-1.6028,-1.5307,-1.4127,-1.3597,-1.3086,-1.2368,-1.0496,-0.9833,-0.9452,-0.7499,-0.6504,-0.6066,-0.5413,-0.3841,-0.2078,-0.1491,-0.0706,-0.0053,-0.0219,0.0691,0.1644,0.1484,0.1351,0.1194,0.0706,-0.2506,-0.6418,-1.0126,-1.5698,-1.9993,-2.0265,-2.0583,-2.0534,0.0,0.0,0.0,0.0,0.0,0.0,0.0,0.0,0.0,0.0,-0.648,0.0,0.0,-0.6799,0.0,0.0,0.0,0.0,-0.7503,0.0,-0.8315,-0.7723,-0.8374,-0.8752,-0.8804,-0.8804,-0.8804,-0.8804,-0.8804,-0.8804,-0.8804,-0.8804,-0.8804,-0.8804,-0.8699,-0.8699,-0.8699,-0.8646,-0.8168,-0.762,-0.7755,-0.7262,-0.643,0.0,0.0,0.0,0.0,0.0,0.0,0.0,-2.0045,-1.9656,-1.8734,-1.7689,-1.6787,-1.6096,-1.6634,-1.7108,-1.7291,-1.7881,-1.85,-1.9077,-1.9354,-1.9647,-1.9984,-2.0115,-2.023,-2.0306,-2.0302,-2.0539,0.0,0.0,0.0,0.0,0.0,0.0,0.0,0.0,-1.8274,-1.8924,-1.7647,-1.7685,-1.8477,-1.7117,-1.6504,-1.636,-1.5032,-1.4078,-1.3239,-1.148,-1.01,-0.8859,-0.6947,-0.6032,-0.5349,-0.3321,-0.2111,-0.1149,0.0444,0.0828,0.1038,0.2249,0.3326,0.4303,0.502,0.5502,0.5922,0.6255,0.3635,0.0092,-0.3513,-1.1222,-1.7464,-1.7712,-1.9492,-2.0863,0.0,0.0,0.0,0.0,0.0,0.0,0.0,0.0,0.0,0.0,0.0,-0.7711,0.0,0.0,0.0,0.0,0.0,0.0,-0.7723,0.0,-0.8844,-0.8981,-0.8844,-0.9008,-0.9413,-0.9008,-0.8804,-0.8804,-0.9211,-0.9614,-1.0012,-1.0012,-0.9762,-0.9413,-0.9413,-0.9159,-0.8804,-0.8804,-0.8646,-0.8387,-0.8435,-0.7913,-0.7139,-1.9014,0.0,-1.9694,0.0,-2.0191,-2.0247,-2.0287,-2.0309,-2.0266,-2.0172,-1.9559,-1.879,-1.7897,-1.8322,-1.8652,-1.8623,-1.9092,-1.9462,-1.9582,-1.9844,-2.0022,-2.0097,-2.0214,0.0,-2.0292,-2.0302,-2.0609,-2.1252,-2.0609,0.0,0.0,0.0,0.0,0.0,-1.8607,-1.8841,-1.96,-1.8365,-1.8671,-1.9767,-1.8007,-1.7505,-1.7608,-1.6162,-1.5069,-1.4029,-1.2269,-1.0569,-0.8769,-0.651,-0.516,-0.4056,-0.1679,-0.0545,0.0275,0.1778,0.2284,0.2717,0.4222,0.5717,0.7172,0.8329,0.938,1.0491,1.1647,0.9554,0.6297,0.2446,-0.4664,-1.112,-1.4292,-1.6573,-1.8796,-2.1429,0.0,0.0,0.0,0.0,0.0,0.0,-0.8171,-0.7783,-0.9186,-0.8775,0.0,0.0,0.0,0.0,0.0,0.0,0.0,0.0,0.0,0.0,-1.0064,-0.9614,-0.9614,-1.0064,-0.9413,-0.9106,-0.9106,-0.9562,-1.0064,-1.0517,-1.0712,-1.0517,-1.0064,-0.9865,-0.951,-0.9061,-0.8857,-0.8804,-0.8804,-0.8804,-0.848,-0.7883,-1.8788,-1.9169,-1.9621,-2.0036,-2.0213,-2.0295,-2.0293,-2.0293,-2.0293,-2.0293,-2.0349,-2.0146,-1.9539,-1.9188,-1.9088,-1.9345,-1.9391,-1.9582,-1.9974,-2.0012,-2.0078,0.0,0.0,-2.0299,-2.0307,-2.0307,-2.0346,-2.0406,0.0,0.0,-2.01,0.0,-1.9339,-1.9569,-1.8895,-1.89,-1.9377,-1.8881,-1.8943,-1.9263,-1.8908,-1.8299,-1.7533,-1.683,-1.6013,-1.4878,-1.2766,-1.1226,-0.9651,-0.6007,-0.3582,-0.1882,-0.089,0.0788,0.2446,0.2263,0.3721,0.542,0.5375,0.797,1.0822,1.1465,1.3172,1.5038,1.6651,1.482,1.1433,0.6538,0.375,-0.0724,-1.0294,-1.16,-1.3694,-2.1253,0.0,0.0,0.0,0.0,0.0,0.0,-0.9947,-0.924,-1.0646,-1.0401,0.0,0.0,0.0,0.0,0.0,0.0,0.0,-0.9762,-0.9762,0.0,-1.0762,-1.0762,-1.0762,-1.0762,-1.0115,-0.9762,-0.9762,-0.9814,-0.9814,-0.9865,-1.0517,-1.0813,-1.0762,-1.0064,-0.9814,-0.971,-0.9061,-0.8804,-0.8804,-0.8804,-0.8804,-0.8586,-1.7942,-1.8606,-1.939,-1.989,-2.0186,-2.0344,-2.0307,-2.0298,-2.0298,-2.0298,-2.0314,-2.0273,-2.012,-1.998,-1.9878,0.0,-1.9925,-2.0069,0.0,-2.0205,-1.9972,-1.9446,-1.9415,-1.9141,-1.8532,-1.9148,-1.9491,-1.9517,0.0,0.0,0.0,-1.9905,-1.9741,-1.9713,-1.9231,-1.9326,-1.9823,-1.8976,-1.9291,-2.0217,-1.8869,-1.8626,-1.8963,-1.7535,-1.6454,-1.548,-1.4079,-1.1614,-0.8676,-0.634,-0.3318,-0.0105,0.2031,0.2868,0.3433,0.5309,0.6313,0.7216,0.9177,1.1402,1.3366,1.4165,1.5416,1.6847,1.8347,1.7019,1.4664,1.1778,0.5963,-0.0597,-0.7064,-1.3398,-1.8588,-2.1477,-2.0426,0.0,0.0,0.0,0.0,0.0,-1.0805,-1.0466,0.0,-1.0956,0.0,0.0,0.0,0.0,0.0,0.0,0.0,0.0,-1.0466,0.0,-1.1466,-1.1015,-1.0813,-1.0813,-1.0115,-1.0064,-1.0466,-1.0466,-1.1032,-1.1909,-1.2157,-1.194,-1.1466,-1.1266,-1.0914,-1.0415,-0.9762,-0.9465,-0.9413,-0.8962,-0.8804,-0.8593,-1.7417,-1.8234,-1.9142,-1.9632,-2.0014,-2.025,-2.0283,-2.0302,-2.0296,-2.0307,-2.0324,-2.035,-2.039,-2.036,0.0,-2.0134,-2.0238,-2.0312,-2.0312,-2.0312,-2.0062,-1.9511,-1.9492,-1.9088,-1.8203,-1.8751,0.0,-1.9066,-1.9896,-2.0294,-2.0304,-2.0087,-1.9963,-1.9869,-1.9569,-1.9627,-1.9934,-1.921,-1.9596,-2.055,-1.8977,-1.8885,-1.9497,-1.8082,-1.6991,-1.6069,-1.505,-1.2207,-0.8674,-0.6749,-0.2916,0.1484,0.3964,0.5324,0.639,0.7909,0.8494,0.9192,1.1659,1.3478,1.4917,1.568,1.6617,1.7733,1.9361,1.9294,1.8484,1.7122,1.2162,0.595,-0.1051,-0.8518,-1.5496,-2.116,-2.0547,-1.9206,-1.8792,0.0,0.0,0.0,0.0,0.0,0.0,-1.1786,-1.1572,0.0,0.0,0.0,0.0,0.0,0.0,-1.1166,-1.1408,0.0,-1.2187,-1.2012,-1.1814,-1.1584,-1.0872,-1.0669,-1.0813,-1.1065,-1.1683,-1.2501,-1.2774,-1.2501,-1.1765,-1.1516,-1.1015,-1.0364,-0.9666,-0.9413,-0.9361,-0.8956,-0.8804,-0.8593,-1.7228,-1.8081,0.0,0.0,-1.9749,0.0,-2.0277,-2.0312,-2.0304,-2.0301,-2.0352,-2.0405,-2.041,-2.0402,-2.0366,-2.0319,0.0,0.0,0.0,-2.0312,-2.0273,-2.0215,-2.0215,-1.9792,-1.8934,-1.8965,-1.9035,-1.9092,-1.99,-2.0312,-2.0304,-2.0115,-2.0022,-1.9984,-1.9869,-1.9802,-1.9778,-1.9538,-1.9824,-2.0352,-1.9308,-1.9093,-1.9312,-1.8496,-1.7586,-1.6655,-1.571,-1.2977,-0.9467,-0.7263,-0.2603,0.2711,0.4861,0.791,1.054,0.9973,1.0382,1.1421,1.3171,1.4596,1.5745,1.6341,1.7008,1.8003,1.9812,2.1419,2.2333,2.1746,2.0677,1.6749,0.6413,0.0863,-0.662,-2.027,-2.0777,-1.9412,-1.9361,0.0,0.0,0.0,0.0,0.0,0.0,-1.2809,-1.2441,0.0,0.0,0.0,0.0,0.0,-1.1308,-1.2003,-1.2628,-1.2948,-1.2968,-1.3505,-1.3457,-1.2822,-1.208,-1.1416,-1.0914,-1.1516,-1.1814,-1.1922,-1.2559,-1.2452,-1.1765,-1.1065,-1.0415,-0.9814,-0.9106,-0.8857,-0.8857,-0.8804,-0.8752,-0.8533,0.0,0.0,-1.9,-1.9601,-1.9882,-2.0069,-2.0277,-2.0312,-2.0304,-2.0301,-2.0352,-2.0405,-2.041,-2.0402,-2.0366,-2.0319,-2.0306,-2.0312,-2.0312,-2.0312,-2.0004,-1.9338,-1.9319,-1.8895,-1.803,-1.8665,-1.9331,-1.9996,-2.0196,-2.0312,-2.0304,-2.0249,-2.0152,-2.0012,-1.9973,-1.9901,-1.9809,-1.9736,-1.9806,-1.9932,-1.9663,-1.9499,-1.9372,-1.9057,-1.8393,-1.7495,-1.6563,-1.3845,-1.0333,-0.7849,-0.3571,0.1452,0.5572,0.8463,1.0567,1.1722,1.3091,1.4586,1.5879,1.6842,1.7491,1.7612,1.8618,1.9597,1.9749,2.1189,2.1789,1.9277,1.874,1.5588,0.533,-0.0991,-0.8095,-1.8612,-1.8897,-1.83,-1.9782,-1.7611,0.0,0.0,-1.3127,-1.2648,-1.3094,-1.288,-1.2773,0.0,0.0,0.0,0.0,-1.3112,-1.3358,-1.3971,-1.4168,-1.4039,-1.36,-1.3732,-1.3188,-1.203,-1.1366,-1.1216,-1.1566,-1.1715,-1.2129,-1.2608,-1.2236,-1.1972,-1.1765,-1.1065,-1.072,-1.0517,-0.9814,-0.9562,-0.951,-0.9008,-0.8427,-0.786,-1.7359,-1.8163,-1.8984,-1.9513,-1.9842,-2.0069,-2.0277,-2.0312,-2.0306,-2.0346,-2.037,-2.0411,-2.0447,-2.0411,-2.0366,-2.0319,-2.0306,-2.0312,-2.0312,-2.0312,-2.01,-1.96,-1.9581,-1.9184,-1.8318,-1.8761,-1.9223,-1.9715,-2.0106,-2.0301,-2.0301,-1.9928,-1.9903,-2.0159,-1.9347,-1.9396,-2.0049,-1.9657,-1.9715,-2.006,-1.9983,-1.9848,-1.9706,-1.9544,-1.8977,-1.8155,-1.7366,-1.4718,-1.1126,-0.8437,-0.3672,0.1841,0.5727,0.9406,1.2611,1.4109,1.5191,1.6211,1.782,1.8166,1.8201,1.8637,2.0045,2.1221,2.0772,2.1464,2.1695,1.975,1.8068,1.5247,0.9632,0.1775,-0.6637,-1.516,-1.6908,-1.7994,-2.0305,-1.8377,0.0,-1.4801,-1.3873,-1.3334,-1.3334,-1.3055,-1.2881,-1.2881,-1.2881,0.0,-1.3286,-1.3637,-1.3956,-1.4283,-1.4824,-1.4687,-1.3815,-1.3552,-1.3025,-1.2295,-1.194,-1.194,-1.2295,-1.2295,-1.251,-1.2881,-1.2501,-1.1931,-1.1316,-1.0965,-1.0415,-0.9865,-0.9465,-0.9361,-0.9256,-0.858,-0.8049,-0.758,-1.7188,-1.8061,-1.8919,-1.9383,-1.9741,-2.0069,-2.0277,-2.03,-2.0314,-2.0394,-2.041,-2.0421,-2.0471,-2.0435,-2.0361,-2.032,-2.0299,-2.0312,-2.0312,-2.0312,-2.0312,-2.0312,-2.0312,-1.9946,-1.9203,-1.9203,-1.9134,-1.9013,-1.9877,-2.0313,-2.0311,-1.9623,-1.9624,-2.0134,-1.878,-1.8877,-1.9978,-1.9508,-1.9644,-2.0204,-2.0153,-2.0145,-2.0108,-1.9925,-1.9417,-1.8726,-1.81,-1.5349,-1.1593,-0.8887,-0.3396,0.2829,0.5741,1.0283,1.4931,1.6528,1.7006,1.7477,1.9468,1.9413,1.8889,1.9451,2.1105,2.2475,2.1861,2.1799,2.1662,2.0892,1.8042,1.5531,1.4888,0.5836,-0.3999,-1.1666,-1.5375,-1.8215,-2.0841,0.0,-1.6905,-1.5828,-1.4584,-1.3815,-1.3815,-1.3238,-1.2881,-1.2881,-1.2881,-1.3104,-1.3647,-1.3732,-1.3815,-1.3815,-1.4858,-1.4903,-1.3815,-1.32,-1.2881,-1.2881,-1.2881,-1.2881,-1.2881,-1.2881,-1.2881,-1.2881,-1.2774,-1.1999,-1.0813,-1.0712,-0.9917,-0.8804,-0.8804,-0.8752,-0.854,-0.7943,-0.7557,-0.7182,-1.7361,-1.8093,-1.8858,-1.9607,-1.9844,-2.0012,-2.0257,-2.0301,-2.0324,-2.0383,-2.041,-2.0408,-2.0399,-2.0414,-2.0366,-2.0311,-2.03,-2.0312,-2.0312,-2.0312,-2.0312,-2.0312,-2.0312,-2.0235,-2.01,-2.01,-1.9771,-1.9076,-1.9901,-2.0322,-2.0379,-2.0266,-1.9881,-1.9309,-1.978,-1.9329,-1.829,-1.9624,-1.9842,-1.9368,-2.0079,-2.0313,-2.0244,-2.01,-1.9749,-1.9202,-1.8485,-1.5189,-1.0877,-0.8966,-0.3495,0.3102,0.6264,1.021,1.4324,1.7473,1.9124,2.0209,2.1466,2.1853,2.1528,1.9994,2.1154,2.2361,2.1165,2.1311,2.112,1.8945,1.7997,1.6692,1.3768,0.6202,-0.2536,-1.1441,-1.561,-1.8652,-2.1405,0.0,-1.7357,-1.6409,-1.4801,-1.3815,-1.3815,-1.3238,-1.2881,-1.2881,-1.2881,-1.2929,-1.3017,-1.3505,-1.3815,-1.3815,-1.4468,-1.4514,-1.3826,-1.32,-1.2881,-1.2881,-1.2881,-1.2881,-1.2881,-1.2881,-1.2881,-1.2881,-1.2236,-1.1516,-1.0762,-1.0167,-0.951,-0.8804,-0.8804,-0.8427,-0.783,-0.7723,-0.6902,-0.5837,-1.7764,-1.8235,-1.8854,-1.9657,-1.9973,-2.0159,-2.0285,-2.0311,-2.0328,-2.0398,-2.0373,-2.0364,-2.0409,-2.0361,-2.0338,-2.03,-2.0312,-2.0312,-2.0312,-2.0312,-2.0312,-2.0312,-2.0312,-2.0296,-2.0308,-2.0308,-2.0119,-1.9756,-2.0149,-2.0133,-1.9702,-1.9707,-1.9258,-1.8457,-1.8379,-1.8164,-1.791,-1.8711,-1.9081,-1.9233,-2.0064,-2.0394,-2.041,-2.0293,-2.0087,-1.9745,-1.9077,-1.7012,-1.3709,-0.7914,-0.3227,0.1429,0.8238,1.2406,1.5325,1.801,2.0134,2.1515,2.1299,2.2098,2.2573,2.0668,1.9399,1.8445,1.7829,1.9147,2.022,1.9132,1.8096,1.6963,1.5596,0.6854,-0.2565,-1.0022,-1.5759,0.0,0.0,-2.0373,-1.845,-1.6963,-1.5842,-1.4835,-1.3909,-1.3552,-1.3238,-1.2929,-1.2881,-1.2715,-1.2344,-1.2939,-1.2967,-1.219,-1.3511,-1.4097,-1.3815,-1.32,-1.2881,-1.2881,-1.2881,-1.2881,-1.2881,-1.2881,-1.2881,-1.2881,-1.2559,-1.1783,-1.0762,-1.0466,-0.9496,-0.8209,-0.8209,-0.7777,-0.7074,-0.6686,-0.6086,-0.5445,-1.804,-1.8389,-1.8899,-1.9657,-2.0041,-2.0254,-2.0312,-2.0308,-2.0328,-2.0398,-2.0363,-2.0348,-2.0386,-2.0347,-2.0314,-2.03,-2.0312,-2.0312,-2.0312,-2.0312,-2.0312,-2.0312,-2.0289,-2.0205,-2.0032,-2.0206,-2.0204,-2.0015,-2.0254,-2.0033,-1.9409,-1.9393,-1.8951,-1.8147,-1.7462,-1.7303,-1.755,-1.7727,-1.8082,-1.8646,-1.9657,-2.0117,-2.0219,-2.0355,-2.032,-2.0134,-1.9591,-1.8433,-1.5951,-0.8486,-0.3655,0.0767,0.9734,1.4241,1.6577,1.8427,2.0527,2.2114,2.1374,2.2269,2.2666,1.9638,1.6709,1.4751,1.5285,1.714,1.8879,1.9249,1.8087,1.6574,1.5151,0.6098,-0.3382,-1.0141,0.0,0.0,0.0,-2.1271,-1.9511,-1.7714,-1.6863,-1.5772,-1.4179,-1.3862,-1.3552,-1.2978,-1.2881,-1.2559,-1.1814,-1.251,-1.2304,-1.1065,-1.2541,-1.3331,-1.3331,-1.3045,-1.2881,-1.2881,-1.2881,-1.2881,-1.2881,-1.2881,-1.2881,-1.2881,-1.2725,-1.194,-1.0762,-1.045,-0.9266,-0.767,-0.7503,-0.7015,-0.6258,-0.5706,-0.5378,-0.5218,-1.7937,-1.8463,-1.9,-1.9688,-1.9974,-2.0165,-2.0273,-2.0308,-2.0311,-2.0383,-2.0395,-2.0393,-2.039,-2.0406,-2.0376,-2.0308,-2.0312,-2.0312,-2.0312,-2.0312,-2.0312,-2.0312,-2.0295,-1.9939,-1.9199,-1.9918,-1.9938,-1.9195,-1.9942,-2.0319,-2.0297,-2.0294,-1.9842,-1.9018,-1.8876,-1.7956,-1.6561,-1.7233,-1.7171,-1.6747,-1.8425,-1.9185,-1.9373,-2.0116,-2.0316,-2.016,-1.988,-1.7844,-1.4967,-1.2854,-0.5718,0.3333,0.9477,1.4033,1.738,1.8766,2.0491,2.217,2.3182,2.3438,2.1802,1.5122,1.3273,1.3619,1.5755,1.6376,1.6833,1.7922,1.7728,1.534,0.862,0.2294,-0.4911,-1.4051,0.0,0.0,-2.3134,-2.1755,-2.0151,-1.8823,-1.7329,-1.5947,-1.4744,-1.4143,-1.3552,-1.2978,-1.2881,-1.2559,-1.1814,-1.251,-1.2559,-1.1765,-1.1864,-1.1963,-1.1963,-1.2559,-1.2881,-1.2881,-1.2881,-1.2881,-1.2881,-1.2881,-1.2881,-1.2871,-1.2187,-1.1466,-1.0712,-0.9408,-0.8383,-0.7616,-0.6966,-0.6253,-0.5597,-0.5542,-0.5109,-0.457,-1.8284,-1.8626,-1.9006,-1.9688,-1.9943,-2.0096,-2.0277,-2.0304,-2.0321,-2.0398,-2.0357,-2.0347,-2.0409,-2.0357,-2.0332,-2.03,-2.0312,-2.0296,-2.0295,-2.0302,-2.0302,-2.0302,-2.0303,-1.9943,-1.9175,-1.9902,-1.984,-1.8905,-1.9763,-1.9593,-1.849,-1.9027,-1.8298,-1.6514,-1.6999,-1.6548,-1.5525,-1.6308,-1.6493,-1.6419,-1.8119,-1.8919,-1.9155,-1.9977,-2.0236,-2.0165,-1.9906,-1.8982,-1.7049,-1.1549,-0.7255,-0.2489,0.7476,1.2928,1.5986,1.7752,1.9318,2.0603,2.1131,2.1466,2.0946,1.786,1.6397,1.3999,0.7635,1.106,1.4675,1.1551,1.0378,0.826,0.2943,-0.34,-1.0714,-1.9597,0.0,-2.3784,-2.3508,-2.231,-2.0875,-1.9349,-1.785,-1.6311,-1.4835,-1.4143,-1.3552,-1.2978,-1.2881,-1.2412,-1.1266,-1.0677,-1.0431,-1.0568,-1.0568,-1.0762,-1.1166,-1.1484,-1.1783,-1.2236,-1.2236,-1.2452,-1.2881,-1.2881,-1.2666,-1.2187,-1.1922,-1.1166,-1.0115,-0.9103,-0.8059,-0.6966,-0.6199,-0.5492,-0.4897,-0.4897,-0.4732,-0.4519,-1.8423,-1.8789,-1.9104,-1.9688,-1.9909,-2.0079,-2.0269,-2.0312,-2.032,-2.0394,-2.036,-2.0365,-2.0425,-2.0383,-2.0351,-2.0328,-2.0321,-2.032,-2.0294,-2.0294,-2.0305,-2.0329,-2.0313,-2.0039,-1.9489,-1.9987,-1.9735,-1.8737,-1.9339,-1.8848,-1.7349,-1.7935,-1.7272,-1.5602,-1.5856,-1.5637,-1.5071,-1.5301,-1.5507,-1.5759,-1.7377,-1.8209,-1.8608,-1.9591,-1.9995,-1.999,-1.9807,-1.9478,-1.8268,-1.2646,-0.9141,-0.5357,0.4919,1.1025,1.4716,1.6445,1.7868,1.9014,1.94,2.0242,2.082,1.9905,1.753,1.3577,0.669,0.8771,1.059,0.5233,0.2802,0.0422,-0.3576,-1.0287,-1.7247,-2.3408,-2.4686,-2.461,-2.3768,-2.2652,-2.1269,-1.9602,-1.8096,-1.6553,-1.4869,-1.4143,-1.3552,-1.2978,-1.2881,-1.2461,-1.1484,-0.9969,-0.9413,-1.0115,-0.9614,-0.9664,-1.0306,-1.0856,-1.1475,-1.2129,-1.2129,-1.2403,-1.2881,-1.2881,-1.251,-1.1765,-1.1566,-1.0864,-0.971,-0.8534,-0.7481,-0.6534,-0.5546,-0.4893,-0.4519,-0.4519,-0.4519,-0.4519,-1.8321,-1.8928,-1.9317,-1.9731,-1.9912,-2.0069,-2.0277,-2.0312,-2.032,-2.0394,-2.041,-2.0438,-2.0495,-2.0508,-2.0477,-2.0414,-2.0391,-2.0373,-2.0291,-2.0291,-2.0321,-2.0391,-2.0324,-2.0239,-2.0096,-2.0088,-1.9598,-1.8585,-1.8585,-1.818,-1.7378,-1.7378,-1.7262,-1.7023,-1.6107,-1.5575,-1.5329,-1.4328,-1.4082,-1.4517,-1.5923,-1.6854,-1.7551,-1.8939,-1.952,-1.9583,-1.9583,-1.8941,-1.799,-1.7382,-1.1505,-0.3513,0.1976,0.827,1.3887,1.4959,1.6294,1.7622,1.8562,2.0315,2.1494,2.0081,1.5321,1.1884,1.5481,1.0713,0.4282,-0.0327,-0.4058,-0.7529,-1.1095,-1.8236,-2.3903,-2.4924,-2.4977,-2.4648,-2.3897,-2.2705,-2.1269,-1.9602,-1.8096,-1.6553,-1.4869,-1.4143,-1.3552,-1.2978,-1.2881,-1.2881,-1.2881,-1.0931,-1.0108,-1.0762,-0.9256,-0.8657,-0.9188,-1.0929,-1.2129,-1.2871,-1.2871,-1.2881,-1.2881,-1.2881,-1.251,-1.1765,-1.1116,-1.0415,-0.9651,-0.7486,-0.6642,-0.648,-0.5062,-0.4519,-0.4519,-0.4519,-0.4519,-0.4519,-1.8069,-1.8551,-1.8993,-1.9676,-1.9836,-1.9962,-2.0241,-2.0312,-2.032,-2.0394,-2.041,-2.0408,-2.0429,-2.0428,-2.0407,-2.0345,-2.0325,-2.0311,-2.0291,-2.0296,-2.0303,-2.032,-2.0225,-1.9845,-1.9203,-1.9659,-1.9117,-1.755,-1.8031,-1.7466,-1.5993,-1.5853,-1.5451,-1.4841,-1.4558,-1.4401,-1.4328,-1.403,-1.3952,-1.415,-1.5124,-1.6022,-1.6885,-1.7849,-1.8422,-1.8661,-1.8478,-1.7797,-1.6785,-1.5551,-1.2961,-0.8765,-0.0412,0.7299,1.301,1.2072,1.1295,1.1815,1.6721,1.7587,1.7899,2.0997,1.9341,1.6389,1.4398,0.8269,0.0898,-0.6533,-0.9935,-1.2575,-1.5801,-1.949,-2.2593,-2.4271,-2.4749,-2.4593,-2.3708,-2.2593,-2.1269,-1.9602,-1.7714,-1.6089,-1.4824,-1.3789,-1.3104,-1.2929,-1.1999,-1.1434,-1.1434,-0.9756,-0.8889,-0.9084,-0.8406,-0.8338,-0.8984,-0.9399,-1.0337,-1.1713,-1.1713,-1.212,-1.2881,-1.2881,-1.251,-1.1765,-1.1566,-1.1116,-1.0364,-0.8731,-0.8053,-0.7894,-0.5968,-0.5218,-0.5164,-0.468,-0.4125,-0.3677,-1.7783,-1.8246,-1.8735,-1.9443,-1.9657,-1.9816,-2.0069,-2.0162,-2.0215,-2.0266,-2.0323,-2.0371,-2.0394,-2.0398,-2.0378,-2.0339,-2.0311,-2.0294,-2.0308,-2.0291,-2.0262,-2.0169,-2.0054,-1.9735,-1.9219,-1.9541,-1.8945,-1.7339,-1.7444,-1.6733,-1.5225,-1.4819,-1.4309,-1.3766,-1.3691,-1.3632,-1.3539,-1.3425,-1.3489,-1.375,-1.4607,-1.5453,-1.628,-1.7169,-1.7552,-1.7556,-1.74,-1.6612,-1.5497,-1.439,-1.2805,-0.9944,-0.2321,0.3931,0.8452,0.8297,0.6578,0.4915,0.543,0.8225,1.1403,1.3246,1.6976,1.8384,1.1297,0.5624,-0.0826,-1.0569,-1.3092,-1.4667,-1.8245,-2.0448,-2.2239,-2.3839,-2.4544,-2.4543,-2.3519,-2.2526,-2.1124,-1.9046,-1.7328,-1.5819,-1.4508,-1.346,-1.2881,-1.2881,-1.1841,-1.1216,-1.1216,-0.9657,-0.8806,-0.8806,-0.8106,-0.8013,-0.8648,-0.8602,-0.9468,-1.1284,-1.1481,-1.2186,-1.3238,-1.3017,-1.2647,-1.2199,-1.1913,-1.1416,-1.0712,-0.9555,-0.8933,-0.8521,-0.6972,-0.5964,-0.5433,-0.5058,-0.4229,-0.3287,-1.7392,-1.7973,-1.8502,-1.9052,-1.9387,-1.9617,-1.9786,-1.9903,-2.0021,-2.0092,-2.0225,-2.0316,-2.0374,-2.0383,-2.0398,-2.0394,-2.0341,-2.0301,-2.0301,-2.0272,-2.0197,-2.0012,-1.9858,-1.9786,-1.9786,-1.9643,-1.8974,-1.7738,-1.6962,-1.6046,-1.4998,-1.4223,-1.3736,-1.3539,-1.3345,-1.3158,-1.2942,-1.2687,-1.2871,-1.3394,-1.4249,-1.5023,-1.5748,-1.6652,-1.6743,-1.6374,-1.6307,-1.5456,-1.4265,-1.3579,-1.1464,-0.8383,-0.4168,-0.1218,0.1209,0.386,0.2242,-0.2264,-1.0647,-0.4526,0.3324,-0.0372,0.9161,1.6854,0.694,0.3017,-0.1624,-1.2641,-1.4031,-1.4581,-1.8863,-2.0973,-2.2408,-2.3525,-2.4243,-2.4264,-2.3155,-2.2198,-2.0695,-1.8179,-1.6823,-1.5526,-1.4103,-1.3325,-1.2881,-1.2822,-1.2138,-1.1665,-1.1616,-1.0138,-0.932,-0.9291,-0.8154,-0.7719,-0.8136,-0.8253,-0.9366,-1.137,-1.1864,-1.2666,-1.3684,-1.3152,-1.289,-1.2783,-1.2159,-1.1516,-1.0805,-1.0105,-0.9386,-0.8731,-0.7823,-0.6709,-0.5597,-0.5433,-0.4498,-0.3176,-1.6405,-1.7169,-1.8055,-1.8696,-1.9081,-1.9392,-1.9743,-1.9903,-2.0021,-2.0092,-2.0225,-2.0319,-2.0311,-2.0316,-2.0313,-2.032,-2.0318,-2.0304,-2.0304,-2.015,-2.006,-1.9993,-1.9774,-1.9649,-1.9649,-1.9452,-1.8934,-1.8005,-1.6967,-1.5989,-1.5059,-1.3998,-1.3379,-1.3123,-1.3086,-1.2926,-1.2668,-1.263,-1.2954,-1.3545,-1.3764,-1.4358,-1.5193,-1.5386,-1.5423,-1.5286,-1.4919,-1.4443,-1.3749,-1.2071,-1.0447,-0.8914,-0.7341,-0.6668,-0.5454,-0.0393,-0.1314,-0.5321,-1.1454,-0.6517,-0.1376,-0.8704,-0.2958,0.446,0.4327,0.1198,-0.4217,-1.3011,-1.4299,-1.4949,-1.8631,-2.0152,-2.1344,-2.2782,-2.2846,-2.2407,-2.1516,-2.0247,-1.899,-1.7946,-1.5865,-1.4512,-1.4519,-1.3558,-1.2666,-1.208,-1.1416,-1.0762,-1.0261,-0.922,-0.8504,-0.8215,-0.7943,-0.7477,-0.682,-0.8003,-0.9388,-1.0922,-1.1278,-1.1997,-1.3104,-1.2968,-1.2871,-1.2852,-1.2715,-1.2246,-1.1516,-1.0847,-1.0143,-0.9384,-0.7534,-0.6632,-0.6204,-0.5117,-0.3732,-0.2174,-1.6233,-1.6712,-1.7361,-1.8086,-1.861,-1.9028,-1.9372,-1.9524,-1.9668,-1.9844,-2.0028,-2.0165,-2.0165,-2.0241,-2.0306,-2.0292,-2.0312,-2.0269,-2.0161,-2.006,-1.9934,-1.9813,-1.9669,-1.9513,-1.9323,-1.9214,-1.8883,-1.8333,-1.7053,-1.604,-1.5315,-1.387,-1.3138,-1.2995,-1.2738,-1.2439,-1.2153,-1.2025,-1.2182,-1.2527,-1.2998,-1.3401,-1.3753,-1.4241,-1.4151,-1.3677,-1.319,-1.2618,-1.1962,-1.0908,-0.9843,-0.8938,-0.8822,-0.8849,-0.8357,-0.5297,-0.5908,-0.8318,-1.176,-0.9621,-0.7532,-1.2121,-0.9817,-0.587,-0.3703,-0.5024,-0.8276,-1.3703,-1.4356,-1.5052,-1.8464,-1.9862,-2.0877,-2.2006,-2.2239,-2.1907,-2.077,-1.9767,-1.8763,-1.7607,-1.5785,-1.4404,-1.3903,-1.3296,-1.2725,-1.2344,-1.1375,-1.0669,-1.0312,-0.8751,-0.7791,-0.7598,-0.7164,-0.6633,-0.6117,-0.6713,-0.7534,-0.8561,-0.9692,-1.0765,-1.1828,-1.1539,-1.1904,-1.2832,-1.2491,-1.1963,-1.1282,-1.0923,-1.001,-0.8626,-0.7522,-0.6676,-0.5928,-0.4827,-0.3282,-0.1339,-1.6192,-1.6381,-1.6701,-1.7478,-1.8118,-1.8641,-1.8949,-1.9111,-1.931,-1.9569,-1.9836,-1.9993,-1.9993,-2.0188,-2.0312,-2.0312,-2.0312,-2.0205,-2.0022,-1.9993,-1.9858,-1.9609,-1.9555,-1.9383,-1.9019,-1.8875,-1.8717,-1.8585,-1.7205,-1.6255,-1.5731,-1.4003,-1.3104,-1.2921,-1.2363,-1.1915,-1.1564,-1.1327,-1.1342,-1.1613,-1.2291,-1.2524,-1.2528,-1.3271,-1.2979,-1.207,-1.1439,-1.0525,-0.9672,-0.975,-0.9178,-0.8504,-0.9142,-0.9258,-0.9156,-0.9316,-0.9876,-1.0627,-1.1539,-1.2213,-1.264,-1.2649,-1.2932,-1.2951,-1.1823,-1.158,-1.2244,-1.4457,-1.4688,-1.5388,-1.8444,-1.9694,-2.0504,-2.1187,-2.1687,-2.1525,-2.0189,-1.9614,-1.8724,-1.7089,-1.5811,-1.4491,-1.3087,-1.2929,-1.2774,-1.2569,-1.1484,-1.0661,-1.0297,-0.8428,-0.728,-0.7132,-0.6363,-0.5814,-0.547,-0.5132,-0.5083,-0.5285,-0.6989,-0.8529,-0.9923,-0.9402,-1.0232,-1.2027,-1.1504,-1.0956,-1.0436,-1.0319,-0.9078,-0.7222,-0.6951,-0.6157,-0.4984,-0.4036,-0.2496,-0.0614,-1.5475,-1.5876,-1.6465,-1.7157,-1.7803,-1.843,-1.8931,-1.9111,-1.931,-1.9569,-1.9836,-1.9993,-1.9993,-2.0188,-2.0312,-2.0312,-2.0312,-2.0205,-2.0022,-1.9901,-1.9762,-1.9614,-1.9423,-1.9227,-1.9001,-1.833,-1.8177,-1.8585,-1.7535,-1.6814,-1.6441,-1.4738,-1.3512,-1.2727,-1.2057,-1.149,-1.1001,-1.0968,-1.1565,-1.2471,-1.2151,-1.2403,-1.2968,-1.269,-1.1962,-1.0962,-0.9983,-0.8629,-0.7402,-0.7893,-0.7662,-0.7404,-0.8399,-0.874,-0.8926,-0.982,-1.049,-1.0932,-1.0647,-1.1688,-1.2506,-1.1123,-1.185,-1.2898,-1.2704,-1.2989,-1.3689,-1.5111,-1.5918,-1.6872,-1.867,-1.9207,-1.9598,-2.0345,-2.021,-1.9692,-1.8868,-1.8189,-1.7352,-1.6137,-1.4851,-1.3839,-1.3115,-1.2969,-1.2412,-1.1174,-1.0914,-1.0041,-0.8237,-0.7841,-0.7244,-0.635,-0.646,-0.5756,-0.4282,-0.4396,-0.3652,-0.1947,-0.2236,-0.3965,-0.6998,-0.6907,-0.7703,-0.9162,-0.9059,-0.9013,-0.8926,-0.83,-0.7131,-0.5658,-0.4406,-0.3756,-0.3374,-0.133,-0.0389,0.0167,-1.5651,-1.599,-1.6354,-1.6903,-1.7539,-1.8121,-1.8489,-1.8735,-1.8963,-1.923,-1.9572,-1.9821,-1.988,-2.0125,-2.0312,-2.0312,-2.0312,-2.0205,-2.0022,-1.988,-1.9738,-1.9614,-1.9413,-1.9132,-1.8789,-1.8431,-1.7947,-1.7308,-1.6186,-1.5416,-1.4891,-1.3455,-1.2461,-1.1901,-1.1442,-1.102,-1.0605,-1.0605,-1.07,-1.0853,-1.0938,-1.0825,-1.0662,-1.0783,-1.0139,-0.9055,-0.8294,-0.7162,-0.6042,-0.627,-0.6626,-0.7174,-0.8504,-0.8736,-0.8703,-0.9859,-1.0437,-1.0656,-1.0376,-1.1072,-1.1713,-1.0979,-1.1343,-1.2043,-1.2549,-1.3487,-1.4639,-1.5906,-1.6618,-1.7432,-1.8754,-1.9251,-1.966,-2.0211,-2.0068,-1.9613,-1.8865,-1.8473,-1.7684,-1.6201,-1.5865,-1.5128,-1.3637,-1.3439,-1.2812,-1.1466,-1.1015,-1.0041,-0.833,-0.7492,-0.6699,-0.5845,-0.5171,-0.4467,-0.3698,-0.2914,-0.1906,-0.0688,-0.0633,-0.1629,-0.3568,-0.3991,-0.4912,-0.622,-0.6623,-0.6607,-0.6212,-0.5877,-0.4927,-0.3597,-0.2941,-0.2164,-0.1274,0.0111,0.1109,0.1994]},{"header":{"parameterUnit":"m.s-1","parameterCategory":1,"la1":30.6,"la2":28.766,"lo1":-90.7593,"lo2":-88.6598,"dy":0.0162,"dx":0.0183,"nx":116,"ny":114,"refTime":"2023-09-01T18:00:00:Z","depth":0,"parameterNumber":3,"parameterNumberName":"V-component_of_WINDS"},"data":[0.0,0.0,0.0,0.0,0.0,0.0,0.0,0.0,0.0,0.0,0.0,0.0,0.0,0.0,0.0,0.0,0.0,0.0,0.0,0.0,0.0,0.0,0.0,0.0,0.0,0.0,0.0,0.0,0.0,0.0,0.0,0.0,0.0,0.0,0.0,0.0,0.0,0.0,0.0,0.0,0.0,0.0,0.0,0.0,0.0,0.0,0.0,0.0,0.0,0.0,0.0,0.0,0.0,0.0,0.0,0.0,0.0,0.0,0.0,0.0,0.0,0.0,0.0,0.0,0.0,0.0,0.0,0.0,0.0,0.0,0.0,0.0,0.0,0.0,0.0,0.0,0.0,0.0,0.0,0.0,0.0,0.0,0.0,0.0,0.0,0.0,0.0,0.0,0.0,0.0,0.0,0.0,0.0,0.0,0.0,0.0,0.0,0.0,0.0,0.0,0.0,0.0,0.0,0.0,0.0,0.0,0.0,0.0,0.0,0.0,0.0,0.0,0.0,0.0,0.0,0.0,0.0,0.0,0.0,0.0,0.0,0.0,0.0,0.0,0.0,0.0,0.0,0.0,0.0,0.0,0.0,0.0,0.0,0.0,0.0,0.0,0.0,0.0,0.0,0.0,0.0,0.0,0.0,0.0,0.0,0.0,0.0,0.0,0.0,0.0,0.0,0.0,0.0,0.0,0.0,0.0,0.0,0.0,0.0,0.0,0.0,0.0,0.0,0.0,0.0,0.0,0.0,0.0,0.0,0.0,0.0,0.0,0.0,0.0,0.0,0.0,0.0,0.0,0.0,0.0,0.0,0.0,0.0,0.0,0.0,0.0,0.0,0.0,0.0,0.0,0.0,0.0,0.0,0.0,0.0,0.0,0.0,0.0,0.0,0.0,0.0,0.0,0.0,0.0,0.0,0.0,0.0,0.0,0.0,0.0,0.0,0.0,0.0,0.0,0.0,0.0,0.0,0.0,0.0,0.0,0.0,0.0,0.0,0.0,0.0,0.0,0.0,0.0,0.0,0.0,0.0,0.0,0.0,0.0,0.0,0.0,0.0,0.0,0.0,0.0,0.0,0.0,0.0,0.0,0.0,0.0,0.0,0.0,0.0,0.0,0.0,0.0,0.0,0.0,0.0,0.0,0.0,0.0,0.0,0.0,0.0,0.0,0.0,0.0,0.0,0.0,0.0,0.0,0.0,0.0,0.0,0.0,0.0,0.0,0.0,0.0,0.0,0.0,0.0,0.0,0.0,0.0,0.0,0.0,0.0,0.0,0.0,0.0,0.0,0.0,0.0,0.0,0.0,0.0,0.0,0.0,0.0,0.0,0.0,0.0,0.0,0.0,0.0,0.0,0.0,0.0,0.0,0.0,0.0,0.0,0.0,0.0,0.0,0.0,0.0,0.0,0.0,0.0,0.0,0.0,0.0,0.0,0.0,0.0,0.0,0.0,0.0,0.0,0.0,0.0,0.0,0.0,0.0,0.0,0.0,0.0,0.0,0.0,0.0,0.0,0.0,0.0,0.0,0.0,0.0,0.0,0.0,0.0,0.0,0.0,0.0,0.0,0.0,0.0,0.0,0.0,0.0,0.0,0.0,0.0,0.0,0.0,0.0,0.0,0.0,0.0,0.0,0.0,0.0,0.0,0.0,0.0,0.0,0.0,0.0,0.0,0.0,0.0,0.0,0.0,0.0,0.0,0.0,0.0,0.0,0.0,0.0,0.0,0.0,0.0,0.0,0.0,0.0,0.0,0.0,0.0,0.0,0.0,0.0,0.0,0.0,0.0,0.0,0.0,0.0,0.0,0.0,0.0,0.0,0.0,0.0,0.0,0.0,0.0,0.0,0.0,0.0,0.0,0.0,0.0,0.0,0.0,0.0,0.0,0.0,0.0,0.0,0.0,0.0,0.0,0.0,0.0,0.0,0.0,0.0,0.0,0.0,0.0,0.0,0.0,0.0,0.0,0.0,0.0,0.0,0.0,0.0,0.0,0.0,0.0,0.0,0.0,0.0,0.0,0.0,0.0,0.0,0.0,0.0,0.0,0.0,0.0,0.0,0.0,0.0,0.0,0.0,0.0,0.0,0.0,0.0,0.0,0.0,0.0,0.0,0.0,0.0,0.0,0.0,0.0,0.0,0.0,0.0,0.0,0.0,0.0,0.0,0.0,0.0,0.0,0.0,0.0,0.0,0.0,0.0,0.0,0.0,0.0,0.0,0.0,0.0,0.0,0.0,0.0,0.0,0.0,0.0,0.0,0.0,0.0,0.0,0.0,0.0,0.0,0.0,0.0,0.0,0.0,0.0,0.0,0.0,0.0,0.0,0.0,0.0,0.0,0.0,0.0,0.0,0.0,0.0,0.0,0.0,0.0,0.0,0.0,0.0,0.0,0.0,0.0,0.0,0.0,0.0,0.0,0.0,0.0,0.0,0.0,0.0,0.0,0.0,0.0,0.0,0.0,0.0,0.0,0.0,0.0,0.0,0.0,0.0,0.0,0.0,0.0,0.0,0.0,0.0,0.0,0.0,0.0,0.0,0.0,0.0,0.0,0.0,0.0,0.0,0.0,0.0,0.0,0.0,0.0,0.0,0.0,0.0,0.0,0.0,0.0,0.0,0.0,0.0,0.0,0.0,0.0,0.0,0.0,0.0,0.0,0.0,0.0,0.0,0.0,0.0,0.0,0.0,0.0,0.0,0.0,0.0,0.0,0.0,0.0,0.0,0.0,0.0,0.0,0.0,0.0,0.0,0.0,0.0,0.0,0.0,0.0,0.0,0.0,0.0,0.0,0.0,0.0,0.0,0.0,0.0,0.0,0.0,0.0,0.0,0.0,0.0,0.0,0.0,0.0,0.0,0.0,0.0,0.0,0.0,0.0,0.0,0.0,0.0,0.0,0.0,0.0,0.0,0.0,0.0,0.0,0.0,0.0,0.0,0.0,0.0,0.0,0.0,0.0,0.0,0.0,0.0,0.0,0.0,0.0,0.0,0.0,0.0,0.0,0.0,0.0,0.0,0.0,0.0,0.0,0.0,0.0,0.0,0.0,0.0,0.0,0.0,0.0,0.0,0.0,0.0,0.0,0.0,0.0,0.0,0.0,0.0,0.0,0.0,0.0,0.0,0.0,0.0,0.0,0.0,0.0,0.0,0.0,0.0,0.0,0.0,0.0,0.0,0.0,0.0,0.0,0.0,0.0,0.0,0.0,0.0,0.0,0.0,0.0,0.0,0.0,0.0,0.0,0.0,0.0,0.0,0.0,0.0,0.0,0.0,0.0,0.0,0.0,0.0,0.0,0.0,0.0,0.0,0.0,0.0,0.0,0.0,0.0,0.0,0.0,0.0,0.0,0.0,0.0,0.0,0.0,0.0,0.0,0.0,0.0,0.0,0.0,0.0,0.0,0.0,0.0,0.0,0.0,0.0,0.0,0.0,0.0,0.0,0.0,0.0,0.0,0.0,0.0,0.0,0.0,0.0,0.0,0.0,0.0,0.0,0.0,0.0,0.0,0.0,0.0,0.0,0.0,0.0,0.0,0.0,0.0,0.0,0.0,0.0,0.0,0.0,0.0,0.0,0.0,0.0,0.0,0.0,0.0,0.0,0.0,0.0,0.0,0.0,0.0,0.0,0.0,0.0,0.0,0.0,0.0,0.0,0.0,0.0,0.0,0.0,0.0,0.0,0.0,0.0,0.0,0.0,0.0,0.0,0.0,0.0,0.0,0.0,0.0,0.0,0.0,0.0,0.0,0.0,0.0,0.0,0.0,0.0,0.0,0.0,0.0,0.0,0.0,0.0,0.0,0.0,0.0,0.0,0.0,0.0,0.0,0.0,0.0,0.0,0.0,0.0,0.0,0.0,0.0,0.0,0.0,0.0,0.0,0.0,0.0,0.0,0.0,0.0,0.0,0.0,0.0,0.0,0.0,0.0,0.0,0.0,0.0,0.0,0.0,0.0,0.0,0.0,0.0,0.0,0.0,0.0,0.0,0.0,0.0,0.0,0.0,0.0,0.0,0.0,0.0,0.0,0.0,0.0,0.0,0.0,0.0,0.0,0.0,0.0,0.0,0.0,0.0,0.0,0.0,0.0,0.0,0.0,0.0,0.0,0.0,0.0,0.0,0.0,0.0,0.0,0.0,0.0,0.0,0.0,0.0,0.0,0.0,0.0,0.0,0.0,0.0,0.0,0.0,0.0,0.0,0.0,0.0,0.0,0.0,0.0,0.0,0.0,0.0,0.0,0.0,0.0,0.0,0.0,0.0,0.0,0.0,0.0,0.0,0.0,0.0,0.0,0.0,0.0,0.0,0.0,0.0,0.0,0.0,0.0,0.0,0.0,0.0,0.0,0.0,0.0,0.0,0.0,0.0,0.0,0.0,0.0,0.0,0.0,0.0,0.0,0.0,0.0,0.0,0.0,0.0,0.0,0.0,0.0,0.0,0.0,0.0,0.0,0.0,0.0,0.0,0.0,0.0,0.0,0.0,0.0,0.0,0.0,0.0,0.0,0.0,0.0,0.0,0.0,0.0,0.0,0.0,0.0,0.0,0.0,0.0,0.0,0.0,0.0,0.0,0.0,0.0,0.0,0.0,0.0,0.0,0.0,0.0,0.0,0.0,0.0,0.0,0.0,0.0,0.0,0.0,0.0,0.0,0.0,0.0,0.0,0.0,0.0,0.0,0.0,0.0,0.0,0.0,0.0,0.0,0.0,0.0,0.0,0.0,0.0,0.0,0.0,0.0,0.0,0.0,0.0,0.0,0.0,0.0,0.0,0.0,0.0,0.0,0.0,0.0,0.0,0.0,0.0,0.0,0.0,0.0,0.0,0.0,0.0,0.0,0.0,0.0,0.0,0.0,0.0,0.0,0.0,0.0,0.0,0.0,0.0,0.0,0.0,0.0,0.0,0.0,0.0,0.0,0.0,0.0,0.0,0.0,0.0,0.0,0.0,0.0,0.0,0.0,0.0,0.0,0.0,0.0,0.0,0.0,0.0,0.0,0.0,0.0,0.0,0.0,0.0,0.0,0.0,0.0,0.0,0.0,0.0,0.0,0.0,0.0,0.0,0.0,0.0,0.0,0.0,0.0,0.0,0.0,0.0,0.0,0.0,0.0,0.0,0.0,0.0,0.0,0.0,0.0,0.0,0.0,0.0,0.0,0.0,0.0,0.0,0.0,0.0,0.0,0.0,0.0,0.0,0.0,0.0,0.0,0.0,0.0,0.0,0.0,0.0,0.0,0.0,0.0,0.0,0.0,0.0,0.0,0.0,0.0,0.0,0.0,0.0,0.0,0.0,0.0,0.0,0.0,0.0,0.0,0.0,0.0,0.0,0.0,0.0,0.0,0.0,0.0,0.0,0.0,0.0,0.0,0.0,0.0,0.0,0.0,0.0,0.0,0.0,0.0,0.0,0.0,0.0,0.0,0.0,0.0,0.0,0.0,0.0,0.0,0.0,0.0,0.0,0.0,0.0,0.0,0.0,0.0,0.0,0.0,0.0,0.0,0.0,0.0,0.0,0.0,0.0,0.0,0.0,0.0,0.0,0.0,0.0,0.0,0.0,0.0,0.0,0.0,0.0,0.0,0.0,0.0,0.0,0.0,0.0,0.0,0.0,0.0,0.0,0.0,0.0,0.0,0.0,0.0,0.0,0.0,0.0,0.0,0.0,0.0,0.0,0.0,0.0,0.0,0.0,0.0,0.0,0.0,0.0,0.0,0.0,0.0,0.0,0.0,0.0,0.0,0.0,0.0,0.0,0.0,0.0,0.0,0.0,0.0,0.0,0.0,0.0,0.0,0.0,0.0,0.0,0.0,0.0,0.0,0.0,0.0,0.0,0.0,0.0,0.0,0.0,0.0,0.0,0.0,0.0,0.0,0.0,0.0,0.0,0.0,0.0,0.0,0.0,0.0,0.0,0.0,0.0,0.0,0.0,0.0,0.0,0.0,0.0,0.0,0.0,0.0,0.0,0.0,0.0,0.0,0.0,0.0,0.0,0.0,0.0,0.0,0.0,0.0,0.0,0.0,0.0,0.0,0.0,0.0,0.0,0.0,0.0,0.0,0.0,0.0,0.0,0.0,0.0,0.0,0.0,0.0,0.0,0.0,0.0,0.0,0.0,0.0,2.8633,0.0,0.0,0.0,0.0,0.0,0.0,0.0,0.0,0.0,0.0,0.0,0.0,0.0,0.0,0.0,0.0,0.0,0.0,0.0,0.0,0.0,0.0,0.0,0.0,0.0,0.0,0.0,0.0,0.0,0.0,0.0,0.0,0.0,0.0,0.0,0.0,0.0,0.0,0.0,2.5313,2.5101,2.4678,2.5146,2.533,2.5293,0.0,0.0,0.0,0.0,0.0,0.0,0.0,0.0,0.0,0.0,0.0,0.0,0.0,0.0,0.0,0.0,0.0,0.0,0.0,0.0,0.0,0.0,0.0,0.0,0.0,0.0,0.0,0.0,0.0,0.0,0.0,0.0,0.0,0.0,0.0,0.0,0.0,0.0,0.0,0.0,0.0,0.0,0.0,0.0,0.0,0.0,0.0,0.0,0.0,0.0,0.0,0.0,0.0,0.0,0.0,0.0,0.0,0.0,0.0,0.0,0.0,0.0,0.0,0.0,0.0,0.0,0.0,0.0,0.0,0.0,0.0,2.9297,0.0,0.0,0.0,0.0,0.0,0.0,0.0,0.0,0.0,0.0,0.0,0.0,0.0,0.0,0.0,0.0,0.0,0.0,0.0,0.0,0.0,0.0,0.0,0.0,2.5434,2.5503,2.5564,2.5601,0.0,0.0,0.0,0.0,0.0,0.0,0.0,2.5647,2.5608,2.5608,2.5262,2.5196,2.5339,2.5243,2.5255,2.5339,2.5394,0.0,0.0,0.0,0.0,0.0,0.0,0.0,0.0,0.0,0.0,0.0,0.0,0.0,0.0,0.0,0.0,0.0,0.0,0.0,0.0,0.0,0.0,0.0,0.0,0.0,0.0,0.0,0.0,0.0,0.0,0.0,0.0,0.0,0.0,0.0,0.0,0.0,0.0,0.0,0.0,0.0,0.0,0.0,0.0,0.0,0.0,0.0,0.0,0.0,0.0,0.0,0.0,0.0,0.0,0.0,0.0,0.0,0.0,0.0,0.0,0.0,0.0,0.0,3.4961,3.543,3.666,3.6094,3.5918,3.5918,3.3672,3.2187,3.1348,3.1504,0.0,0.0,0.0,0.0,0.0,0.0,0.0,0.0,0.0,0.0,0.0,0.0,0.0,0.0,0.0,0.0,0.0,0.0,0.0,0.0,0.0,2.5014,2.5459,2.559,2.5598,2.5601,0.0,0.0,0.0,0.0,0.0,0.0,2.6544,2.6476,2.6429,2.6429,2.5023,2.4736,2.5463,2.4778,2.4817,2.5488,2.5547,2.557,2.5595,0.0,0.0,0.0,0.0,0.0,0.0,0.0,0.0,0.0,0.0,0.0,0.0,0.0,0.0,0.0,0.0,0.0,0.0,0.0,0.0,0.0,0.0,0.0,0.0,0.0,0.0,0.0,0.0,0.0,0.0,0.0,0.0,0.0,0.0,0.0,0.0,0.0,0.0,0.0,0.0,0.0,2.8008,2.8105,0.0,0.0,0.0,0.0,0.0,0.0,0.0,0.0,0.0,0.0,0.0,0.0,0.0,3.6562,3.6465,3.8066,3.8613,3.8105,3.9492,3.9902,3.9414,4.0059,4.0723,4.1328,4.0293,0.0,3.3125,3.3887,0.0,0.0,0.0,0.0,0.0,0.0,0.0,0.0,0.0,0.0,0.0,0.0,0.0,0.0,0.0,0.0,0.0,0.0,0.0,0.0,0.0,2.5325,2.5554,2.5658,2.5659,2.5659,2.5659,2.5683,0.0,0.0,0.0,2.7,2.742,2.6925,2.6663,2.6713,2.6016,2.5862,2.6218,2.541,2.5226,2.5558,2.5633,2.5607,2.5547,2.5547,0.0,0.0,0.0,0.0,0.0,0.0,0.0,0.0,0.0,0.0,0.0,0.0,0.0,0.0,0.0,0.0,0.0,0.0,0.0,0.0,0.0,0.0,0.0,0.0,0.0,0.0,0.0,0.0,0.0,0.0,0.0,0.0,0.0,0.0,0.0,0.0,0.0,0.0,0.0,2.9473,3.0625,2.9199,3.0625,3.1211,0.0,0.0,0.0,0.0,0.0,0.0,0.0,0.0,0.0,3.6875,3.8105,3.9004,3.9492,4.0703,4.1367,4.1484,4.2246,4.2402,4.2051,4.2422,4.2793,4.3105,4.2754,4.1035,3.8379,3.7324,3.7187,3.748,0.0,0.0,0.0,0.0,3.6426,3.582,0.0,0.0,0.0,0.0,0.0,0.0,0.0,0.0,0.0,0.0,0.0,0.0,2.5517,2.5796,2.5867,2.5703,2.5898,2.5937,2.5703,2.5918,0.0,0.0,2.7285,2.7754,2.8345,2.7709,2.731,2.716,2.716,2.7047,2.6844,2.6247,2.5845,2.5633,2.5917,2.5852,2.5551,2.5503,2.5493,2.5508,0.0,0.0,0.0,0.0,0.0,0.0,0.0,0.0,0.0,0.0,0.0,0.0,0.0,0.0,0.0,0.0,0.0,0.0,0.0,0.0,0.0,0.0,0.0,0.0,0.0,0.0,0.0,0.0,0.0,0.0,0.0,0.0,0.0,0.0,0.0,0.0,0.0,3.1855,3.2871,3.0547,3.291,3.3887,0.0,0.0,0.0,0.0,0.0,0.0,3.793,3.8789,3.9355,3.957,4.0625,4.1523,4.2168,4.2988,4.3711,4.4375,4.4375,4.4375,4.4375,4.4375,4.4375,4.4375,4.4375,4.4004,4.3203,4.0625,3.9941,4.0391,3.8887,3.8828,3.9629,4.0078,3.9414,3.8652,0.0,0.0,0.0,0.0,0.0,0.0,0.0,0.0,0.0,0.0,0.0,2.5472,2.5598,2.6344,2.6531,2.5762,2.6465,2.6582,2.5742,2.6465,2.6912,2.6893,2.8488,2.9343,2.9322,2.9283,2.889,2.812,2.812,2.7743,2.6992,2.6953,2.6484,2.5723,2.6562,2.6465,2.5683,2.5554,2.5493,2.5498,2.5363,0.0,0.0,0.0,0.0,0.0,0.0,0.0,0.0,0.0,0.0,0.0,0.0,0.0,0.0,0.0,0.0,0.0,0.0,0.0,0.0,0.0,0.0,0.0,0.0,0.0,0.0,0.0,0.0,0.0,0.0,0.0,0.0,0.0,0.0,0.0,0.0,0.0,0.0,3.2266,3.5781,0.0,0.0,0.0,0.0,3.7109,3.7949,3.8848,3.9726,4.0605,4.1426,4.2187,4.3867,4.4766,4.4805,4.5664,4.6133,4.6172,4.6172,4.6172,4.6172,4.6172,4.6172,4.6172,4.6172,4.6133,4.5898,4.3281,4.2226,4.2187,4.1348,4.1504,4.2129,4.1406,4.1074,4.1035,0.0,0.0,0.0,0.0,0.0,0.0,0.0,0.0,2.4467,2.5029,2.5379,2.5595,2.566,2.5934,2.6014,2.5723,2.5977,2.6035,2.5723,2.5996,2.664,2.7751,2.8342,2.8909,2.9441,2.9971,2.9854,2.9099,2.9099,2.8944,2.8652,2.8105,2.7676,2.7383,2.7695,2.7656,2.7324,2.6633,2.6294,2.6144,2.5553,2.5303,0.0,0.0,0.0,0.0,0.0,0.0,0.0,0.0,0.0,0.0,0.0,0.0,0.0,0.0,0.0,0.0,0.0,0.0,0.0,0.0,0.0,0.0,0.0,0.0,0.0,0.0,0.0,0.0,0.0,0.0,0.0,0.0,0.0,0.0,0.0,0.0,0.0,3.6387,3.8652,0.0,3.6973,3.8105,3.9219,3.9766,4.1621,4.3105,4.3965,4.5371,4.6289,4.6562,4.7187,4.7519,4.7519,4.7266,4.7148,4.7129,4.6562,4.6308,4.6308,4.6308,4.6308,4.6308,4.6308,4.6308,4.623,4.5293,4.4902,4.4766,4.3359,4.332,4.4043,4.375,4.3652,4.373,0.0,0.0,0.0,0.0,0.0,0.0,0.0,0.0,2.4953,2.552,2.5629,2.5658,2.5703,2.5957,2.6016,2.5723,2.5977,2.6016,2.5723,2.5977,2.6797,2.8242,2.9096,2.9812,3.0398,3.0925,3.1107,3.0879,3.0605,3.0488,3.0469,2.9883,2.9453,2.9199,2.9473,2.9589,2.9488,2.8558,2.7743,2.7033,2.6129,2.5928,2.6043,0.0,0.0,0.0,0.0,0.0,0.0,0.0,0.0,0.0,0.0,0.0,0.0,0.0,0.0,0.0,0.0,0.0,0.0,0.0,0.0,0.0,0.0,0.0,0.0,0.0,0.0,0.0,0.0,0.0,0.0,0.0,0.0,0.0,0.0,0.0,3.9668,3.9101,4.1074,4.1699,3.9668,4.1035,4.2305,4.2871,4.5039,4.6562,4.7148,4.8262,4.8906,4.8906,4.8906,4.8906,4.8906,4.832,4.8047,4.8027,4.7441,4.7012,4.6758,4.7031,4.6855,4.6328,4.6601,4.6562,4.6308,4.6308,4.6308,4.6191,4.5039,4.4922,4.5449,4.5449,4.5449,4.5527,0.0,0.0,0.0,0.0,0.0,0.0,0.0,2.5542,2.5603,2.5603,2.566,2.5703,2.5703,2.6445,2.6621,2.5762,2.6465,2.6602,2.5781,2.6523,2.7402,2.834,3.082,3.2207,3.2246,3.2246,3.2617,3.3398,3.2617,3.2246,3.2285,3.2246,3.1797,3.1055,3.1875,3.2164,3.1987,3.1211,2.9877,2.8168,2.7149,2.7215,2.7717,0.0,0.0,0.0,0.0,0.0,0.0,0.0,0.0,0.0,0.0,0.0,0.0,0.0,0.0,0.0,0.0,0.0,0.0,0.0,0.0,0.0,0.0,0.0,0.0,0.0,0.0,0.0,0.0,0.0,0.0,0.0,0.0,0.0,3.748,4.0351,4.1855,4.0293,4.3047,4.4101,4.1641,4.4414,4.6387,4.6387,4.7969,4.8945,4.8945,4.8965,4.8984,4.8984,4.9004,4.9004,4.8984,4.8984,4.8965,4.8945,4.8906,4.8457,4.7676,4.8496,4.7949,4.6387,4.7207,4.707,4.6308,4.6308,4.6308,4.6308,4.6308,4.6308,4.6289,4.6289,4.6289,4.6289,0.0,0.0,0.0,0.0,0.0,0.0,0.0,2.525,2.5662,2.5662,2.5683,2.5703,2.5703,2.5918,2.5957,2.5723,2.5918,2.6211,2.6621,2.6875,2.7949,3.0098,3.1484,3.2461,3.3066,3.3066,3.3184,3.3398,3.3184,3.3398,3.4004,3.3379,3.3281,3.3633,3.3242,3.3046,3.3006,3.2772,3.2372,3.1613,2.8787,2.7748,2.7852,0.0,0.0,0.0,0.0,0.0,0.0,0.0,0.0,0.0,0.0,0.0,0.0,0.0,0.0,0.0,0.0,0.0,0.0,0.0,0.0,0.0,0.0,0.0,0.0,0.0,0.0,0.0,0.0,0.0,0.0,0.0,0.0,4.0547,4.1777,4.2754,4.3633,4.4433,4.5937,4.6601,4.5918,4.7266,4.8183,4.8183,4.9219,4.9844,4.9844,5.0391,5.0703,5.0703,5.1328,5.1348,5.0723,5.0703,5.043,4.9824,4.9199,4.8769,4.8535,4.8144,4.7695,4.7226,4.6836,4.6523,4.6308,4.6308,4.6308,4.6308,4.6308,4.6246,4.615,4.615,4.615,4.615,0.0,0.0,0.0,0.0,0.0,0.0,0.0,2.5137,2.5703,2.5703,2.5703,2.5703,2.5703,2.5703,2.5703,2.5703,2.6035,2.6309,2.6445,2.748,2.9082,3.1348,3.2598,3.3633,3.4473,3.4121,3.4101,3.4446,3.4472,3.4921,3.5737,3.5624,3.5859,3.6309,3.5801,3.5586,3.5547,3.5195,3.4996,3.4716,3.224,3.0757,2.9998,2.925,2.9179,2.9448,2.9083,2.9256,2.9448,2.8102,0.0,0.0,0.0,0.0,0.0,0.0,0.0,0.0,0.0,0.0,0.0,0.0,0.0,0.0,0.0,0.0,0.0,0.0,0.0,0.0,0.0,0.0,0.0,0.0,4.0469,4.2969,4.5039,4.5019,4.5293,4.668,4.7285,4.7734,4.8105,4.8926,4.9433,4.9433,5.0234,5.0703,5.0703,5.1152,5.1406,5.1406,5.2246,5.2285,5.1406,5.1758,5.1523,5.0703,5.0195,4.9766,4.9433,4.9277,4.8613,4.7598,4.7441,4.6973,4.6308,4.6308,4.6308,0.0,0.0,0.0,0.0,0.0,4.6027,4.6027,0.0,0.0,0.0,0.0,0.0,0.0,0.0,2.5137,2.5703,2.5703,2.5703,2.5703,2.5703,2.5703,2.5703,2.5703,2.6406,2.6641,2.6172,2.8496,3.0664,3.2402,3.3906,3.5117,3.5976,3.5234,3.5192,3.591,3.5973,3.6462,3.7377,3.8103,3.8555,3.873,3.8633,3.8652,3.8691,3.793,3.7556,3.7421,3.6518,3.4987,3.3064,3.146,3.1256,3.1718,3.0871,3.059,3.0544,2.9563,0.0,0.0,0.0,0.0,0.0,0.0,0.0,0.0,0.0,0.0,0.0,0.0,0.0,0.0,0.0,0.0,0.0,0.0,0.0,0.0,0.0,0.0,0.0,0.0,4.2754,4.4726,4.7246,4.6933,4.6777,4.7637,4.7832,4.8203,4.8965,4.9824,5.0332,5.0332,5.0996,5.1406,5.1406,0.0,0.0,0.0,0.0,5.2383,5.1406,5.2266,5.2266,5.1406,5.1406,5.1035,5.0351,5.0976,4.998,4.7773,4.8457,4.7812,4.6308,4.6308,4.6308,4.6308,4.6268,4.6175,4.605,4.5927,4.5891,4.59,0.0,0.0,0.0,0.0,0.0,0.0,0.0,2.5137,2.5703,2.5703,2.5703,2.5703,2.5703,2.5703,2.5703,2.5703,2.5859,2.6777,2.8711,3.0644,3.2441,3.4141,3.4531,3.5117,3.5976,3.582,3.582,3.5975,3.5996,3.6797,3.8319,3.7793,3.8301,3.9629,3.8906,3.8984,3.9648,3.9473,3.9394,3.9354,3.9055,3.7001,3.41,3.3639,3.3122,3.2564,3.1737,3.1872,3.2179,3.066,3.0621,3.1044,3.0198,2.9429,0.0,0.0,0.0,0.0,0.0,0.0,0.0,0.0,0.0,0.0,0.0,0.0,0.0,0.0,0.0,0.0,0.0,0.0,0.0,4.1816,4.3613,4.543,4.7324,4.7441,4.7676,4.8535,4.9277,4.9766,4.9922,5.0683,5.1172,5.1172,5.1308,5.1406,5.1406,5.207,5.2129,5.1426,5.293,5.2988,5.1426,5.2266,5.2266,5.1406,0.0,0.0,5.1152,5.0664,4.9785,4.8613,4.8086,4.7266,4.6308,4.6308,4.6308,4.6289,4.605,4.5967,4.5927,4.5736,4.5728,4.5828,0.0,0.0,0.0,0.0,0.0,0.0,0.0,2.5137,2.5703,2.5703,2.5703,2.5703,2.5703,2.5703,2.5703,2.5703,2.6094,2.7461,3.0078,3.1465,3.3144,3.5254,3.5351,3.5741,3.6573,3.6163,3.5893,3.5802,3.6711,3.7601,3.8466,3.893,3.9644,4.0547,4.0527,4.0742,4.1172,4.1621,4.1797,4.1797,4.168,4.0056,3.7489,3.6082,3.5251,3.4699,3.3891,3.3872,3.4007,3.2737,3.2583,3.2795,3.1929,3.1352,3.091,0.0,0.0,0.0,0.0,0.0,0.0,0.0,0.0,0.0,0.0,0.0,0.0,0.0,0.0,3.6016,0.0,0.0,4.1719,4.3418,4.5156,4.6758,4.8066,4.8633,4.9062,4.9492,4.9922,5.0351,5.0762,5.1152,5.1406,5.1406,5.1406,5.1406,5.1406,5.2226,5.2305,5.1426,5.3086,5.3164,5.1426,5.2266,5.2266,5.1406,5.1406,5.1406,5.1387,5.0976,5.0117,4.8887,4.8437,4.7519,4.6308,4.6308,4.6308,4.6289,4.608,4.5967,4.5881,4.575,4.5692,4.5692,0.0,0.0,0.0,0.0,0.0,0.0,0.0,2.5254,2.5703,2.5703,2.5703,2.5703,2.5703,2.5703,2.5703,2.5703,2.6641,2.8281,3.0742,3.1855,3.3496,3.5898,3.5996,3.6305,3.6937,3.6254,3.5889,3.5863,3.7339,3.8221,3.8578,4.0233,4.1153,4.1444,4.2285,4.2754,4.2949,4.3652,4.3945,4.3945,4.3894,4.2798,4.0915,3.8583,3.7293,3.6603,3.5795,3.5391,3.5141,3.443,3.4199,3.4103,3.3564,3.3295,3.2987,3.2179,3.2275,0.0,0.0,0.0,0.0,0.0,0.0,0.0,0.0,0.0,3.457,3.6797,3.7383,3.8359,4.1172,4.2344,4.3476,4.5215,4.668,4.7949,4.8963,4.9725,5.0212,5.0363,5.0409,5.0683,5.1348,5.1406,5.1406,5.1406,5.1406,5.1406,5.1406,5.2226,5.2305,5.1426,5.293,5.2988,5.1426,5.2109,5.209,5.1406,5.1406,5.1406,5.1406,5.1406,5.0586,4.9121,4.8789,4.7754,4.6308,4.6308,4.6308,4.6289,4.6175,4.6039,4.589,4.582,4.5723,4.5586,0.0,0.0,0.0,0.0,0.0,0.0,0.0,0.0,2.5703,2.5703,2.5703,2.5703,2.5703,2.5703,2.5703,2.5703,2.7207,2.8945,3.0781,3.2383,3.4082,3.5918,3.5996,3.6012,3.604,3.5942,3.6202,3.6829,3.7051,3.7953,3.947,4.0515,4.1429,4.2217,4.3142,4.3984,4.4726,4.4805,4.4844,4.4844,4.4843,4.3759,4.2022,4.0949,3.8933,3.6603,3.5795,3.5007,3.4334,3.4218,3.4199,3.4314,3.5007,3.468,3.3872,3.3026,3.2314,3.1621,3.0648,3.1156,3.2693,3.5872,3.6129,3.6816,0.0,0.0,4.0488,4.1484,4.2305,4.2969,4.3359,4.4121,4.5273,4.7031,4.7461,4.8123,4.9657,4.9961,5.0274,5.0914,5.1164,5.1308,5.1387,5.1406,5.1406,5.1406,5.1406,5.1406,5.1406,5.2226,5.2305,5.1426,5.2344,5.2383,5.1406,5.1504,5.1504,5.1406,5.1406,5.1406,5.1406,5.1406,5.0918,4.9961,4.8418,4.7207,4.6308,4.6308,4.6308,4.6308,4.6289,4.6117,4.589,4.582,4.5723,4.5586,0.0,0.0,0.0,0.0,0.0,0.0,0.0,0.0,0.0,0.0,2.5703,2.5703,2.5703,2.5703,2.5703,2.5703,2.7285,2.9043,3.0781,3.2461,3.418,3.5918,3.5996,3.5929,3.5797,3.5772,3.6137,3.6826,3.7328,3.8267,3.9641,4.1,4.19,4.2415,4.3828,4.4668,4.5039,4.5547,4.5762,4.5762,4.5762,4.4663,4.3029,4.2639,4.0481,3.7443,3.6071,3.4974,0.0,3.4199,3.4199,3.4353,3.5238,3.4545,3.3276,3.2449,3.2295,3.2545,3.3199,3.3677,3.4622,0.0,3.8332,3.9588,4.2323,4.2402,4.2422,4.4297,4.4551,4.4922,4.6445,4.6601,4.6914,0.0,4.8789,4.9313,4.9922,5.0401,5.0608,5.0373,5.0893,5.1489,5.1997,5.2107,5.2363,5.2871,5.2441,5.2168,5.2168,5.25,5.2305,5.1426,5.2246,5.2285,5.1406,5.0937,5.0937,5.1387,5.0937,5.0957,5.1406,5.1406,5.0683,4.9375,4.8144,4.7109,4.6308,4.6308,4.6308,4.6289,4.6202,4.6075,4.589,4.5862,4.575,4.5586,0.0,0.0,0.0,0.0,0.0,0.0,0.0,0.0,0.0,0.0,2.5703,2.5703,2.5703,2.5703,2.5703,2.5703,2.707,2.8672,3.043,3.2129,3.3848,3.5566,3.5879,3.5906,3.571,3.5703,3.6163,3.7065,3.7737,3.8682,3.9932,4.1447,4.2368,4.279,4.4316,4.5137,4.5391,4.6035,4.6308,4.6308,4.6308,4.5232,4.3593,4.3359,4.1066,3.7813,3.6444,3.5209,3.4186,3.3936,3.3833,3.391,3.4314,3.3583,3.2449,3.1872,3.2102,3.2891,3.4391,0.0,0.0,3.8162,4.0213,4.1997,4.291,4.3301,4.4082,4.6211,4.5976,4.6016,4.8144,4.8027,4.7891,4.8769,4.9629,5.0153,5.002,5.0464,5.0458,4.9508,5.0026,5.0881,5.2018,5.2255,5.2695,5.3574,5.2832,5.2441,5.2695,5.2461,5.2051,5.1426,5.2012,5.1933,5.1074,5.0488,5.0371,5.0703,5.0117,5.0156,5.0703,5.0703,4.9922,4.8516,4.7871,4.7109,4.6308,4.6308,4.6308,4.6289,4.6198,4.6075,4.594,4.5916,4.5776,4.5586,0.0,0.0,0.0,0.0,0.0,0.0,0.0,0.0,0.0,0.0,0.0,0.0,0.0,2.5703,2.5703,2.5703,2.6523,2.7773,2.9531,3.1269,3.2988,3.4668,3.5547,3.5906,3.571,3.5703,3.6445,3.7969,3.8117,3.9049,4.0696,4.1773,4.2756,4.3619,4.4568,4.5469,4.6269,4.6289,4.6308,4.6308,4.6308,4.5254,4.3594,4.2754,4.0267,3.7195,3.6956,3.5756,3.4158,3.3261,3.2949,3.2814,3.2045,3.1775,3.1737,3.1718,3.1718,3.1929,3.2756,3.4361,3.6397,3.8923,4.1612,4.3848,4.4726,4.5566,4.6445,4.7363,4.6875,4.6543,4.7461,4.7617,4.7891,4.8769,4.9629,5.0153,5.002,4.9912,4.9459,4.8463,4.8483,4.9264,0.0,5.132,5.1797,5.2676,5.1933,5.1816,5.2656,5.1894,5.1426,5.1406,5.1426,5.1055,5.0234,5.0215,4.9785,4.8984,4.8945,4.8945,4.8984,4.8984,4.8496,4.7637,4.7617,4.7109,4.6308,4.6308,4.6308,4.6308,4.6308,4.6202,4.608,4.5959,4.5776,4.5586,0.0,0.0,0.0,0.0,0.0,0.0,0.0,0.0,0.0,0.0,0.0,0.0,0.0,0.0,0.0,0.0,2.6463,2.748,2.8652,3.0371,3.1855,3.2988,3.4394,3.5064,3.4906,3.5431,3.6218,3.7274,3.7885,3.883,4.0065,4.1583,4.2789,4.3707,4.4609,4.5488,4.6308,4.6308,4.6308,4.625,4.5664,4.4746,4.3418,4.0859,3.8788,3.6944,0.0,3.3184,3.259,3.2228,3.2102,3.216,3.241,3.1737,3.0948,3.1525,3.2083,3.3082,3.5701,3.7344,3.8942,4.1598,4.3425,4.4785,4.5664,4.6094,4.6543,4.7422,4.5996,4.5019,4.6465,4.6269,4.6348,4.7793,4.8769,4.9489,4.9942,4.9398,4.8594,4.7678,4.8127,0.0,0.0,0.0,0.0,5.3457,5.2754,5.2383,5.2676,5.1875,5.1152,5.0625,5.0605,5.0195,4.9355,4.8769,4.8613,4.8906,4.8906,4.8906,4.8906,4.8906,4.8418,4.7598,4.7598,4.7109,4.6308,4.6308,4.6308,4.6289,4.62,4.6144,4.6084,4.594,4.5862,4.5769,0.0,0.0,0.0,0.0,0.0,0.0,0.0,0.0,0.0,0.0,0.0,0.0,0.0,0.0,0.0,0.0,0.0,2.6873,2.7773,2.918,3.0351,3.123,3.2598,3.3272,3.3145,3.3652,3.4309,3.5107,3.6015,3.7099,3.8378,3.9819,4.1322,4.2832,4.3398,4.4297,4.5371,4.5371,4.5039,4.4453,4.418,4.3008,4.1211,3.9316,3.7676,0.0,3.3356,3.218,3.1809,3.1386,3.1237,3.1275,3.1487,3.1237,3.0968,3.1545,3.291,3.4905,3.7837,3.9546,4.1065,4.3474,4.4778,4.5605,4.6172,4.6308,4.6523,4.7359,4.5487,4.4121,4.5504,4.5097,4.4707,4.5234,4.6543,4.7557,4.7737,4.7405,4.7181,4.7252,4.7715,4.7993,0.0,0.0,0.0,5.2539,5.2383,5.2246,5.2246,5.1426,5.0879,5.0644,5.0351,4.9922,4.9375,4.8496,4.8027,4.7969,4.7969,4.7969,4.7969,4.7969,4.7676,4.7148,4.7148,4.6816,4.6308,4.6308,4.6308,4.6289,4.6202,4.6173,4.617,4.6027,4.5974,4.5944,0.0,0.0,0.0,0.0,0.0,0.0,0.0,0.0,0.0,0.0,0.0,0.0,0.0,0.0,0.0,0.0,0.0,0.0,2.6875,2.7754,2.8594,2.9434,3.0332,3.0778,3.0641,3.068,3.1081,3.1831,3.2781,3.4101,3.5779,3.6734,3.8535,4.0996,4.0996,4.1914,4.3437,4.3437,4.2519,4.1133,4.1855,4.0195,3.7383,3.8066,3.6816,3.457,3.3541,3.267,3.1847,3.0782,3.046,3.0402,2.9624,3.0568,3.1973,3.2023,3.434,3.7321,3.9107,4.0896,4.2689,4.4508,4.5636,4.6308,4.6308,4.6308,4.6482,4.7139,4.5323,4.3826,0.0,0.0,4.3125,4.1582,4.3437,4.4785,4.4004,4.4392,4.5395,0.0,0.0,0.0,0.0,0.0,0.0,5.0,0.0,5.1289,5.1348,5.0566,5.0488,5.125,5.0488,5.0078,5.0078,4.9199,4.7949,4.6308,4.6308,4.6308,4.6308,4.6308,4.6308,4.6308,4.6308,4.6308,4.6308,4.6308,4.6308,4.6308,4.6308,4.6308,4.6289,4.617,4.6113,4.6075,0.0,0.0,0.0,0.0,0.0,0.0,0.0,0.0,0.0,0.0,0.0,0.0,0.0,0.0,0.0,0.0,0.0,0.0,2.5943,2.6815,2.7422,2.7656,2.9121,2.9878,2.9725,3.0368,3.079,3.1008,3.1906,3.2926,3.406,3.4941,3.6406,3.8281,3.8281,3.8887,3.9902,3.9902,3.9648,3.9219,3.8789,3.8086,3.7109,3.5371,3.4726,3.4414,3.2172,3.1633,3.1835,3.082,3.1342,3.2484,3.2909,3.4253,3.5776,3.6425,3.8147,4.0224,4.2039,4.3339,4.4469,4.5657,4.6113,4.6308,4.6308,4.6308,4.6172,4.5701,4.4082,4.2617,0.0,0.0,0.0,4.3027,4.4707,0.0,4.6543,4.6016,0.0,4.6357,0.0,4.6946,4.6633,4.782,0.0,0.0,4.9001,4.9824,5.0469,4.9707,4.9336,4.9531,4.8711,4.8262,4.8262,4.7402,4.6738,4.6308,4.6308,4.6308,4.6308,4.6308,4.6308,4.6308,4.6308,4.6308,4.6308,4.6308,4.6308,4.6308,4.6308,4.6308,4.6308,4.6268,4.6247,4.6225,0.0,0.0,0.0,0.0,0.0,0.0,0.0,0.0,0.0,0.0,0.0,0.0,0.0,0.0,0.0,0.0,0.0,0.0,0.0,2.6078,2.6383,2.6383,2.732,2.7812,2.778,2.8237,2.8471,2.8502,2.9381,3.0268,3.1172,3.2051,3.3398,3.5059,3.5059,3.5527,3.6348,3.6738,3.6465,0.0,0.0,3.5488,3.4414,3.3672,3.3476,3.3457,3.23,3.2172,3.2544,3.2361,0.0,3.393,3.5193,3.6494,3.7819,3.9065,4.0655,4.2325,4.3763,4.479,4.5578,4.6151,4.6308,4.6094,4.5332,4.5156,4.4785,4.3509,4.2205,4.1152,4.0637,4.1268,0.0,0.0,0.0,0.0,4.5254,4.5063,4.5493,0.0,4.7186,0.0,4.7733,4.7924,4.8034,0.0,4.8526,4.9058,4.9609,4.8808,4.8496,4.8887,4.8047,4.7598,4.7598,4.7109,4.668,4.6308,4.6308,4.6308,4.6308,4.6308,4.6308,4.6308,0.0,4.6308,4.6308,4.6308,4.6308,4.6308,4.6308,4.6308,4.6308,4.6308,4.6308,4.6289,0.0,0.0,0.0,0.0,0.0,0.0,0.0,0.0,0.0,0.0,0.0,0.0,0.0,0.0,0.0,0.0,0.0,0.0,0.0,0.0,2.5595,2.5595,2.5595,2.5607,2.5662,2.5629,2.5627,2.5662,2.6445,2.7265,2.8125,2.8906,3.0117,3.168,3.168,3.207,3.2773,3.3535,3.3008,3.1816,3.3398,3.2695,3.0918,0.0,3.2812,3.2285,3.2988,3.3277,3.3456,3.4446,3.4811,3.5162,3.6902,3.8018,3.9037,4.0752,4.2305,4.3676,4.4786,4.5594,4.615,4.6268,4.6211,4.5703,4.4062,4.3613,4.3026,4.1222,4.0344,3.9823,3.9598,4.0363,4.0605,3.9316,0.0,4.2656,4.2891,4.3501,4.507,4.8162,4.7747,4.7885,4.9623,4.8333,4.778,4.8807,4.8555,4.8457,4.8711,4.7891,4.7773,4.8535,4.793,4.7539,4.7422,4.7422,4.7051,4.6308,4.6308,4.6308,4.6308,4.6308,4.6308,4.6308,4.6308,4.6308,4.6308,4.6308,4.6308,4.6308,4.6308,4.6308,4.6308,4.6308,4.6308,4.6308,0.0,0.0,0.0,0.0,0.0,0.0,0.0,0.0,0.0,0.0,2.1139,2.2274,0.0,0.0,0.0,0.0,0.0,0.0,0.0,0.0,0.0,2.5526,2.5526,2.5511,2.552,2.5511,2.5511,2.552,2.5735,2.6293,2.7153,2.7342,2.8008,2.8984,2.8984,2.9043,2.9199,2.9355,2.9238,2.9062,3.0078,3.0215,3.0019,3.1758,0.0,0.0,3.2363,3.2832,3.3632,3.5214,3.6181,3.7038,3.8709,3.9923,4.1032,4.2711,4.3414,4.4,4.5623,4.6151,4.6268,4.6289,4.5762,4.4961,4.3926,4.3144,0.0,0.0,4.0,3.9668,3.8924,3.9511,4.0488,4.1562,4.2715,4.3984,4.543,4.5648,4.5898,0.0,4.6943,4.7337,4.7696,0.0,0.0,0.0,0.0,4.6912,4.7773,4.6992,4.6582,4.6758,4.7305,4.7246,4.6523,4.6523,4.6445,4.6308,4.6308,4.6308,4.6308,4.6308,4.6308,4.6308,4.6308,0.0,4.6308,4.6308,4.6308,4.6308,4.6308,4.6308,4.6308,4.6308,4.6308,4.6308,0.0,0.0,0.0,0.0,0.0,0.0,0.0,2.0639,2.1043,2.1543,2.1543,2.1985,2.3283,2.4197,2.4889,0.0,0.0,0.0,0.0,0.0,0.0,0.0,0.0,0.0,2.5489,2.5477,2.5477,2.5493,0.0,2.5765,2.6178,2.6234,2.6498,2.6909,2.6933,2.6953,2.6973,2.7422,2.7617,2.7695,2.8574,2.9199,2.9687,0.0,0.0,0.0,0.0,3.2324,3.3535,3.4375,3.5506,3.7104,4.015,4.1443,4.207,4.332,4.4023,4.4551,4.5391,4.5957,4.6191,4.5742,4.4961,4.3867,4.2129,0.0,0.0,0.0,3.8223,3.8418,3.8008,3.9004,0.0,4.0976,4.1836,4.3008,4.4707,4.4898,0.0,4.6729,4.6723,4.7008,0.0,0.0,0.0,0.0,0.0,4.6616,4.7558,4.6777,4.6308,4.6308,4.6719,4.6719,4.6308,4.6308,4.6308,4.6308,4.6308,4.6308,4.6308,4.6308,4.6308,4.6308,4.6308,0.0,4.5664,4.6113,4.5762,4.498,4.5449,4.5625,4.5625,4.5625,4.5918,4.6308,0.0,0.0,0.0,0.0,0.0,0.0,0.0,2.0446,2.0966,2.21,2.1985,2.2043,2.2735,2.4139,2.512,0.0,0.0,0.0,0.0,0.0,0.0,0.0,0.0,0.0,0.0,0.0,0.0,0.0,2.5463,0.0,0.0,0.0,0.0,0.0,2.5682,2.5703,2.5742,2.6426,2.6719,0.0,0.0,2.8535,0.0,0.0,0.0,0.0,0.0,0.0,3.3164,3.334,3.4434,3.6348,3.9902,4.1289,4.1719,4.2402,4.3359,4.4258,4.4629,4.5215,4.5586,4.4883,4.3945,4.2539,4.0156,3.8945,0.0,3.6074,3.6406,3.7012,3.7012,3.8144,3.9199,0.0,4.0195,4.1367,4.3418,4.3691,4.4609,0.0,4.6612,0.0,0.0,0.0,0.0,0.0,0.0,0.0,4.7285,4.668,4.6308,4.6308,4.6308,4.6308,4.6308,4.6308,4.6308,4.6308,4.6308,4.6308,4.6308,4.6308,4.6308,4.6308,4.6308,0.0,0.0,4.582,4.5215,4.4023,4.4531,4.4726,4.4726,4.4726,4.5156,4.5742,0.0,0.0,0.0,0.0,0.0,0.0,0.0,2.0927,2.1177,2.0619,2.1793,2.2716,2.2793,2.3648,2.4505,0.0,0.0,0.0,0.0,0.0,0.0,0.0,0.0,0.0,0.0,0.0,0.0,0.0,0.0,0.0,0.0,0.0,0.0,0.0,0.0,0.0,0.0,2.5781,0.0,0.0,0.0,0.0,0.0,0.0,0.0,0.0,0.0,0.0,3.2422,0.0,0.0,3.5039,3.6211,3.7676,3.8965,3.9043,0.0,0.0,4.3418,4.3887,4.3926,4.3848,4.2617,4.0957,3.9121,0.0,3.6914,3.5176,3.5508,3.6113,3.6113,3.625,3.6875,3.8457,3.8789,3.998,4.3242,4.3691,4.4375,4.6191,0.0,0.0,0.0,0.0,0.0,0.0,0.0,0.0,4.6426,4.6348,4.6308,4.6308,4.6308,4.6308,4.6308,4.6308,4.6308,4.6308,4.6308,4.6308,4.6308,4.6308,4.6308,4.6308,4.6308,0.0,0.0,4.541,4.5039,4.4805,4.4101,4.3828,4.3828,4.3828,4.3867,4.3945,0.0,0.0,0.0,0.0,0.0,0.0,2.0312,2.0581,2.085,2.1004,2.1177,2.187,2.3417,2.3417,2.3851,2.5168,0.0,0.0,0.0,0.0,0.0,0.0,0.0,0.0,0.0,0.0,0.0,2.5303,0.0,0.0,0.0,0.0,0.0,0.0,0.0,0.0,0.0,0.0,0.0,0.0,0.0,0.0,0.0,0.0,0.0,0.0,0.0,0.0,3.1465,0.0,0.0,0.0,3.2363,3.334,0.0,0.0,3.9043,4.0684,4.1875,4.2558,4.2793,4.2324,4.0508,3.8535,3.7305,0.0,3.5547,3.4844,3.5391,3.5996,3.5996,3.5996,3.623,3.6914,3.7031,0.0,4.0293,4.0625,4.1641,4.4414,4.4746,0.0,0.0,0.0,0.0,0.0,0.0,0.0,4.5547,4.6016,4.6308,4.6308,4.6308,4.6308,4.6308,4.6308,4.6308,4.6308,4.6308,4.6308,4.6308,4.6308,4.6308,4.6308,4.6308,0.0,0.0,4.5137,4.4375,4.3398,4.3047,4.293,4.293,4.293,4.3242,4.3691,0.0,0.0,0.0,0.0,0.0,2.0334,2.0334,2.0313,2.0504,2.1062,2.0866,2.1446,2.3494,2.3398,2.3726,2.5079,2.5088,0.0,0.0,0.0,0.0,0.0,0.0,0.0,0.0,0.0,2.5063,2.5303,2.5303,0.0,0.0,0.0,0.0,0.0,0.0,0.0,0.0,0.0,0.0,0.0,0.0,0.0,0.0,0.0,0.0,0.0,0.0,0.0,0.0,0.0,0.0,0.0,3.0371,3.082,3.2285,0.0,3.6816,3.8555,3.9434,4.0449,4.1133,4.0566,3.8476,3.6367,0.0,0.0,3.4023,3.4277,3.5019,3.5684,3.5957,3.5996,3.5996,3.5974,3.5973,3.6578,3.8272,3.8529,3.9626,0.0,0.0,0.0,0.0,0.0,0.0,0.0,0.0,0.0,4.5039,4.5586,4.5918,4.5918,4.6172,4.6308,4.6308,4.6308,4.6308,4.6308,4.6308,4.6308,4.6308,4.6308,4.6308,4.6308,4.6308,0.0,0.0,4.4726,4.373,4.2383,4.2148,4.2051,4.2051,4.2051,4.2422,4.2969,0.0,0.0,0.0,0.0,0.0,0.0,2.0406,2.0337,2.0307,2.0307,2.1008,2.1831,2.2716,2.359,2.4322,2.4946,2.501,0.0,0.0,0.0,0.0,0.0,0.0,0.0,0.0,0.0,2.4505,2.5303,2.5303,2.533,2.5398,2.5477,0.0,0.0,0.0,0.0,0.0,0.0,0.0,0.0,0.0,0.0,0.0,0.0,0.0,0.0,0.0,0.0,0.0,0.0,0.0,0.0,0.0,3.0898,3.0918,3.0957,3.2754,3.4941,3.582,3.7324,3.8633,3.8633,3.666,3.4726,3.4726,3.3418,3.2441,3.3242,3.4101,3.498,3.584,3.5996,3.5975,3.591,3.5903,0.0,3.8072,3.8356,0.0,0.0,0.0,0.0,0.0,0.0,0.0,0.0,0.0,0.0,4.5,4.5019,4.5019,4.5019,4.5859,4.6308,4.6308,4.6308,4.6308,4.6308,4.6308,4.6308,4.6308,4.6308,4.6308,0.0,0.0,0.0,0.0,4.4062,4.3183,4.2324,4.1523,4.1211,4.1211,4.1211,4.1211,4.123,0.0,0.0,0.0,0.0,0.0,0.0,0.0,2.0374,2.0579,2.1187,2.1448,2.2125,2.3608,2.397,2.4399,2.5137,2.5,0.0,0.0,0.0,0.0,0.0,0.0,0.0,0.0,0.0,2.5043,2.5303,2.5303,2.533,2.5398,2.5477,2.5543,2.5603,0.0,0.0,0.0,0.0,0.0,0.0,0.0,0.0,0.0,0.0,0.0,0.0,0.0,0.0,0.0,0.0,0.0,0.0,0.0,0.0,0.0,3.0019,3.1426,3.3047,3.332,3.3809,3.4238,3.4238,3.2715,3.1367,3.1973,3.1699,3.1543,3.2402,3.3711,3.4785,3.5059,3.5561,3.5918,3.5903,3.5812,3.593,0.0,0.0,0.0,0.0,0.0,0.0,0.0,0.0,0.0,0.0,0.0,0.0,4.3223,4.3223,4.3769,4.4961,4.5859,4.6308,4.6308,4.6308,4.6308,4.6308,4.6308,4.6308,4.6308,4.6308,4.6308,0.0,0.0,0.0,0.0,4.4062,4.3183,4.2324,4.1504,4.1191,4.1191,4.1191,4.082,4.0391,0.0,0.0,0.0,0.0,0.0,0.0,0.0,2.0447,2.0633,2.1179,2.175,2.2495,2.3585,2.421,2.4716,2.5146,2.5012,0.0,0.0,0.0,0.0,0.0,0.0,0.0,0.0,2.462,2.5149,2.4851,2.4851,2.4869,2.4907,2.4999,2.5219,2.5564,2.566,0.0,0.0,0.0,0.0,0.0,0.0,0.0,2.5762,0.0,0.0,0.0,0.0,0.0,0.0,0.0,0.0,0.0,0.0,0.0,0.0,0.0,2.9394,3.0371,3.1035,3.1465,3.1719,3.1719,3.0391,0.0,3.0625,3.0391,3.0351,3.1875,3.3262,3.4316,3.4648,3.5361,3.5994,3.626,3.6216,3.6365,0.0,0.0,0.0,0.0,0.0,0.0,0.0,0.0,0.0,0.0,0.0,0.0,4.1953,4.2246,4.2891,4.3984,4.5176,4.5976,4.6308,4.6308,4.6308,4.6308,4.6308,4.6308,4.6308,4.6308,4.6308,0.0,0.0,0.0,0.0,4.3574,4.2715,4.1894,4.1406,4.1191,4.1191,4.1191,4.0859,4.043,0.0,0.0,0.0,0.0,0.0,0.0,0.0,2.0541,2.0549,2.0685,2.193,2.2888,2.3063,2.4356,2.5166,2.5034,0.0,0.0,0.0,0.0,0.0,0.0,0.0,0.0,0.0,2.4889,2.4928,2.4187,2.4129,2.4091,2.4109,2.4172,2.4642,2.5425,2.5559,2.5644,2.5703,0.0,0.0,0.0,0.0,0.0,0.0,0.0,0.0,0.0,0.0,0.0,0.0,0.0,0.0,0.0,0.0,0.0,0.0,0.0,0.0,0.0,0.0,3.0019,3.0625,3.0625,2.9453,2.8711,3.0351,2.9512,0.0,3.1504,3.2695,3.3574,3.4433,3.5257,3.6026,3.6786,3.6833,3.7344,0.0,0.0,0.0,0.0,0.0,0.0,0.0,0.0,0.0,0.0,0.0,0.0,4.1133,4.1758,4.2246,4.248,4.4062,4.5312,4.6191,4.6269,4.6269,4.6211,4.6269,4.623,4.6113,4.623,4.623,0.0,0.0,0.0,0.0,4.2793,4.1973,4.1191,4.1191,4.1191,4.1191,4.1191,4.1152,4.0996,0.0,0.0,0.0,0.0,0.0,0.0,0.0,0.0,0.0,0.0,2.2221,2.2717,2.469,2.4594,2.4611,0.0,0.0,0.0,0.0,0.0,0.0,0.0,0.0,0.0,0.0,2.4889,2.5207,2.5024,2.4389,2.4107,2.4084,2.3542,2.3763,2.4592,2.4664,2.5078,2.5703,2.5703,0.0,0.0,0.0,0.0,0.0,0.0,0.0,0.0,2.5937,2.6016,0.0,0.0,0.0,0.0,0.0,0.0,0.0,0.0,2.7519,2.709,2.75,0.0,2.793,2.793,2.8105,2.8418,0.0,2.9101,2.9473,3.0078,3.1343,3.26,3.3476,3.4197,3.495,3.5795,3.5863,3.6183,0.0,0.0,0.0,0.0,0.0,0.0,0.0,0.0,0.0,0.0,0.0,3.9004,4.0137,3.9746,4.0662,4.3235,4.3723,4.4362,4.5293,4.5976,4.5976,4.5312,4.5976,4.5605,4.4355,4.5683,4.5566,0.0,0.0,0.0,4.2734,4.3203,4.2539,4.1191,4.1191,4.1191,4.1191,4.1191,4.0781,4.0273,0.0,0.0,0.0,0.0,0.0,0.0,0.0,0.0,0.0,0.0,0.0,2.2386,2.4161,2.4196,0.0,0.0,0.0,0.0,0.0,0.0,0.0,0.0,0.0,2.4124,2.4091,2.4925,2.5157,2.4755,2.4336,2.3941,2.3533,2.3193,2.3486,2.427,2.4746,2.5232,2.5703,2.5703,2.5703,2.5703,2.5703,0.0,0.0,0.0,0.0,0.0,2.5703,2.5703,0.0,2.5234,2.5684,2.6328,0.0,0.0,0.0,0.0,2.6777,2.6406,2.6406,2.6406,2.6406,2.6406,2.7051,2.7695,2.7695,2.8651,2.9545,2.9545,0.0,3.2225,3.3093,3.3825,3.468,3.5832,3.6243,0.0,0.0,0.0,0.0,0.0,0.0,0.0,0.0,0.0,0.0,0.0,0.0,3.8059,3.8625,3.8938,3.9917,4.1713,4.2902,4.4128,4.5391,4.5512,4.5336,4.4868,4.4524,4.4123,4.3663,4.4212,4.4177,0.0,0.0,4.3711,4.2402,4.2519,4.2012,4.1191,4.1191,4.1191,4.1191,4.1191,4.0858,4.0402,0.0,0.0,0.0,0.0,0.0,0.0,0.0,0.0,0.0,0.0,0.0,0.0,0.0,0.0,0.0,0.0,0.0,0.0,0.0,0.0,0.0,0.0,0.0,2.4314,2.4124,2.4965,2.4984,2.4124,2.4056,2.3631,2.2939,2.2764,2.3177,2.4062,2.5008,2.5519,2.5703,2.5703,2.5703,2.5703,2.5703,0.0,0.0,0.0,0.0,0.0,0.0,0.0,0.0,2.4844,2.5098,2.5566,2.4824,0.0,0.0,0.0,0.0,0.0,2.5703,2.5801,2.5898,2.5898,2.6543,2.7207,2.7207,2.839,0.0,0.0,0.0,0.0,3.2824,3.3468,0.0,0.0,0.0,0.0,0.0,0.0,0.0,0.0,0.0,0.0,0.0,0.0,0.0,0.0,0.0,3.7749,3.7199,3.8526,3.9433,3.9754,4.1866,4.3782,4.5454,4.4956,4.4565,4.4292,4.2809,4.2344,4.2787,4.2436,4.2578,4.3065,0.0,0.0,4.2168,4.1601,4.1308,4.1191,4.1191,4.1191,4.1171,4.1191,4.1025,4.0671,0.0,0.0,0.0,0.0,0.0,0.0,0.0,0.0,0.0,0.0,0.0,0.0,0.0,0.0,0.0,0.0,0.0,0.0,0.0,0.0,0.0,2.5217,2.5265,2.4943,2.4208,2.504,2.506,2.4189,2.3505,2.3143,2.3043,2.1577,2.175,2.3301,2.4191,2.4993,2.5703,2.5703,2.5703,2.5703,2.5703,0.0,0.0,0.0,0.0,0.0,0.0,0.0,0.0,2.5547,2.5586,2.5684,2.5547,0.0,0.0,0.0,0.0,0.0,2.5703,2.623,2.6797,2.6797,2.7461,2.8105,2.8105,2.882,2.9503,0.0,0.0,0.0,0.0,3.1869,3.2297,0.0,0.0,0.0,0.0,0.0,0.0,0.0,0.0,0.0,0.0,0.0,0.0,0.0,0.0,3.6372,3.7001,3.7274,3.8366,4.0466,4.0912,4.1886,4.3524,4.4305,4.3961,4.2502,4.2218,4.1045,3.9189,4.1214,4.1471,4.0427,0.0,4.2646,4.1426,4.1992,4.1816,4.1191,4.1191,4.1128,4.103,4.1151,4.0603,3.9772,0.0,0.0,0.0,0.0,0.0,0.0,0.0,0.0,0.0,0.0,0.0,0.0,0.0,0.0,0.0,0.0,0.0,0.0,0.0,0.0,0.0,2.4812,2.4862,2.4687,2.4219,2.4211,2.3996,2.3548,2.2746,2.2361,2.2396,2.2011,2.2294,2.3158,2.4439,2.5254,2.5703,2.5703,2.5703,2.5703,0.0,0.0,0.0,0.0,0.0,0.0,0.0,0.0,0.0,0.0,2.4609,2.4922,2.4434,0.0,0.0,0.0,0.0,0.0,2.5703,2.5996,2.6289,2.6245,2.7259,2.8001,2.7064,2.7807,2.8693,0.0,0.0,0.0,0.0,0.0,0.0,0.0,0.0,0.0,0.0,0.0,0.0,0.0,0.0,0.0,0.0,0.0,0.0,0.0,0.0,0.0,3.551,3.5996,3.6745,3.7855,3.9232,4.0289,4.1027,4.1538,4.1594,4.1214,4.0316,3.9314,3.8296,3.947,3.9879,3.9739,0.0,4.1705,4.1121,4.1492,4.146,4.1191,4.1126,4.1052,4.0933,4.0427,3.9641,3.8821,0.0,0.0,0.0,0.0,0.0,0.0,0.0,0.0,0.0,0.0,0.0,0.0,0.0,0.0,0.0,0.0,0.0,0.0,0.0,0.0,2.5233,2.4614,2.4453,2.406,2.338,2.2998,2.2691,2.2413,2.1811,2.1526,2.1548,2.234,2.2864,2.3153,2.4599,2.5403,2.5703,2.5703,2.5703,2.5703,0.0,0.0,0.0,0.0,0.0,0.0,0.0,0.0,0.0,0.0,0.0,0.0,0.0,0.0,0.0,2.5195,2.5391,2.5391,2.5391,2.5684,2.5937,2.5693,0.0,2.7281,2.6139,2.6815,0.0,0.0,0.0,0.0,0.0,3.3032,0.0,0.0,0.0,0.0,0.0,0.0,0.0,0.0,0.0,0.0,0.0,0.0,0.0,0.0,0.0,0.0,3.4292,3.4707,3.5133,3.5488,3.7392,3.8604,3.8988,3.8988,3.9296,3.9892,3.8411,3.7648,3.7572,3.7765,3.8364,3.931,4.0127,4.0668,4.0955,4.0992,4.1049,4.1103,4.1026,4.0871,4.053,3.9471,3.8686,3.8136,0.0,0.0,0.0,0.0,0.0,0.0,0.0,0.0,0.0,0.0,0.0,0.0,0.0,0.0,0.0,0.0,0.0,0.0,0.0,0.0,2.5468,2.543,2.4699,2.3233,2.0917,2.1601,2.1562,2.0672,2.0683,2.0683,2.0703,2.1513,2.2314,2.3144,2.4071,2.4934,2.5703,2.5703,2.5703,2.5703,2.5703,0.0,0.0,0.0,0.0,0.0,0.0,0.0,0.0,0.0,0.0,0.0,0.0,0.0,2.4414,2.4473,2.4492,2.4492,2.4492,2.5664,2.6719,2.5898,2.5735,2.5944,2.6567,2.676,0.0,2.8794,0.0,0.0,0.0,0.0,0.0,0.0,0.0,0.0,0.0,0.0,0.0,0.0,0.0,0.0,0.0,0.0,0.0,0.0,0.0,0.0,3.4206,3.3513,3.3827,3.5449,3.568,3.6526,3.8084,3.8084,3.8123,3.8161,3.7238,3.6411,3.5713,3.6463,3.734,3.8354,3.9148,3.9995,4.0816,4.0955,4.0925,4.085,4.0955,4.0476,3.9568,3.8498,3.8144,3.8059,0.0,0.0,0.0,0.0,0.0,0.0,0.0,0.0,0.0,0.0,0.0,0.0,0.0,0.0,0.0,0.0,0.0,0.0,0.0,2.4524,2.4492,2.4037,2.3678,2.2293,1.9714,2.0028,1.9777,1.887,1.949,2.0058,2.0578,2.1956,2.2777,2.3157,2.4534,2.505,2.4922,2.5469,2.5391,2.4941,2.5488,2.5703,0.0,0.0,0.0,0.0,0.0,0.0,0.0,0.0,2.3809,2.4121,2.4336,2.3672,2.3047,2.4082,2.4394,2.4394,2.4394,2.5273,2.6093,2.5736,2.5629,0.0,0.0,2.6338,2.6824,2.7451,2.8818,0.0,0.0,0.0,0.0,0.0,0.0,0.0,0.0,0.0,0.0,0.0,0.0,0.0,0.0,0.0,0.0,0.0,0.0,0.0,3.3391,3.2602,3.2468,3.3122,3.4141,3.5007,3.5622,3.6006,3.6274,3.6449,3.6622,3.6276,3.5532,3.6334,3.6914,3.7308,3.8157,3.9069,3.9927,3.9974,4.031,4.0793,4.0807,3.9907,3.8562,3.8161,3.7357,3.6466,0.0,0.0,0.0,0.0,0.0,0.0,0.0,0.0,0.0,0.0,0.0,0.0,0.0,0.0,0.0,0.0,0.0,0.0,2.3501,2.3711,2.3716,2.3461,2.2886,2.1595,1.9527,1.9016,1.8476,1.7866,1.8814,1.9699,2.0557,2.2039,2.2724,2.2785,2.4209,2.4526,2.4023,2.4629,2.4687,2.4453,2.5059,2.5449,0.0,0.0,0.0,0.0,0.0,0.0,0.0,0.0,2.3691,2.3926,2.3984,2.3223,2.2539,2.3672,2.4004,2.4043,2.4336,2.5039,2.5683,2.5637,0.0,0.0,2.5898,2.6321,2.6734,2.6998,2.8835,0.0,0.0,0.0,0.0,0.0,0.0,0.0,0.0,0.0,0.0,0.0,0.0,0.0,0.0,0.0,0.0,0.0,0.0,0.0,0.0,3.1693,3.1385,3.1565,3.2678,3.3541,3.4079,3.4397,3.4835,3.5369,3.5652,3.5681,3.5526,3.6084,3.6469,3.6738,3.7334,3.8111,3.898,3.9278,3.9781,4.0392,4.0556,3.9565,3.8007,3.8007,3.7103,3.5853,0.0,0.0,0.0,0.0,0.0,0.0,0.0,0.0,0.0,0.0,0.0,0.0,0.0,0.0,0.0,0.0,0.0,0.0,2.1894,2.2584,2.3348,2.4141,2.2519,2.1197,2.0312,1.8672,1.7801,1.7794,1.8733,1.968,2.0625,2.1484,2.1894,2.1934,2.2812,2.3164,2.3086,2.3105,2.3594,2.4375,2.4375,2.4902,2.5684,0.0,0.0,0.0,0.0,0.0,0.0,0.0,2.4961,2.5391,2.3652,2.3144,2.3184,2.3203,2.3144,2.3281,2.416,2.5039,2.5703,0.0,0.0,0.0,2.6696,2.6844,2.7034,2.7873,2.9303,3.088,3.2344,0.0,0.0,0.0,0.0,0.0,0.0,0.0,0.0,0.0,0.0,0.0,0.0,0.0,0.0,0.0,0.0,0.0,0.0,3.0733,3.067,3.1268,3.1291,3.2092,3.377,3.3505,3.396,3.5066,3.4208,3.4378,3.5488,3.5474,3.5911,3.668,3.668,3.718,3.806,3.8999,3.9398,3.9453,4.0193,3.945,3.8007,3.8007,3.745,3.6603,0.0,0.0,0.0,0.0,0.0,0.0,0.0,0.0,0.0,0.0,0.0,0.0,0.0,0.0,0.0,0.0,0.0,0.0,2.1855,2.2053,2.2231,2.2438,2.248,2.1816,2.0331,1.9213,1.8399,1.7874,1.8766,1.9674,2.0625,2.1484,2.1894,2.1934,2.2812,2.2811,2.2238,2.2831,2.2909,2.2629,2.3242,2.3633,2.3945,0.0,0.0,0.0,0.0,0.0,0.0,0.0,0.0,0.0,2.418,2.3223,2.2402,2.2969,2.3125,2.3281,2.416,2.5039,0.0,2.5703,0.0,0.0,0.0,2.6877,0.0,0.0,3.1545,3.2596,3.3544,0.0,0.0,0.0,0.0,0.0,0.0,0.0,0.0,0.0,0.0,0.0,0.0,0.0,0.0,0.0,0.0,0.0,0.0,3.0757,2.9994,3.0175,3.0779,3.1328,3.182,3.2126,3.254,3.3051,3.2805,3.3353,3.4564,3.3949,3.4141,3.493,3.493,3.5757,3.7142,3.8059,3.842,3.8439,3.8671,3.843,3.8007,3.8007,3.7834,3.7488,0.0,0.0,0.0,0.0,0.0,0.0,0.0,0.0,0.0,0.0,0.0,0.0,0.0,0.0,0.0,0.0,0.0,0.0,0.0,2.1302,2.1408,2.1699,2.1801,2.1217,1.9812,1.96,1.9155,1.8423,1.8944,1.9867,2.1113,2.1309,2.1387,2.1406,2.1893,2.1809,2.1329,2.1849,2.1965,2.1858,2.2401,2.2832,2.3223,0.0,0.0,0.0,0.0,0.0,0.0,0.0,0.0,0.0,2.4512,2.3711,2.2988,2.3477,2.3613,2.3809,2.4687,2.5293,0.0,2.5703,2.5703,2.5937,2.6797,0.0,0.0,0.0,0.0,3.2981,0.0,0.0,0.0,0.0,0.0,0.0,0.0,0.0,0.0,0.0,0.0,0.0,0.0,0.0,0.0,0.0,0.0,0.0,0.0,3.0026,2.9339,2.957,2.9757,3.0171,3.0828,3.107,3.1443,3.2051,3.173,3.2086,3.3048,3.2961,3.3372,3.4218,3.4564,3.5468,3.6738,3.7276,3.7488,3.7546,3.8257,3.8296,3.8046,3.8392,3.8527,3.8334,0.0,0.0,0.0,0.0,0.0,0.0,0.0,0.0,0.0,0.0,0.0,0.0,0.0,0.0,0.0,0.0,0.0,0.0,0.0,0.0,2.0711,2.1441,2.072,1.9967,1.9256,1.9942,2.0012,1.9432,1.9425,2.0246,2.1758,2.0977,2.0605,2.0605,2.0537,2.0506,2.0484,2.0506,2.0957,2.1679,2.1756,2.2266,2.3047,2.3867,0.0,0.0,0.0,0.0,0.0,0.0,0.0,0.0,2.4648,2.4394,2.4394,2.4394,2.4394,2.459,2.5469,2.5703,0.0,2.5703,2.5762,0.0,2.6816,2.8938,3.093,3.1721,0.0,0.0,0.0,0.0,0.0,0.0,0.0,0.0,0.0,0.0,0.0,0.0,0.0,0.0,0.0,0.0,0.0,0.0,0.0,0.0,0.0,2.8904,2.865,2.913,2.8387,2.8741,3.0339,3.0037,3.0411,3.1424,3.0642,3.0528,3.1066,3.2166,3.3128,3.4007,3.4891,3.568,3.6372,3.6449,3.6469,3.6642,3.8296,3.8565,3.8104,3.8892,3.9219,3.9065,0.0,0.0,0.0,0.0,0.0,0.0,0.0,0.0,0.0,0.0,0.0,0.0,0.0,0.0,0.0,0.0,0.0,0.0,0.0,0.0,1.9604,1.9734,2.0099,2.0533,2.1037,2.0553,2.0614,2.1243,2.1188,2.1077,2.0879,2.0684,2.0605,2.0605,2.0537,2.0475,2.0429,2.0477,2.0572,2.0708,2.0835,2.0996,2.125,2.2109,2.2441,0.0,0.0,0.0,0.0,0.0,0.0,0.0,2.4453,2.4394,2.4394,2.4394,2.4394,2.459,2.5469,2.5703,0.0,0.0,2.6211,2.6777,2.6953,2.9004,3.0874,3.0963,0.0,0.0,0.0,0.0,0.0,0.0,0.0,0.0,0.0,0.0,0.0,0.0,0.0,0.0,0.0,0.0,0.0,0.0,0.0,0.0,2.9822,2.8613,2.7719,2.7211,2.7009,2.7395,2.8393,2.7717,2.7812,2.8651,2.8012,2.8183,2.915,3.017,3.1205,3.2275,3.3103,3.3564,3.3776,3.4449,3.4737,3.4834,3.5911,3.7007,3.8027,3.82,3.87,3.9238,0.0,0.0,0.0,0.0,0.0,0.0,0.0,0.0,0.0,0.0,0.0,0.0,0.0,0.0,0.0,0.0,0.0,0.0,0.0,0.0,1.9451,1.9805,2.0157,2.0556,2.1016,2.1002,2.1048,2.1173,2.1558,2.1577,2.1211,2.0801,2.0605,2.0605,2.0506,2.0444,2.0441,2.0444,2.0444,2.0467,2.0563,2.0605,2.0703,2.1562,2.1894,2.2012,2.281,0.0,0.0,0.0,0.0,0.0,0.0,0.0,2.4394,2.4352,2.4666,2.5117,2.5543,0.0,0.0,2.5703,0.0,2.6992,2.6992,2.8379,2.9648,2.9562,0.0,0.0,0.0,0.0,0.0,0.0,0.0,0.0,0.0,0.0,0.0,0.0,0.0,0.0,0.0,0.0,0.0,0.0,0.0,3.0033,2.9217,2.7662,2.6737,2.6594,2.6227,2.641,2.7218,2.6814,2.6814,2.7218,2.6905,2.7288,2.8367,3.0041,3.113,3.1737,3.2545,3.2891,3.2949,3.3391,3.3583,3.3699,3.5007,3.6026,3.6911,3.77,3.8296,3.8623,0.0,0.0,0.0,0.0,0.0,0.0,0.0,0.0,0.0,0.0,0.0,0.0,0.0,0.0,0.0,0.0,0.0,0.0,0.0,0.0,0.0,2.0469,2.0441,2.0422,2.0422,2.0982,2.0945,2.0298,2.0861,2.1241,0.0,2.0879,2.0605,2.0586,2.0475,2.0441,2.0506,2.0438,2.0444,2.051,2.0565,2.0605,2.0684,2.1386,2.166,2.1737,2.2406,2.2546,2.2478,2.2756,0.0,0.0,0.0,0.0,2.4176,2.4274,2.4852,2.5487,2.5588,0.0,2.5703,2.5703,2.623,0.0,2.6777,2.7441,2.8066,0.0,0.0,0.0,0.0,0.0,0.0,0.0,0.0,0.0,0.0,0.0,0.0,0.0,0.0,0.0,0.0,0.0,0.0,0.0,0.0,2.9122,2.8124,2.6556,2.5857,2.6172,2.5529,2.5566,2.6392,2.6264,2.6264,2.6392,2.6415,2.6873,2.7774,2.9942,3.1117,3.1437,3.2122,3.2423,3.2487,3.2622,3.2699,3.2852,3.4603,3.5372,3.568,3.7219,3.7777,3.77,0.0,0.0,0.0,0.0,0.0,0.0,0.0,0.0,0.0,0.0,0.0,0.0,0.0,0.0,0.0,0.0,0.0,0.0,1.586,0.0,0.0,2.043,2.0484,2.0482,2.0482,1.9856,1.9518,1.9453,1.8828,0.0,0.0,0.0,0.0,2.0605,2.0515,2.0484,2.0508,2.0484,2.0484,2.051,2.0565,2.0605,2.0605,2.0656,2.0689,2.0685,2.075,2.0312,1.9932,2.1406,2.139,0.0,0.0,0.0,2.3325,2.407,2.4436,2.4713,0.0,0.0,2.5703,0.0,2.5781,2.5879,0.0,0.0,2.7093,0.0,0.0,0.0,0.0,0.0,0.0,0.0,0.0,0.0,0.0,0.0,0.0,0.0,0.0,0.0,0.0,0.0,0.0,0.0,2.9109,2.816,2.6424,2.5939,2.5338,2.4558,2.441,2.474,2.555,2.4869,2.4869,2.5568,2.5746,2.5891,2.6074,2.7315,2.8745,3.0233,3.0328,3.0521,3.0794,3.1545,3.1852,3.2025,3.3718,3.4834,3.5622,3.6526,3.6873,3.6969,0.0,0.0,0.0,0.0,0.0,0.0,0.0,0.0,0.0,0.0,0.0,0.0,0.0,0.0,0.0,1.6561,1.6537,1.6401,1.61,1.7704,1.9023,1.9781,2.0309,2.0562,2.0562,2.0142,1.9693,1.9235,0.0,0.0,0.0,1.9647,2.0109,0.0,0.0,0.0,2.0543,2.0513,2.0515,2.0563,2.0586,2.0605,2.0586,2.0536,2.0508,2.0423,1.9873,1.9476,1.9227,1.9437,1.9294,1.9127,1.9903,0.0,0.0,0.0,2.2808,2.3809,2.4683,2.4918,2.5039,0.0,2.5662,2.5637,2.5637,0.0,0.0,0.0,0.0,0.0,0.0,0.0,0.0,0.0,0.0,0.0,0.0,0.0,0.0,0.0,0.0,0.0,0.0,0.0,0.0,0.0,2.7758,2.6985,2.6208,2.5617,2.5069,2.4545,2.4428,2.4542,2.4893,2.4431,2.4373,2.4742,2.4929,2.5257,2.5723,2.6298,2.7513,2.914,2.8789,2.923,3.0177,3.022,3.0525,3.1102,3.2314,3.3026,3.3468,3.4276,3.4564,3.4699,0.0,0.0,0.0,0.0,0.0,0.0,0.0,0.0,0.0,0.0,0.0,0.0,0.0,0.0,0.0,0.0,1.6396,1.6583,1.6689,1.8079,1.902,1.9297,2.0137,2.0605,2.0605,2.0109,1.9514,0.0,0.0,0.0,1.8877,1.8877,1.9475,0.0,2.0508,2.0391,0.0,0.0,0.0,0.0,2.0254,2.0391,2.0586,2.051,2.0477,2.035,1.941,1.8968,1.8721,0.0,0.0,0.0,0.0,0.0,0.0,0.0,0.0,0.0,0.0,0.0,2.4277,2.539,2.5479,2.5325,0.0,0.0,0.0,0.0,0.0,0.0,0.0,0.0,0.0,0.0,0.0,0.0,0.0,0.0,0.0,0.0,0.0,0.0,0.0,0.0,0.0,0.0,2.6653,2.6206,2.5983,2.5354,2.4937,2.4804,2.4654,2.4594,2.4594,2.4445,2.4339,2.4357,2.4512,2.4895,2.5476,2.5622,2.6491,2.7878,2.7885,2.8624,2.974,2.9517,2.9813,3.0475,3.1371,3.1698,3.1795,3.2602,3.2891,3.2987,0.0,0.0,0.0,0.0,0.0,0.0,0.0,0.0,0.0,0.0,0.0,0.0,1.5266,1.6042,1.6215,1.5349,1.6081,1.662,1.6699,1.7559,1.8437,1.9258,2.0137,0.0,2.0605,1.892,1.8013,0.0,0.0,0.0,1.7975,1.7975,1.8834,2.0418,2.0418,1.9974,1.928,0.0,0.0,0.0,0.0,0.0,0.0,0.0,0.0,0.0,0.0,0.0,0.0,0.0,0.0,0.0,0.0,0.0,1.8159,0.0,0.0,0.0,0.0,2.3792,0.0,2.5205,2.4976,0.0,0.0,0.0,0.0,0.0,0.0,0.0,0.0,0.0,0.0,0.0,0.0,0.0,0.0,0.0,0.0,0.0,0.0,0.0,0.0,0.0,0.0,0.0,2.6149,2.6154,2.5106,2.503,2.4937,2.4804,2.479,2.479,2.479,2.4775,2.4775,2.4775,2.4775,2.4808,2.4865,2.4865,2.5337,2.6227,2.7985,2.8887,2.9206,2.9994,3.0359,3.0475,3.1371,3.1698,3.1795,3.2602,3.2891,3.291,0.0,0.0,0.0,0.0,0.0,0.0,0.0,0.0,0.0,0.0,0.0,0.0,0.0,1.6946,1.7549,1.6157,1.6343,1.6771,1.7365,1.775,1.8319,1.921,2.007,2.0562,2.0605,1.9376,1.8456,0.0,0.0,1.6642,1.7763,1.7763,1.8691,2.0341,2.0376,2.0235,1.9967,2.0026,0.0,0.0,0.0,0.0,0.0,0.0,0.0,0.0,0.0,0.0,0.0,0.0,0.0,0.0,0.0,1.6484,1.7253,1.8972,1.9502,0.0,0.0,0.0,0.0,2.4979,2.5308,2.5137,0.0,0.0,0.0,0.0,0.0,0.0,0.0,0.0,0.0,0.0,0.0,0.0,0.0,0.0,0.0,0.0,0.0,0.0,0.0,0.0,0.0,0.0,0.0,2.56,2.5203,2.5184,2.5171,2.5126,2.5012,2.4877,2.4804,2.4804,2.4804,2.4804,2.4877,2.4943,2.4924,2.5061,2.5287,2.5638,2.7431,2.8478,2.8938,2.9394,2.991,3.0379,3.0121,3.0371,3.0833,3.0564,3.0814,3.1391,0.0,0.0,0.0,0.0,0.0,0.0,0.0,0.0,0.0,0.0,0.0,0.0,0.0,0.0,1.7594,1.6212,1.6106,1.6346,1.6924,1.7548,1.815,1.873,1.9883,2.0537,2.0605,1.968,1.8767,0.0,0.0,0.0,0.0,1.7561,1.8465,1.9877,2.0224,2.0226,0.0,0.0,0.0,2.0064,0.0,0.0,2.0484,0.0,0.0,0.0,0.0,0.0,0.0,0.0,0.0,0.0,0.0,1.589,1.6574,1.7692,1.7826,0.0,2.1185,0.0,0.0,0.0,0.0,2.4691,0.0,0.0,0.0,0.0,0.0,0.0,0.0,0.0,0.0,0.0,0.0,0.0,0.0,0.0,0.0,0.0,0.0,0.0,0.0,0.0,0.0,0.0,0.0,0.0,2.5303,2.5303,2.5303,2.5303,2.5163,2.5072,2.4981,2.4981,2.4981,2.4981,2.5091,2.5137,2.5137,2.5283,2.5484,2.5851,2.7276,2.7969,2.8141,2.9133,2.9717,2.9948,2.964,2.989,3.0321,2.9756,2.991,3.0475,0.0,0.0,0.0,0.0,0.0,0.0,0.0,0.0,0.0,1.72,0.0,0.0,0.0,0.0,0.0,1.5506,1.5407,1.5393,1.5452,1.7002,1.7955,1.7973,1.9591,2.0537,2.0605,1.968,1.879,0.0,0.0,0.0,0.0,0.0,1.8164,1.903,1.9888,1.9843,1.9143,0.0,1.9188,1.9229,0.0,1.9725,2.048,0.0,0.0,0.0,1.9224,1.8849,0.0,1.7704,0.0,0.0,0.0,1.6045,1.6054,1.6073,0.0,0.0,0.0,0.0,0.0,0.0,0.0,0.0,0.0,0.0,0.0,0.0,0.0,0.0,0.0,0.0,0.0,0.0,0.0,0.0,0.0,0.0,0.0,0.0,0.0,0.0,0.0,0.0,0.0,0.0,2.5348,2.5303,2.5303,2.5303,2.5313,2.5293,2.5293,2.5293,2.5322,2.5322,2.5322,2.5322,2.5368,2.5394,2.5406,2.5394,2.5851,2.6707,2.7509,2.7371,2.6755,2.9313,2.9871,2.9179,3.0006,3.0359,3.0398,3.0359,3.0379,3.0398,0.0,0.0,0.0,0.0,0.0,0.0,1.6004,1.6444,1.6933,0.0,0.0,0.0,1.7498,1.7452,1.7843,1.8836,1.7847,1.7706,1.8912,1.8848,1.9064,1.9745,2.0194,2.048,2.0605,1.9677,1.9088,0.0,0.0,0.0,1.7369,1.7606,0.0,0.0,1.9242,1.9613,2.004,2.0033,0.0,0.0,1.9427,1.9662,0.0,0.0,0.0,0.0,0.0,2.0154,1.9583,0.0,1.776,1.627,0.0,0.0,0.0,0.0,0.0,0.0,1.8258,0.0,0.0,0.0,0.0,0.0,0.0,0.0,0.0,0.0,0.0,0.0,0.0,0.0,0.0,0.0,0.0,0.0,0.0,0.0,0.0,0.0,0.0,0.0,0.0,0.0,0.0,0.0,2.5371,2.5303,2.5303,2.5303,2.5312,2.5368,2.5379,2.5398,2.5447,2.5447,2.5447,2.5447,2.5451,2.5463,2.5463,2.5463,2.5589,2.5812,2.6663,2.6505,2.587,2.8409,2.9313,2.9063,2.8717,2.9333,3.0321,2.9698,2.9871,3.0398,0.0,0.0,0.0,0.0,0.0,1.688,1.6836,1.7219,1.7696,0.0,0.0,0.0,1.8191,1.7943,1.8203,1.9202,1.8134,1.793,1.9239,1.9216,1.9398,1.9924,2.0269,2.0484,2.0605,2.0032,1.9387,0.0,1.7575,1.6904,1.6657,1.7023,0.0,0.0,0.0,0.0,0.0,0.0,0.0,0.0,1.9899,0.0,0.0,1.9787,2.0183,0.0,0.0,0.0,1.9974,2.0276,1.9031,0.0,0.0,0.0,0.0,0.0,0.0,0.0,0.0,0.0,0.0,0.0,0.0,0.0,2.3318,2.3844,0.0,0.0,0.0,0.0,0.0,0.0,0.0,0.0,0.0,0.0,0.0,0.0,0.0,0.0,0.0,0.0,0.0,2.5468,2.5406,2.5539,2.5447,2.5376,2.5376,2.5376,2.5406,2.5447,2.5441,2.5465,2.5489,2.5493,2.5493,2.5493,2.5535,2.5547,2.5547,2.5547,2.5707,2.6004,2.6498,2.6359,2.5967,2.7448,2.8275,2.8582,2.8448,2.9217,3.034,2.9833,2.9967,3.0398,0.0,0.0,1.6169,1.6798,1.7055,1.7385,1.8005,1.8184,1.8587,0.0,1.9738,1.9678,1.9283,1.8561,1.8114,1.8178,1.7534,1.7409,1.8065,1.8877,1.9324,1.9341,2.0085,2.0516,2.0605,2.0539,1.968,1.8042,1.7894,1.6953,1.5361,1.6131,1.6496,1.6522,0.0,0.0,0.0,0.0,0.0,2.0341,2.0285,2.0264,0.0,0.0,2.0361,0.0,2.0979,2.0596,2.0076,2.1113,2.0372,0.0,0.0,0.0,0.0,0.0,1.4638,0.0,0.0,0.0,0.0,0.0,0.0,0.0,2.2265,2.3199,2.4113,0.0,0.0,0.0,0.0,0.0,0.0,0.0,0.0,0.0,0.0,0.0,0.0,0.0,0.0,0.0,2.5683,2.5526,2.5465,2.5595,2.5543,2.5493,2.5493,2.5493,2.5493,2.5503,2.5503,2.5503,2.5511,2.5511,2.5511,2.5511,2.5573,2.5607,2.5607,2.5607,2.599,2.664,2.6592,2.653,2.6467,2.6467,2.7024,2.7967,2.8679,2.9544,3.0398,3.0398,3.0398,3.0398,0.0,0.0,1.7491,1.6982,1.7968,1.8665,1.817,1.8795,1.9388,1.9564,1.9855,2.0062,2.0069,2.0005,1.9973,1.9994,1.9842,1.985,2.0034,2.0064,2.0149,2.0329,2.0397,2.0477,2.0605,2.0539,1.9998,1.8958,1.8222,1.7314,1.6247,1.6421,1.6498,0.0,0.0,0.0,0.0,0.0,0.0,1.9367,1.9352,0.0,2.0296,2.03,2.0638,2.1186,2.1814,2.143,2.0499,0.0,1.922,1.8726,0.0,0.0,0.0,0.0,0.0,0.0,0.0,0.0,0.0,0.0,0.0,0.0,2.1371,2.1803,2.2236,0.0,0.0,0.0,0.0,0.0,0.0,0.0,0.0,0.0,0.0,0.0,0.0,0.0,0.0,0.0,2.5683,2.5526,2.5465,2.5595,2.5543,2.5493,2.5493,2.5493,2.5511,2.557,2.557,2.5605,2.566,2.566,2.566,2.566,2.5662,2.5683,2.5683,2.5683,2.5705,2.5741,2.5746,2.5672,2.5553,2.5553,2.6486,2.7909,2.8063,2.9063,3.0398,3.0398,3.0398,3.0398,1.667,1.722,1.7624,1.8041,1.8757,1.9161,1.8757,1.9212,1.963,1.9748,2.0041,0.0,0.0,0.0,0.0,2.0502,2.0151,2.0093,2.0522,2.0482,2.048,2.0541,2.0513,2.0537,2.0605,2.0564,2.0109,1.9202,1.833,1.7417,1.6488,1.6083,0.0,0.0,0.0,0.0,0.0,0.0,1.7423,1.7912,1.919,0.0,2.0285,2.0197,2.0365,2.0726,2.1337,2.16,2.1514,2.0707,2.011,0.0,0.0,1.8165,1.7346,0.0,1.6452,1.6349,0.0,0.0,0.0,1.7142,0.0,0.0,0.0,2.1517,2.2313,2.3212,0.0,0.0,0.0,0.0,0.0,0.0,0.0,0.0,0.0,0.0,0.0,0.0,0.0,0.0,2.5683,2.5551,2.5517,2.5636,2.5629,2.5601,2.5601,2.5601,2.5627,2.5658,2.5658,2.5661,2.5703,2.5703,2.5683,2.5658,2.5683,2.5683,2.5658,2.5683,2.5633,2.5493,2.5493,2.5421,2.5303,2.5303,2.6082,2.7294,2.7736,2.8929,3.0398,3.0398,3.0398,3.0398,1.6175,1.656,1.7087,1.8415,1.8765,1.889,1.8919,1.9215,1.9567,0.0,0.0,0.0,0.0,0.0,0.0,0.0,0.0,1.9647,0.0,0.0,2.0309,2.0261,2.0466,2.0507,2.0352,2.0507,2.0134,1.9211,1.8327,1.7428,1.653,1.5702,0.0,0.0,0.0,0.0,0.0,0.0,0.0,1.6918,0.0,1.996,1.9815,1.9963,1.9879,1.9781,2.0316,2.1239,2.2106,2.171,0.0,2.0381,2.0237,1.9234,0.0,0.0,0.0,0.0,0.0,0.0,0.0,0.0,0.0,1.8621,0.0,0.0,0.0,2.3178,0.0,0.0,0.0,0.0,0.0,0.0,0.0,0.0,0.0,0.0,0.0,0.0,0.0,0.0,2.5683,2.5603,2.5573,2.5683,2.5703,2.5703,2.5703,2.5703,2.5703,2.5703,2.5703,2.5703,2.5703,2.5703,2.5662,2.5629,2.5662,2.5662,2.5611,2.5664,2.5607,2.5489,2.5498,2.5401,2.5303,2.5303,2.5813,2.6697,2.7563,2.8813,3.0179,3.034,3.0398,3.0398,1.4744,1.5343,1.5932,1.623,1.6873,1.7392,1.751,1.8304,1.9228,0.0,0.0,0.0,0.0,0.0,0.0,0.0,0.0,0.0,2.0527,0.0,0.0,1.9433,2.013,2.0188,1.9453,2.0149,2.0109,1.9297,1.8369,1.7478,1.6659,1.5781,0.0,0.0,1.5358,0.0,0.0,0.0,1.6266,0.0,1.8717,1.8672,0.0,1.9495,1.9447,1.8746,1.9286,2.0138,2.0884,0.0,1.9998,1.9933,0.0,1.9127,1.9029,0.0,0.0,0.0,0.0,0.0,0.0,0.0,1.8021,0.0,0.0,0.0,2.0283,2.143,0.0,0.0,0.0,0.0,0.0,0.0,0.0,0.0,0.0,0.0,0.0,0.0,0.0,0.0,0.0,2.5683,2.5683,2.5703,2.5703,2.5703,2.5703,2.5703,2.5703,2.5703,2.5703,2.5703,2.5703,2.5703,2.5703,2.5683,2.5703,2.5703,2.5683,2.5637,2.5567,2.5508,2.5441,2.5379,2.5303,2.5303,2.5813,2.6697,2.7563,2.8448,2.9333,3.0121,3.0398,3.0398,1.5081,1.5526,0.0,1.6507,1.6948,1.7229,1.7283,1.8198,1.9232,0.0,0.0,0.0,0.0,0.0,0.0,0.0,0.0,2.0173,0.0,0.0,0.0,2.0059,2.0332,2.0332,1.9993,2.033,2.0327,1.9934,1.856,1.771,1.7303,1.5972,0.0,0.0,1.5325,0.0,1.524,0.0,1.6,0.0,0.0,0.0,0.0,1.9335,1.9794,1.973,2.0257,2.0924,2.1489,0.0,2.0808,0.0,0.0,0.0,0.0,0.0,0.0,0.0,0.0,0.0,0.0,0.0,0.0,0.0,1.8479,0.0,2.0406,0.0,0.0,0.0,0.0,0.0,0.0,0.0,2.5542,0.0,0.0,0.0,0.0,0.0,0.0,0.0,0.0,0.0,0.0,2.5703,2.5703,2.5703,2.5703,2.5703,2.5683,2.5637,2.5683,2.5683,2.5637,2.5683,2.5683,2.5637,2.5683,2.5664,2.5586,2.5593,2.5547,2.5447,2.5408,2.5371,2.5303,2.5303,2.5514,2.5928,2.6813,2.7659,2.8448,2.8813,2.9236,2.964,1.5101,0.0,0.0,0.0,1.6609,1.6838,1.7349,1.8114,0.0,0.0,0.0,0.0,2.051,2.0508,0.0,0.0,2.0298,2.0287,0.0,0.0,2.0172,0.0,0.0,0.0,0.0,2.024,2.034,2.041,1.878,1.794,0.0,0.0,0.0,0.0,0.0,1.5251,1.5191,0.0,0.0,1.7426,1.8138,1.8352,1.8395,1.9385,2.0089,2.0525,2.088,2.1292,2.1723,2.1753,2.0847,0.0,2.0279,0.0,0.0,0.0,0.0,0.0,1.5956,0.0,0.0,0.0,0.0,0.0,0.0,0.0,0.0,0.0,0.0,0.0,0.0,0.0,0.0,0.0,0.0,0.0,0.0,0.0,0.0,0.0,0.0,0.0,0.0,0.0,0.0,2.5703,2.5683,2.578,2.6035,2.6034,2.6009,2.5954,2.5982,2.5863,2.5587,2.5636,2.5644,2.56,2.5644,2.5623,2.5525,2.5534,2.5479,2.5406,2.5376,2.5337,2.5313,2.5322,2.5475,2.5754,2.6381,2.7152,2.7933,2.7911,2.8275,2.8794,1.409,1.438,0.0,0.0,0.0,0.0,0.0,0.0,0.0,0.0,0.0,0.0,0.0,0.0,0.0,0.0,0.0,1.9707,2.0547,0.0,1.9315,0.0,0.0,2.0065,0.0,0.0,2.0006,2.041,1.897,1.808,0.0,0.0,0.0,0.0,0.0,1.5196,1.5156,1.75,1.8523,1.8631,1.9773,2.0021,1.9726,0.0,2.0043,2.0486,2.03,0.0,0.0,1.9752,1.9201,0.0,0.0,0.0,0.0,0.0,0.0,0.0,0.0,0.0,0.0,1.6047,0.0,0.0,0.0,0.0,1.8535,0.0,0.0,0.0,0.0,0.0,0.0,0.0,0.0,0.0,0.0,0.0,0.0,0.0,0.0,0.0,0.0,2.5637,2.5633,2.5703,2.5636,2.6005,2.6914,2.6901,2.6866,2.6852,2.6805,2.6359,2.5513,2.5564,2.5603,2.5605,2.5603,2.5603,2.5581,2.5471,2.5406,2.5391,2.533,2.5293,2.5313,2.5371,2.589,2.6667,2.6695,2.7237,2.7992,2.7923,2.7909,2.8044,0.0,0.0,0.0,0.0,0.0,0.0,0.0,1.8756,0.0,0.0,0.0,0.0,0.0,2.0508,2.0474,0.0,0.0,2.0195,2.0458,2.019,0.0,0.0,0.0,1.9477,0.0,0.0,0.0,0.0,0.0,0.0,0.0,0.0,0.0,0.0,0.0,1.6078,0.0,0.0,0.0,0.0,0.0,2.0507,2.0731,0.0,0.0,2.0435,2.0027,2.0314,0.0,2.0026,1.9712,1.9613,1.9513,1.8879,1.8268,1.8643,1.8011,0.0,0.0,0.0,1.7312,1.6535,0.0,0.0,0.0,0.0,0.0,0.0,0.0,0.0,0.0,0.0,0.0,0.0,0.0,0.0,0.0,0.0,0.0,0.0,0.0,0.0,0.0,0.0,0.0,2.5703,2.5683,2.6053,2.6953,2.694,2.6874,2.6833,2.6817,2.6351,2.5441,2.5493,2.552,2.552,2.552,2.5517,2.5471,2.5427,2.5379,2.533,2.5303,2.5303,2.5313,2.5312,2.5537,2.5897,2.6427,2.685,2.7141,2.7119,2.7441,2.7928,1.4002,0.0,0.0,0.0,0.0,0.0,0.0,0.0,0.0,0.0,2.0566,0.0,2.049,0.0,2.0477,0.0,2.0468,2.0466,2.0398,2.0506,0.0,1.9411,1.9286,0.0,0.0,0.0,0.0,0.0,0.0,1.6395,0.0,0.0,0.0,0.0,0.0,1.6731,1.7255,0.0,1.9612,0.0,0.0,2.1051,0.0,0.0,2.0404,2.0533,0.0,2.0056,2.0474,2.0257,2.0184,2.0191,2.0196,1.959,1.8908,1.8921,1.8103,1.7283,1.7732,1.7948,0.0,1.6678,1.6975,0.0,1.7537,0.0,0.0,0.0,0.0,0.0,0.0,0.0,0.0,0.0,0.0,0.0,0.0,2.5039,0.0,0.0,0.0,0.0,0.0,0.0,2.5662,2.5703,2.5683,2.619,0.0,2.7379,2.7316,2.7255,2.7226,2.6587,2.5371,2.5434,2.5451,2.5451,2.5451,2.5441,2.5398,2.5379,2.5339,2.5303,2.5303,2.5303,2.5293,2.534,2.5545,2.5909,2.6427,2.7024,2.7547,2.7235,2.7469,2.7981,0.0,0.0,0.0,0.0,1.7095,0.0,0.0,0.0,1.9287,0.0,2.0488,2.0429,2.0495,2.0494,2.0463,2.039,2.0437,0.0,2.0307,2.0593,0.0,0.0,1.832,1.7504,1.5893,0.0,0.0,0.0,0.0,0.0,0.0,0.0,0.0,0.0,1.6279,0.0,1.7784,1.9311,2.0563,2.1581,2.2432,2.1656,2.0059,2.0804,2.0934,2.0645,1.9974,1.9779,1.9881,2.0301,2.0506,2.0627,2.0862,2.0909,2.0686,1.9687,1.9133,1.8706,1.8166,1.8522,1.8604,1.6627,0.0,0.0,0.0,0.0,1.8509,0.0,0.0,0.0,0.0,0.0,0.0,0.0,0.0,0.0,0.0,0.0,0.0,0.0,0.0,0.0,0.0,2.562,2.5616,2.5683,2.5638,2.636,0.0,2.8147,2.8085,2.8033,2.7939,2.7063,2.5322,2.5352,2.5398,2.5391,2.5383,2.5391,2.5379,2.5312,2.5274,2.5274,2.5274,2.5274,2.5284,2.5352,2.587,2.6641,2.6676,2.7721,2.9087,2.8212,2.7962,2.8113,1.0677,1.1898,1.3539,0.0,1.6697,1.8374,0.0,0.0,0.0,0.0,2.0425,2.0408,2.0419,2.0438,2.0354,2.0194,2.0069,0.0,0.0,0.0,0.0,1.6298,1.6198,1.5375,1.3727,1.4514,0.0,1.4234,0.0,0.0,1.4854,0.0,0.0,0.0,0.0,0.0,1.7341,1.8801,1.9744,2.0365,2.1789,2.1353,0.0,0.0,2.0476,1.981,1.9165,1.9412,2.0044,1.978,2.0578,2.1644,2.137,2.1113,2.0894,2.0802,2.0033,1.9195,1.9286,1.9723,1.9735,1.8099,1.8501,1.9293,0.0,0.0,0.0,0.0,0.0,0.0,0.0,0.0,0.0,0.0,0.0,0.0,0.0,0.0,0.0,2.4745,0.0,0.0,0.0,2.5174,2.5525,2.5554,2.5545,2.6016,2.714,0.0,2.7729,2.7078,2.7605,2.7063,2.5322,2.5322,2.534,2.5312,2.5166,2.5177,2.5312,2.5049,2.4987,2.5077,2.4975,2.4968,2.5088,2.5113,2.5341,2.5793,2.6399,2.7653,2.9021,2.82,2.8008,2.797,0.8991,0.0,0.0,1.3192,0.0,0.0,1.8656,0.0,0.0,2.0219,2.0332,0.0,2.0313,2.021,1.9999,1.9649,1.9249,0.0,1.795,0.0,0.0,1.4983,1.4645,1.3725,1.2095,1.275,0.0,1.2457,0.0,0.0,1.3429,0.0,0.0,0.0,0.0,1.6315,0.0,1.886,1.9752,2.0289,2.191,0.0,0.0,2.1494,2.1161,2.0103,1.9903,1.9992,2.0264,2.0657,2.1476,2.2285,2.215,2.2025,2.1879,2.1571,2.0625,1.9741,2.0027,2.022,2.0084,1.9081,1.9745,2.0529,1.9991,1.9886,1.9865,0.0,0.0,0.0,0.0,0.0,0.0,0.0,0.0,0.0,0.0,0.0,0.0,0.0,2.4377,0.0,0.0,2.4991,2.5493,2.5493,2.5493,2.5883,2.6744,0.0,2.7207,2.6726,2.7103,2.6628,2.5182,2.5163,2.513,2.508,2.4975,2.4968,2.508,2.4888,2.4842,2.4917,2.4828,2.4842,2.4917,2.4917,2.5027,2.5322,2.6246,2.7409,2.8467,2.764,2.7655,2.8023,0.0,0.0,0.0,0.0,0.0,0.0,0.0,1.7684,0.0,1.9728,0.0,2.0113,2.0048,1.9811,1.9399,1.8888,0.0,1.7558,1.6889,1.6336,1.527,1.3607,1.2995,1.1979,1.0512,1.055,0.0,0.0,0.0,0.0,0.0,0.0,0.0,0.0,0.0,0.0,0.0,1.9137,2.0102,2.0689,2.2362,2.2197,2.1134,2.2619,2.2237,2.0933,2.1425,2.117,2.0789,2.2146,2.2711,2.29,2.3107,2.3264,2.3129,2.2219,2.1155,2.0331,2.0641,2.0495,2.0217,1.9965,2.1178,2.1967,2.03,2.0558,2.0827,1.9703,1.9594,1.9577,0.0,0.0,0.0,0.0,0.0,0.0,0.0,0.0,0.0,0.0,0.0,0.0,0.0,0.0,2.5463,2.5463,2.5463,2.5793,2.6532,0.0,2.6605,2.6486,2.6506,2.6033,2.501,2.4986,2.4917,2.4804,2.4775,2.4775,2.4804,2.4746,2.4731,2.476,2.4731,2.4731,2.476,2.476,2.4836,2.5082,2.6121,2.7001,2.7638,2.7099,2.7268,2.7923,0.0,0.0,0.0,0.0,0.0,1.0578,1.255,1.4903,1.6912,1.8135,1.8849,1.9215,1.9215,1.8923,1.8506,1.7982,1.738,0.0,0.0,0.0,0.0,0.9649,0.9406,0.8791,0.7647,0.8062,0.8502,0.0,0.0,0.0,0.0,0.0,0.0,0.0,0.0,0.0,1.7565,1.8918,0.0,2.0438,2.2376,2.2239,2.0972,2.218,2.2059,2.1334,2.2356,2.263,2.252,2.2585,2.3289,2.4169,2.4222,2.3883,2.3431,2.3316,2.2022,2.0793,2.1591,2.1504,2.1334,2.1983,2.2509,2.2579,2.1522,2.1072,2.04,1.8643,1.892,1.92,1.8403,0.0,0.0,0.0,0.0,0.0,0.0,0.0,0.0,0.0,0.0,0.0,0.0,0.0,0.0,2.5339,2.5339,2.5332,0.0,0.0,2.6037,0.0,2.5831,0.0,0.0,0.0,2.4814,2.4804,2.4623,2.4639,2.479,2.4444,2.4393,2.4526,2.4375,2.441,2.4543,2.4543,2.467,2.4917,2.5778,2.6306,2.6727,2.7963,2.7754,2.6786,0.0,0.0,0.0,0.0,0.0,0.0,0.0,1.0933,0.0,1.6287,1.7147,1.759,1.7965,1.7342,1.6697,1.6191,1.5064,1.3789,1.2454,1.1251,0.9933,0.8567,0.7964,0.0,0.6914,0.7141,0.7466,0.7814,0.0,0.0,0.0,0.0,0.0,0.0,0.0,1.3992,0.0,0.0,0.0,2.003,2.1664,2.1832,2.1214,2.2194,2.2171,2.1753,2.2491,2.2753,2.2807,2.3265,2.3916,2.451,2.4532,2.4444,2.4331,2.4418,2.3552,2.2641,2.2996,2.2789,2.2558,2.2924,2.3273,2.3418,2.2946,2.2383,2.1368,1.9152,1.9056,1.8848,1.7098,1.7625,0.0,0.0,0.0,0.0,0.0,0.0,0.0,0.0,0.0,0.0,0.0,0.0,0.0,0.0,0.0,0.0,0.0,0.0,2.543,0.0,0.0,0.0,0.0,0.0,0.0,2.4495,2.4393,2.4393,2.4478,2.4284,2.4247,2.4358,2.4247,2.4247,2.4339,2.4461,2.4561,2.4692,2.5194,2.5693,2.6195,2.6588,2.6619,2.648,0.0,0.3692,0.0,0.0,0.5806,0.0,0.6949,0.7208,0.9102,1.3876,1.4928,1.5519,1.62,1.5506,1.4771,1.4198,1.2814,1.1638,1.0825,0.925,0.8126,0.7632,0.6831,0.6247,0.6031,0.5989,0.6087,0.0,0.0,0.0,0.0,0.0,0.0,0.0,0.0,0.0,0.0,0.0,1.7923,1.9343,2.0557,2.1032,2.1053,2.1746,2.1996,2.2043,2.2329,2.2548,2.2903,2.3934,2.4168,2.4086,2.4299,2.4618,2.4938,2.5208,2.4803,2.4261,2.4321,2.3892,2.3476,2.357,2.3676,2.3716,2.3437,2.3068,2.2075,1.9427,1.8728,1.7963,1.5978,1.6232,0.0,0.0,0.0,0.0,0.0,0.0,0.0,0.0,0.0,0.0,0.0,0.0,0.0,0.0,0.0,0.0,2.4911,0.0,0.0,0.0,0.0,2.4607,2.4495,0.0,2.4357,2.419,2.419,2.419,2.419,2.419,2.419,2.419,2.419,2.419,2.4209,2.4375,2.4445,2.4444,2.4607,2.5095,2.5631,2.516,2.5409,2.6143,0.0,0.0,0.0,0.0,0.0,0.0,0.4703,0.5137,0.6774,1.0407,1.1981,1.2953,1.3513,1.3637,1.333,1.2411,1.192,1.0629,0.8238,0.7891,0.6879,0.489,0.4682,0.4156,0.3105,0.3105,0.3108,0.0,0.0,0.0,0.0,0.0,0.0,0.0,0.0,0.0,0.0,1.5293,1.667,1.8144,1.9186,1.9592,1.9624,1.9876,2.0841,2.2085,2.2129,2.2751,2.3692,2.434,2.3653,2.2639,2.3446,2.3912,2.4365,2.5288,2.4873,2.4297,2.5136,2.4365,2.3517,2.4271,2.379,2.2781,2.1551,2.1574,2.0994,1.808,1.6687,1.5903,1.562,1.5231,1.5264,0.0,0.0,0.0,0.0,0.0,0.0,0.0,0.0,0.0,0.0,2.4832,0.0,0.0,2.4727,0.0,0.0,0.0,0.0,2.4543,0.0,2.4321,2.4495,2.4321,2.4209,2.419,2.419,2.419,2.419,2.419,2.419,2.419,2.419,2.419,2.419,2.4228,2.4228,2.4228,2.4247,2.4412,2.4731,2.5364,2.5327,2.5088,0.0,0.0,0.0,0.0,0.0,0.0,0.0,0.2461,0.3245,0.502,0.7463,0.9595,1.1063,1.0495,0.9977,0.9933,0.8915,0.7853,0.6803,0.6102,0.531,0.443,0.4092,0.3704,0.3262,0.2898,0.275,0.0,0.0,0.0,0.0,0.0,0.0,0.0,0.0,1.1035,1.2704,1.348,1.4839,1.6491,1.6968,1.7698,1.841,1.8236,1.92,2.0582,1.9984,2.0824,2.2204,2.22,2.2911,2.3881,2.4404,2.4754,2.5071,2.5426,2.5279,2.5017,2.5075,2.4443,2.3794,2.3872,2.3365,2.2495,2.1287,2.1432,2.1191,1.8954,1.7699,1.6864,1.6517,1.5435,1.4676,0.0,0.0,0.0,0.0,0.0,0.0,0.0,0.0,0.0,0.0,0.0,2.4458,0.0,0.0,0.0,0.0,0.0,0.0,2.4495,0.0,2.4134,2.402,2.4134,2.4094,2.3896,2.4094,2.419,2.419,2.3996,2.3795,2.3588,2.3588,2.3714,2.3896,2.3896,2.4016,2.419,2.419,2.4247,2.4358,2.4672,2.4721,2.4692,-0.5677,0.0,-0.1896,0.0,0.0397,0.1371,0.0487,0.0355,0.0531,0.0969,0.3229,0.5745,0.8251,0.7872,0.7536,0.7762,0.6761,0.595,0.5615,0.4856,0.4347,0.418,0.3792,0.0,0.335,0.2898,0.2668,0.2562,0.2668,0.0,0.0,0.0,0.0,0.0,0.8529,0.9912,1.1089,1.1813,1.3073,1.4627,1.491,1.5761,1.6856,1.6375,1.7335,1.8873,1.8275,1.9264,2.0912,2.1293,2.2802,2.457,2.4787,2.4994,2.5194,2.5426,2.5464,2.5323,2.4898,2.4277,2.3643,2.3198,2.2646,2.1872,2.0586,2.0844,2.0438,1.7131,1.7717,1.7625,1.3682,1.289,1.2858,1.2876,0.0,0.0,0.0,0.0,0.0,0.0,2.373,2.3778,2.3775,2.3785,0.0,0.0,0.0,0.0,0.0,0.0,0.0,0.0,0.0,0.0,2.3566,2.3795,2.3795,2.3566,2.3896,2.4036,2.4036,2.3816,2.3566,2.3346,2.3236,2.3346,2.3566,2.3671,2.3837,2.4074,2.417,2.419,2.419,2.419,2.4284,2.4444,-0.7025,-0.5906,-0.444,-0.2194,-0.1281,-0.0842,-0.0886,-0.0886,-0.0886,-0.0886,-0.0311,0.1409,0.4872,0.6235,0.6713,0.6193,0.6114,0.5615,0.4474,0.4391,0.4176,0.0,0.0,0.3306,0.2719,0.2719,0.2408,0.183,0.0,0.0,0.3544,0.0,0.6706,0.6264,0.7972,0.8964,0.9503,1.0574,1.1552,1.251,1.3178,1.3978,1.4777,1.4248,1.5329,1.719,1.7571,1.8684,2.0347,2.2614,2.3617,2.391,2.3987,2.4069,2.4291,2.5231,2.5274,2.4965,2.4755,2.3819,2.2817,2.2501,2.1707,2.0603,1.8987,1.9401,1.812,1.1155,1.5771,1.7446,0.556,0.6265,0.9107,1.0423,0.0,0.0,0.0,0.0,0.0,0.0,2.1953,2.19,2.3094,2.2562,0.0,0.0,0.0,0.0,0.0,0.0,0.0,2.3714,2.3714,0.0,2.3212,2.3212,2.3212,2.3212,2.3544,2.3714,2.3714,2.3692,2.3692,2.3671,2.3346,2.3189,2.3212,2.3566,2.3692,2.3735,2.4074,2.419,2.419,2.419,2.419,2.4247,-0.9142,-0.7282,-0.5286,-0.3821,-0.2434,-0.1646,-0.2045,-0.2133,-0.2133,-0.2133,-0.1242,-0.0044,0.1495,0.3075,0.4271,0.0,0.46,0.422,0.0,0.3836,0.3702,0.3429,0.338,0.3246,0.2977,0.2691,0.248,0.2267,0.0,0.0,0.0,0.4687,0.5336,0.5653,0.6952,0.8005,0.8826,0.9255,0.9935,1.0693,1.0676,1.147,1.2611,1.2108,1.3324,1.5345,1.5365,1.7138,1.9718,2.1405,2.2886,2.4101,2.4447,2.4697,2.4822,2.471,2.4412,2.3977,2.3297,2.2139,2.1081,2.1001,2.0273,1.9126,1.741,1.4925,1.095,0.3884,0.5048,0.5927,0.1325,-0.0146,0.0446,0.3835,0.6785,0.0,0.0,0.0,0.0,0.0,2.2653,2.2704,0.0,2.284,0.0,0.0,0.0,0.0,0.0,0.0,0.0,0.0,2.3369,0.0,2.2873,2.3093,2.3189,2.3189,2.3544,2.3566,2.3369,2.3369,2.3129,2.2756,2.2624,2.2695,2.2873,2.2972,2.3141,2.3392,2.3714,2.3876,2.3896,2.4132,2.419,2.4266,-1.0414,-0.8406,-0.6312,-0.5214,-0.38,-0.2846,-0.3031,-0.3034,-0.2943,-0.2719,-0.1868,-0.0933,-0.0089,0.1424,0.0,0.3686,0.366,0.3581,0.3581,0.3581,0.3537,0.3396,0.3393,0.3323,0.3169,0.297,0.0,0.2849,0.2974,0.3214,0.3626,0.4132,0.4609,0.5,0.5936,0.671,0.7305,0.7615,0.8117,0.8723,0.8799,0.9571,1.0752,1.0439,1.1623,1.3483,1.3671,1.5695,1.8497,2.0026,2.1778,2.343,2.4011,2.4266,2.4271,2.3984,2.3658,2.3186,2.2159,2.1055,2.0159,2.007,1.9456,1.8525,1.7054,1.0916,0.3971,-0.1498,-0.5575,-0.7719,-0.628,-0.7438,-0.6778,-0.1155,0.2979,0.7517,1.3342,0.0,0.0,0.0,0.0,0.0,0.0,2.2401,2.2468,0.0,0.0,0.0,0.0,0.0,0.0,2.3021,2.288,0.0,2.2563,2.2591,2.2695,2.2857,2.3183,2.3277,2.3189,2.3069,2.2807,2.2436,2.2349,2.2436,2.2721,2.2848,2.3093,2.3414,2.3774,2.3896,2.3917,2.4113,2.419,2.4266,-1.087,-0.9213,0.0,0.0,-0.5153,0.0,-0.3667,-0.3581,-0.3398,-0.2763,-0.2184,-0.1337,-0.0134,0.1069,0.2051,0.263,0.0,0.0,0.0,0.3581,0.3575,0.3565,0.3565,0.349,0.3296,0.3344,0.3399,0.3409,0.3554,0.3581,0.3626,0.4092,0.4347,0.443,0.5,0.526,0.5346,0.5834,0.6298,0.676,0.7363,0.8154,0.9005,0.9171,1.0204,1.1662,1.244,1.4413,1.6905,1.8677,2.046,2.208,2.2868,2.2973,2.2863,2.3074,2.2914,2.2414,2.118,2.0369,1.9794,1.9561,1.914,1.84,1.6921,0.7323,-0.22,-0.5776,-1.53,-2.1341,-1.6177,-1.519,-1.265,-0.5007,0.0408,0.5981,1.2573,0.0,0.0,0.0,0.0,0.0,0.0,2.1424,2.1549,0.0,0.0,0.0,0.0,0.0,2.293,2.2574,2.2207,2.2091,2.2237,2.1823,2.1853,2.2321,2.2599,2.2898,2.3141,2.2848,2.2695,2.266,2.2426,2.2463,2.2721,2.3069,2.3392,2.3692,2.4036,2.417,2.417,2.419,2.4209,2.4266,0.0,0.0,-0.7293,-0.576,-0.4865,-0.422,-0.3667,-0.3581,-0.3398,-0.2763,-0.2184,-0.1337,-0.0134,0.1069,0.2051,0.263,0.3262,0.3581,0.3581,0.3581,0.3527,0.3366,0.3363,0.3289,0.3139,0.3249,0.3409,0.3571,0.3561,0.3581,0.3626,0.3707,0.4008,0.4391,0.4565,0.487,0.5308,0.5427,0.5539,0.5668,0.5825,0.6289,0.6907,0.7363,0.8528,1.005,1.1383,1.3665,1.6297,1.8268,1.9996,2.1435,2.2142,2.2191,2.203,2.228,2.1573,2.0448,1.9435,1.887,1.8513,1.8398,1.8058,1.6083,0.9632,0.3309,-0.4186,-1.4725,-1.8659,-2.0314,-2.0611,-2.064,-1.8182,-1.0692,-0.4537,0.2085,1.0134,1.6138,0.0,0.0,2.1848,2.2129,2.2118,2.2085,2.2124,0.0,0.0,0.0,0.0,2.2039,2.1799,2.1411,2.1305,2.1413,2.1764,2.1658,2.1948,2.2625,2.2923,2.2996,2.2822,2.2746,2.2573,2.2398,2.2537,2.2634,2.2721,2.3069,2.3253,2.3346,2.3692,2.3816,2.3837,2.4094,2.4303,2.4554,-1.0586,-0.9006,-0.7335,-0.5919,-0.4947,-0.422,-0.3667,-0.3581,-0.3262,-0.2408,-0.2006,-0.1248,0.0268,0.1248,0.2051,0.263,0.3262,0.3581,0.3581,0.3581,0.3544,0.3456,0.3453,0.334,0.3189,0.3266,0.3346,0.3476,0.3274,0.317,0.317,0.2889,0.293,0.3193,0.3194,0.3376,0.3716,0.3688,0.3698,0.3763,0.4248,0.4674,0.5005,0.5882,0.719,0.8757,1.0077,1.257,1.5599,1.7788,1.9342,2.0523,2.1375,2.1126,2.0379,1.978,1.9708,1.9491,1.7977,1.7851,1.8121,1.8235,1.8368,1.5846,0.5858,-0.0187,-0.6529,-1.6572,-1.9123,-1.996,-2.1259,-2.194,-1.9981,-1.2834,-0.6364,0.0707,0.904,1.5352,0.0,2.0846,2.1568,2.1974,2.1974,2.2163,2.231,2.231,2.231,0.0,2.2003,2.1718,2.1491,2.1275,2.0878,2.0975,2.1582,2.1794,2.2113,2.2527,2.2695,2.2695,2.2527,2.2527,2.2453,2.231,2.2436,2.2678,2.2947,2.3117,2.3392,2.3671,2.3876,2.3917,2.3958,2.4229,2.441,2.4601,-1.0897,-0.9252,-0.75,-0.6204,-0.5105,-0.422,-0.3667,-0.3534,-0.3081,-0.1964,-0.1786,-0.107,0.0849,0.1474,0.2095,0.2765,0.3306,0.3581,0.3581,0.3581,0.3581,0.3581,0.3581,0.3517,0.3343,0.3343,0.3288,0.3182,0.2838,0.2674,0.2539,0.2019,0.1803,0.1806,0.1808,0.1818,0.1792,0.1792,0.1805,0.1901,0.2832,0.3281,0.35,0.46,0.6029,0.7613,0.8779,1.1566,1.5108,1.7348,1.8777,1.9819,2.0703,1.9859,1.8193,1.6673,1.7381,1.8257,1.6481,1.6876,1.7461,1.5892,1.5903,1.3371,0.2394,-0.4534,-1.0159,-1.5601,-1.8279,-1.979,-2.0398,-2.1224,-1.9656,-1.3071,-0.6566,0.0517,0.8633,0.0,1.9023,2.0078,2.1023,2.1582,2.1582,2.2032,2.231,2.231,2.231,2.2135,2.1735,2.1658,2.1582,2.1582,2.083,2.0797,2.1582,2.2077,2.231,2.231,2.231,2.231,2.231,2.231,2.231,2.231,2.2349,2.2686,2.3189,2.3236,2.3649,2.419,2.419,2.4209,2.4284,2.4445,2.4526,2.4639,-1.0432,-0.9318,-0.7908,-0.5808,-0.4856,-0.4208,-0.3663,-0.317,-0.2586,-0.1873,-0.1786,-0.0936,0.1426,0.1741,0.223,0.3353,0.3534,0.3581,0.3581,0.3581,0.3581,0.3581,0.3581,0.3568,0.3544,0.3544,0.3264,0.2639,0.2664,0.245,0.1917,0.1862,0.1783,0.1817,0.1818,0.1819,0.1801,0.1803,0.178,0.1822,0.1978,0.2359,0.289,0.3544,0.4833,0.6565,0.8085,1.155,1.5679,1.7132,1.8858,2.045,2.049,1.8324,1.5564,1.4727,1.4411,1.4282,1.4208,1.5373,1.4114,0.3796,0.0877,-0.0976,-0.6724,-1.2996,-1.7643,-1.7744,-1.8076,-1.895,-2.1101,-2.0937,-1.8637,-1.2931,-0.6909,-0.0122,0.8056,0.0,1.8371,1.9555,2.0846,2.1582,2.1582,2.2032,2.231,2.231,2.231,2.2282,2.2209,2.1823,2.1582,2.1582,2.115,2.1118,2.1598,2.2077,2.231,2.231,2.231,2.231,2.231,2.231,2.231,2.231,2.2537,2.2848,2.3212,2.3522,2.3837,2.419,2.419,2.4303,2.4461,2.4495,2.4678,2.5032,-1.005,-0.8993,-0.7713,-0.5637,-0.4565,-0.3873,-0.3622,-0.3353,-0.2857,-0.1919,-0.1514,-0.0533,0.1561,0.2095,0.2632,0.3534,0.3581,0.3581,0.3581,0.3581,0.3581,0.3581,0.3581,0.3442,0.3126,0.3126,0.2649,0.1642,0.1365,0.0967,0.043,0.0043,-0.0042,0.0121,0.0,0.004,0.0117,0.0,0.0167,0.0462,0.0744,0.1203,0.1786,0.2357,0.3271,0.4423,0.5741,0.8069,1.1003,1.4059,1.5687,1.6756,1.8503,1.7636,1.5527,1.3388,1.0932,0.8584,0.6818,0.5818,0.4031,-0.0812,-0.7398,-1.3157,-1.4697,-1.7089,-1.861,-1.7455,-1.7783,-1.884,-2.0603,-1.8831,-1.5967,-1.2543,-0.5814,0.0,0.0,1.3167,1.713,1.884,1.9917,2.0798,2.1521,2.1794,2.2032,2.2282,2.231,2.236,2.25,2.2186,2.2124,2.2451,2.1728,2.1399,2.1582,2.2077,2.231,2.231,2.231,2.231,2.231,2.231,2.231,2.231,2.2426,2.2755,2.3212,2.3369,2.3801,2.4357,2.4357,2.4478,2.467,2.4737,2.4872,2.508,-0.9795,-0.8673,-0.7445,-0.5637,-0.4351,-0.3571,-0.3581,-0.349,-0.2993,-0.1919,-0.1379,-0.0355,0.1604,0.2228,0.281,0.3534,0.3581,0.3581,0.3581,0.3581,0.3581,0.3581,0.3486,0.302,0.2238,0.2258,0.1679,0.0437,0.0,-0.0481,-0.0975,-0.1526,-0.1658,-0.1428,-0.1643,-0.1666,-0.1535,-0.1746,-0.1503,-0.0977,-0.0644,0.0,0.0794,0.12,0.1912,0.283,0.372,0.5155,0.7102,0.9936,1.1954,1.3513,1.4918,1.4811,1.3544,1.0267,0.5934,0.1546,-0.1167,-0.448,-0.7092,-0.6858,-1.4208,-2.1263,-2.0469,-1.9804,-1.8879,-1.718,-1.793,-1.8899,-1.8794,-1.6528,-1.369,-1.0733,0.0,0.0,0.0,1.2219,1.5941,1.8026,1.906,2.0097,2.1321,2.1552,2.1794,2.2254,2.231,2.2426,2.2695,2.2453,2.2544,2.3069,2.2279,2.1861,2.1861,2.2147,2.231,2.231,2.231,2.231,2.231,2.231,2.231,2.231,2.2377,2.2695,2.3212,2.3333,2.3828,2.4512,2.4543,2.4666,2.4869,2.4962,2.5034,2.5088,-0.9739,-0.8561,-0.7293,-0.5599,-0.4291,-0.351,-0.3575,-0.3126,-0.2539,-0.1873,-0.1739,-0.0846,0.156,0.183,0.2322,0.349,0.3581,0.3581,0.3581,0.3581,0.3581,0.3581,0.3078,0.2184,0.088,0.0957,0.0392,-0.0964,-0.0871,-0.1154,-0.1731,-0.1775,-0.178,-0.1789,-0.2026,-0.2165,-0.2144,-0.2422,-0.2299,-0.1908,-0.2018,-0.1131,0.0254,0.0176,0.1198,0.2788,0.3327,0.5498,0.7709,0.5357,0.8932,1.3622,0.9192,0.7305,0.6155,0.3351,-0.1973,-0.7043,-0.7532,-1.1558,-1.6503,-2.025,-2.1874,-2.2555,-2.2396,-2.2335,-2.1449,-1.8478,-1.9094,-1.8943,-1.5005,-1.4903,-1.3135,-0.6183,0.0,0.0,0.774,1.1997,1.5254,1.7098,1.8664,1.9958,2.0959,2.1368,2.1794,2.2254,2.231,2.2426,2.2695,2.2453,2.2426,2.2721,2.2669,2.2617,2.2617,2.2426,2.231,2.231,2.231,2.231,2.231,2.231,2.231,2.2293,2.2563,2.2873,2.3236,2.3731,2.4174,2.4528,2.47,2.485,2.4986,2.4998,2.5111,2.5274,-0.9417,-0.844,-0.7439,-0.5599,-0.4696,-0.4089,-0.3667,-0.3398,-0.2901,-0.1919,-0.1468,-0.0444,0.1561,0.214,0.2677,0.3534,0.3581,0.3442,0.3078,0.3034,0.3034,0.3034,0.2089,0.122,0.0418,0.0,-0.0953,-0.2447,-0.2514,-0.2885,-0.3552,-0.3655,-0.3515,-0.3173,-0.3343,-0.3404,-0.3335,-0.3503,-0.3281,-0.2821,-0.3195,-0.2491,-0.1297,-0.1572,-0.1238,-0.066,-0.0782,-0.029,0.0223,-0.129,0.0396,0.2646,-0.0261,0.0197,0.0558,-0.5725,-0.9579,-1.1775,-1.1713,-1.4208,-1.7576,-2.0911,-2.1466,-2.1556,-2.2819,-2.2551,-2.1553,-1.9807,-1.9831,-1.9579,-1.7587,-1.3766,-0.9904,-0.6796,0.0,0.4247,0.8037,1.1367,1.4213,1.638,1.8085,1.9611,2.0894,2.1368,2.1794,2.2254,2.231,2.2508,2.2972,2.3294,2.3427,2.3323,2.3323,2.3212,2.3021,2.2908,2.2755,2.2537,2.2537,2.2463,2.231,2.231,2.2388,2.2563,2.266,2.3021,2.3544,2.387,2.4263,2.47,2.4864,2.503,2.5192,2.5192,2.5224,2.5303,-0.9185,-0.817,-0.7238,-0.5599,-0.4918,-0.436,-0.3711,-0.3581,-0.3173,-0.1964,-0.1424,-0.0489,0.1339,0.1873,0.2364,0.2993,0.3037,0.2765,0.2178,0.1775,0.1643,0.1823,0.0887,-0.0087,-0.0936,-0.1441,-0.2423,-0.3812,-0.3891,-0.4135,-0.4527,-0.468,-0.4588,-0.4327,-0.4509,-0.4632,-0.468,-0.4861,-0.452,-0.3966,-0.4575,-0.3953,-0.2739,-0.3278,-0.3346,-0.3256,-0.3626,-0.4274,-0.5238,-0.6795,-0.692,-0.6919,-0.9813,-0.8346,-0.6706,-1.2448,-1.4213,-1.4458,-1.5362,-1.6029,-1.7086,-1.9732,-2.0525,-2.1108,-2.2768,-2.27,-2.1954,-2.0797,-2.0256,-1.9351,-1.7191,-1.2045,-0.7454,-0.5404,0.0269,0.54,0.8242,1.0987,1.3615,1.6015,1.7783,1.9381,2.0846,2.1368,2.1794,2.2254,2.231,2.248,2.2908,2.3628,2.3896,2.3544,2.35,2.3332,2.3012,2.3018,2.289,2.2573,2.2573,2.249,2.231,2.231,2.2453,2.2721,2.2822,2.3165,2.3735,2.41,2.4468,2.4818,2.5018,2.5173,2.5303,2.5303,2.5303,2.5303,-0.9084,-0.7792,-0.6651,-0.5518,-0.4826,-0.422,-0.3667,-0.3581,-0.3173,-0.1964,-0.1786,-0.1116,0.0716,0.0895,0.1118,0.1741,0.1784,0.1514,0.093,-0.0266,-0.0665,-0.0044,-0.0577,-0.1726,-0.3453,-0.3497,-0.3987,-0.4893,-0.4893,-0.4744,-0.4413,-0.4413,-0.4625,-0.5042,-0.535,-0.5746,-0.6116,-0.6379,-0.6014,-0.5284,-0.6313,-0.5517,-0.3851,-0.4854,-0.4867,-0.4341,-0.4341,-0.5297,-0.7087,-1.0548,-1.1914,-1.3112,-1.8803,-1.8574,-1.6188,-1.6041,-1.5261,-1.5184,-1.8643,-1.7505,-1.5905,-1.8241,-2.0149,-2.1661,-2.242,-2.3106,-2.3103,-2.1443,-2.0401,-1.8064,-1.2376,-0.9594,-0.6405,-0.0925,0.246,0.5408,0.8287,1.1012,1.3615,1.6015,1.7783,1.9381,2.0846,2.1368,2.1794,2.2254,2.231,2.231,2.231,2.3177,2.3526,2.3212,2.3055,2.2849,2.2598,2.2658,2.2573,2.2293,2.2293,2.231,2.231,2.231,2.2453,2.2721,2.3045,2.3392,2.3738,2.4487,2.479,2.4832,2.516,2.5303,2.5303,2.5303,2.5303,2.5303,-0.9658,-0.865,-0.7578,-0.5642,-0.513,-0.47,-0.3751,-0.3581,-0.3173,-0.1964,-0.1786,-0.1293,0.0134,0.0267,0.0356,0.0533,0.0532,0.0266,-0.031,-0.1508,-0.2089,-0.1912,-0.2438,-0.2922,-0.3343,-0.4268,-0.4944,-0.5324,-0.5685,-0.5844,-0.5742,-0.6006,-0.6125,-0.6072,-0.6142,-0.6262,-0.6379,-0.6468,-0.6358,-0.6153,-0.6655,-0.6433,-0.5855,-0.6409,-0.6888,-0.7304,-0.7654,-0.8777,-1.0438,-1.2762,-1.4269,-1.5731,-1.8902,-1.8411,-1.6802,-1.7321,-1.756,-1.785,-1.8899,-1.9277,-1.9705,-2.1181,-1.9768,-1.8853,-2.2066,-2.2264,-2.1641,-2.1204,-2.0035,-1.7876,-1.3796,-1.0146,-0.616,-0.1484,0.2165,0.5565,0.8923,1.1326,1.3615,1.6015,1.8026,1.9693,2.0878,2.1645,2.2135,2.2282,2.2686,2.2933,2.2933,2.3124,2.3157,2.306,2.2484,2.2009,2.1689,2.1747,2.1794,2.1799,2.1799,2.1977,2.231,2.231,2.2453,2.2721,2.2822,2.3045,2.3414,2.3988,2.4244,2.4296,2.486,2.5088,2.5099,2.5253,2.533,2.536,-1.0215,-0.9147,-0.8098,-0.6271,-0.5776,-0.5356,-0.4403,-0.4056,-0.3565,-0.2578,-0.2271,-0.1782,-0.0801,-0.0712,-0.0712,-0.071,-0.0931,-0.1241,-0.1598,-0.2536,-0.3164,-0.3375,-0.3898,-0.4195,-0.4085,-0.5099,-0.5837,-0.6268,-0.6436,-0.6549,-0.662,-0.6715,-0.6748,-0.6751,-0.6901,-0.7059,-0.7237,-0.7365,-0.7248,-0.7044,-0.789,-0.7874,-0.7419,-0.8328,-0.9088,-0.9782,-1.0097,-1.1311,-1.2889,-1.4141,-1.5743,-1.7487,-1.8901,-1.8693,-1.8126,-1.8968,-1.897,-1.9004,-2.0443,-2.088,-2.0678,-1.9454,-1.661,-1.5495,-2.1024,-2.1745,-2.1019,-2.0195,-1.861,-1.6361,-1.3134,-0.9104,-0.5083,-0.151,0.2039,0.561,0.9146,1.1416,1.3588,1.5982,1.8101,1.971,2.0528,2.1645,2.231,2.231,2.2747,2.2996,2.2996,2.289,2.2792,2.2792,2.1825,2.115,2.0877,2.0896,2.1141,2.1562,2.148,2.1649,2.2032,2.2209,2.2354,2.2468,2.2643,2.2898,2.3236,2.365,2.3892,2.4063,2.4516,2.4841,2.5022,2.5141,2.5274,2.5394,-1.0867,-0.9506,-0.8383,-0.7266,-0.6628,-0.6044,-0.5394,-0.4778,-0.4164,-0.3588,-0.3023,-0.2495,-0.1962,-0.1873,-0.1919,-0.1964,-0.2453,-0.2763,-0.2763,-0.3347,-0.388,-0.4391,-0.5043,-0.5394,-0.5394,-0.5959,-0.6626,-0.7347,-0.7026,-0.6935,-0.7073,-0.6746,-0.6811,-0.7237,-0.7589,-0.7984,-0.8365,-0.8679,-0.8439,-0.8008,-0.9611,-0.9571,-0.8774,-1.0355,-1.1293,-1.1788,-1.1848,-1.2969,-1.4516,-1.4949,-1.6602,-1.8502,-1.8801,-1.9219,-1.9768,-2.0578,-1.9677,-1.9124,-2.2447,-2.2,-1.9603,-1.5484,-1.2609,-1.2586,-1.9464,-2.1133,-2.0639,-1.8566,-1.6501,-1.4142,-1.1,-0.7119,-0.3599,-0.1181,0.2121,0.5602,0.9004,1.1372,1.3568,1.5943,1.8041,1.9519,2.0048,2.1429,2.231,2.2321,2.259,2.2772,2.2797,2.2638,2.2501,2.2429,2.1243,2.0509,2.0264,2.03,2.0672,2.1384,2.1293,2.1395,2.1688,2.2106,2.2215,2.2141,2.2512,2.2848,2.3171,2.3378,2.3676,2.3988,2.4258,2.461,2.4986,2.5022,2.5187,2.5408,-1.2306,-1.0781,-0.9349,-0.784,-0.7134,-0.6489,-0.5475,-0.4778,-0.4164,-0.3588,-0.3023,-0.263,-0.2539,-0.2495,-0.2674,-0.3173,-0.3309,-0.3398,-0.3398,-0.3917,-0.4264,-0.4387,-0.5437,-0.6007,-0.6007,-0.6556,-0.6798,-0.6777,-0.7115,-0.7161,-0.6942,-0.7287,-0.7647,-0.8042,-0.8138,-0.8354,-0.8706,-0.8761,-0.8945,-0.9223,-0.9593,-1.0242,-1.0988,-1.1385,-1.2268,-1.3347,-1.3611,-1.4255,-1.5137,-1.6313,-1.7647,-1.8794,-1.8877,-1.9228,-1.9668,-2.0016,-2.0055,-2.021,-2.1095,-2.0513,-1.9678,-1.9664,-1.6991,-1.5056,-1.7681,-1.8281,-1.7909,-1.6504,-1.5134,-1.311,-0.9596,-0.6743,-0.3908,-0.0696,0.2553,0.5639,0.8367,1.1051,1.367,1.6088,1.7543,1.8998,2.0639,2.1698,2.2388,2.2599,2.2898,2.3212,2.3459,2.3111,2.2593,2.1971,2.1676,2.1263,2.0682,2.0987,2.0963,2.0649,2.1211,2.1755,2.2135,2.2237,2.2293,2.226,2.236,2.2554,2.2848,2.313,2.3468,2.3824,2.4452,2.4752,2.4883,2.5149,2.5352,2.5493,-1.3561,-1.192,-1.0432,-0.9116,-0.8286,-0.7543,-0.667,-0.6016,-0.5454,-0.4856,-0.4029,-0.351,-0.351,-0.3296,-0.3262,-0.3578,-0.3581,-0.3711,-0.3965,-0.4264,-0.4648,-0.5216,-0.5873,-0.6435,-0.6985,-0.728,-0.7486,-0.7594,-0.7459,-0.7565,-0.7888,-0.7968,-0.8091,-0.8319,-0.8673,-0.8996,-0.9283,-0.948,-0.969,-1.0009,-1.0762,-1.1496,-1.2221,-1.2993,-1.3967,-1.4991,-1.5241,-1.5793,-1.6465,-1.7205,-1.8035,-1.8739,-1.86,-1.8976,-1.9452,-1.9428,-1.9475,-1.9597,-1.9866,-1.9297,-1.8759,-1.9303,-1.7894,-1.6693,-1.8002,-1.7963,-1.7064,-1.502,-1.4232,-1.263,-0.8512,-0.631,-0.3964,-0.048,0.2534,0.5462,0.8497,1.0789,1.3077,1.5646,1.7378,1.9202,2.1409,2.202,2.2377,2.25,2.294,2.3277,2.3437,2.3251,2.2952,2.2543,2.2213,2.1868,2.151,2.2129,2.2194,2.1734,2.1896,2.2195,2.26,2.277,2.2626,2.2226,2.2419,2.2617,2.2877,2.3029,2.344,2.4026,2.4414,2.47,2.493,2.5126,2.5355,2.5551,-1.4708,-1.2914,-1.1424,-1.0502,-0.9482,-0.8643,-0.7995,-0.7384,-0.679,-0.6264,-0.513,-0.4387,-0.4387,-0.3924,-0.3581,-0.3581,-0.3581,-0.3836,-0.4347,-0.4478,-0.5043,-0.6136,-0.6307,-0.6816,-0.7878,-0.7818,-0.809,-0.8716,-0.7977,-0.8149,-0.9082,-0.8623,-0.851,-0.8716,-0.9232,-0.9649,-1.0008,-1.0333,-1.0576,-1.0829,-1.2237,-1.2912,-1.326,-1.4674,-1.5675,-1.6386,-1.6643,-1.7259,-1.7906,-1.7864,-1.8208,-1.8661,-1.8336,-1.867,-1.9089,-1.8685,-1.8284,-1.804,-1.8377,-1.777,-1.7082,-1.7172,-1.7083,-1.7264,-1.8381,-1.8003,-1.6622,-1.3961,-1.3459,-1.2186,-0.7734,-0.5927,-0.3939,-0.0416,0.2375,0.5217,0.8622,1.0539,1.2511,1.5053,1.7407,1.9673,2.1781,2.2169,2.2349,2.2443,2.2908,2.3259,2.3401,2.3474,2.3446,2.3329,2.2943,2.2685,2.2569,2.3389,2.3659,2.3355,2.2862,2.2813,2.3095,2.327,2.2981,2.2384,2.2701,2.297,2.3168,2.3178,2.3649,2.4382,2.4441,2.4693,2.5056,2.5127,2.5346,2.5579,-1.5543,-1.368,-1.1962,-1.0983,-1.0021,-0.9039,-0.8036,-0.7384,-0.679,-0.6264,-0.513,-0.4387,-0.4387,-0.3924,-0.3581,-0.3581,-0.3581,-0.3836,-0.4347,-0.487,-0.548,-0.6184,-0.6641,-0.7189,-0.787,-0.7499,-0.7763,-0.8716,-0.8647,-0.894,-0.9492,-0.9031,-0.9374,-1.0353,-0.9939,-1.0121,-1.0763,-1.0825,-1.1415,-1.2416,-1.2917,-1.3957,-1.5251,-1.5811,-1.6465,-1.7124,-1.7555,-1.8194,-1.879,-1.8483,-1.8728,-1.9041,-1.8537,-1.8531,-1.8506,-1.7535,-1.6545,-1.5759,-1.5859,-1.496,-1.4387,-1.5959,-1.6014,-1.5717,-1.59,-1.5617,-1.4874,-1.3369,-1.2492,-1.0957,-0.7543,-0.5918,-0.3987,-0.0533,0.2392,0.5139,0.7575,1.0449,1.2899,1.4594,1.7777,2.0042,2.0685,2.1692,2.2508,2.3038,2.3141,2.3512,2.4265,2.4314,2.407,2.3493,2.411,2.4208,2.3678,2.4313,2.4436,2.4062,2.3762,2.3694,2.3817,2.3131,2.3023,2.3408,2.3447,2.3633,2.3874,2.3934,2.4267,2.4752,2.4986,2.5131,2.5205,2.5375,2.5466,2.5507,-1.6137,-1.4085,-1.2212,-1.1509,-1.0591,-0.9686,-0.8918,-0.8292,-0.7758,-0.7238,-0.6124,-0.5265,-0.4957,-0.414,-0.3581,-0.3581,-0.3581,-0.3836,-0.4347,-0.4957,-0.5567,-0.6184,-0.6732,-0.744,-0.8316,-0.8158,-0.8512,-0.9545,-0.8788,-0.8766,-0.9487,-0.9421,-0.9779,-1.0483,-1.0439,-1.0688,-1.1127,-1.1127,-1.1626,-1.2485,-1.2978,-1.4171,-1.566,-1.6214,-1.7126,-1.8161,-1.8628,-1.9029,-1.9311,-1.9156,-1.9243,-1.9316,-1.8661,-1.8316,-1.7942,-1.6905,-1.5694,-1.4734,-1.4957,-1.43,-1.3959,-1.5535,-1.5756,-1.5624,-1.5848,-1.4979,-1.3771,-1.2539,-1.1475,-0.9963,-0.7387,-0.5702,-0.3777,-0.0971,0.1403,0.3812,0.6404,0.9261,1.244,1.606,1.817,1.9805,2.0999,2.1611,2.2192,2.2873,2.3093,2.3512,2.4192,2.4505,2.4572,2.4347,2.4859,2.5014,2.4745,2.5085,2.4908,2.4248,2.4171,2.4046,2.3875,2.3531,2.3616,2.4052,2.4086,2.4233,2.4458,2.448,2.4769,2.5194,2.5318,2.5377,2.5378,2.5429,2.5405,2.5332]}]]